[[{"header":{"parameterUnit":"m.s-1","parameterCategory":1,"la1":31.0,"la2":29.5877,"lo1":-88.7671,"lo2":-86.6584,"dy":0.0162,"dx":0.0185,"nx":115,"ny":88,"refTime":"2023-10-19T06:00:00:Z","depth":0,"parameterNumber":2,"parameterNumberName":"U-component_of_WINDS"},"data":[0.0,0.0,0.0,0.0,0.0,0.0,0.0,0.0,0.0,0.0,0.0,0.0,0.0,0.0,0.0,0.0,0.0,0.0,0.0,0.0,0.0,0.0,0.0,0.0,0.0,0.0,0.0,0.0,0.0,0.0,0.0,0.0,0.0,0.0,0.0,0.0,0.0,0.0,0.0,0.0,0.0,0.0,0.0,0.0,0.0,0.0,0.0,0.0,0.0,0.0,0.0,0.0,0.0,0.0,0.0,0.0,0.0,0.0,0.0,0.0,0.0,0.0,0.0,0.0,0.0,0.0,0.0,0.0,0.0,0.0,0.0,0.0,0.0,0.0,0.0,0.0,0.0,0.0,0.0,0.0,0.0,0.0,0.0,0.0,0.0,0.0,0.0,0.0,0.0,0.0,0.0,0.0,0.0,0.0,0.0,0.0,0.0,0.0,0.0,0.0,0.0,0.0,0.0,0.0,0.0,0.0,0.0,0.0,0.0,0.0,0.0,0.0,0.0,0.0,0.0,0.0,0.0,0.0,0.0,0.0,0.0,0.0,0.0,0.0,0.0,0.0,0.0,0.0,0.0,0.0,0.0,0.0,0.0,0.0,0.0,0.0,0.0,0.0,0.0,0.0,0.0,0.0,0.0,0.0,0.0,0.0,0.0,0.0,0.0,0.0,0.0,0.0,0.0,0.0,0.0,0.0,0.0,0.0,0.0,0.0,0.0,0.0,0.0,0.0,0.0,0.0,0.0,0.0,0.0,0.0,0.0,0.0,0.0,0.0,0.0,0.0,0.0,0.0,0.0,0.0,0.0,0.0,0.0,0.0,0.0,0.0,0.0,0.0,0.0,0.0,0.0,0.0,0.0,0.0,0.0,0.0,0.0,0.0,0.0,0.0,0.0,0.0,0.0,0.0,0.0,0.0,0.0,0.0,0.0,0.0,0.0,0.0,0.0,0.0,0.0,0.0,0.0,0.0,0.0,0.0,0.0,0.0,0.0,0.0,0.0,0.0,0.0,0.0,0.0,0.0,0.0,0.0,0.0,0.0,0.0,0.0,0.0,0.0,0.0,0.0,0.0,0.0,0.0,0.0,0.0,0.0,0.0,0.0,0.0,0.0,0.0,0.0,0.0,0.0,0.0,0.0,0.0,0.0,0.0,0.0,0.0,0.0,0.0,0.0,0.0,0.0,0.0,0.0,0.0,0.0,0.0,0.0,0.0,0.0,0.0,0.0,0.0,0.0,0.0,0.0,0.0,0.0,0.0,0.0,0.0,0.0,0.0,0.0,0.0,0.0,0.0,0.0,0.0,0.0,0.0,0.0,0.0,0.0,0.0,0.0,0.0,0.0,0.0,0.0,0.0,0.0,0.0,0.0,0.0,0.0,0.0,0.0,0.0,0.0,0.0,0.0,0.0,0.0,0.0,0.0,0.0,0.0,0.0,0.0,0.0,0.0,0.0,0.0,0.0,0.0,0.0,0.0,0.0,0.0,0.0,0.0,0.0,0.0,0.0,0.0,0.0,0.0,0.0,0.0,0.0,0.0,0.0,0.0,0.0,0.0,0.0,0.0,0.0,0.0,0.0,0.0,0.0,0.0,0.0,0.0,0.0,0.0,0.0,0.0,0.0,0.0,0.0,0.0,0.0,0.0,0.0,0.0,0.0,0.0,0.0,0.0,0.0,0.0,0.0,0.0,0.0,0.0,0.0,0.0,0.0,0.0,0.0,0.0,0.0,0.0,0.0,0.0,0.0,0.0,0.0,0.0,0.0,0.0,0.0,0.0,0.0,0.0,0.0,0.0,0.0,0.0,0.0,0.0,0.0,0.0,0.0,0.0,0.0,0.0,0.0,0.0,0.0,0.0,0.0,0.0,0.0,0.0,0.0,0.0,0.0,0.0,0.0,0.0,0.0,0.0,0.0,0.0,0.0,0.0,0.0,0.0,0.0,0.0,0.0,0.0,0.0,0.0,0.0,0.0,0.0,0.0,0.0,0.0,0.0,0.0,0.0,0.0,0.0,0.0,0.0,0.0,0.0,0.0,0.0,0.0,0.0,0.0,0.0,0.0,0.0,0.0,0.0,0.0,0.0,0.0,0.0,0.0,0.0,0.0,0.0,0.0,0.0,0.0,0.0,0.0,0.0,0.0,0.0,0.0,0.0,0.0,0.0,0.0,0.0,0.0,0.0,0.0,0.0,0.0,0.0,0.0,0.0,0.0,0.0,0.0,0.0,0.0,0.0,0.0,0.0,0.0,0.0,0.0,0.0,0.0,0.0,0.0,0.0,0.0,0.0,0.0,0.0,0.0,0.0,0.0,0.0,0.0,0.0,0.0,0.0,0.0,0.0,0.0,0.0,0.0,0.0,0.0,0.0,0.0,0.0,0.0,0.0,0.0,0.0,0.0,0.0,0.0,0.0,0.0,0.0,0.0,0.0,0.0,0.0,0.0,0.0,0.0,0.0,0.0,0.0,0.0,0.0,0.0,0.0,0.0,0.0,0.0,0.0,0.0,0.0,0.0,0.0,0.0,0.0,0.0,0.0,0.0,0.0,0.0,0.0,0.0,0.0,0.0,0.0,0.0,0.0,0.0,0.0,0.0,0.0,0.0,0.0,0.0,0.0,0.0,0.0,0.0,0.0,0.0,0.0,0.0,0.0,0.0,0.0,0.0,0.0,0.0,0.0,0.0,0.0,0.0,0.0,0.0,0.0,0.0,0.0,0.0,0.0,0.0,0.0,0.0,0.0,0.0,0.0,0.0,0.0,0.0,0.0,0.0,0.0,0.0,0.0,0.0,0.0,0.0,0.0,0.0,0.0,0.0,0.0,0.0,0.0,0.0,0.0,0.0,0.0,0.0,0.0,0.0,0.0,0.0,0.0,0.0,0.0,0.0,0.0,0.0,0.0,0.0,0.0,0.0,0.0,0.0,0.0,0.0,0.0,0.0,0.0,0.0,0.0,0.0,0.0,0.0,0.0,0.0,0.0,0.0,0.0,0.0,0.0,0.0,0.0,0.0,0.0,0.0,0.0,0.0,0.0,0.0,0.0,0.0,0.0,0.0,0.0,0.0,0.0,0.0,0.0,0.0,0.0,0.0,0.0,0.0,0.0,0.0,0.0,0.0,0.0,0.0,0.0,0.0,0.0,0.0,0.0,0.0,0.0,0.0,0.0,0.0,0.0,0.0,0.0,0.0,0.0,0.0,0.0,0.0,0.0,0.0,0.0,0.0,0.0,0.0,0.0,0.0,0.0,0.0,0.0,0.0,0.0,0.0,0.0,0.0,0.0,0.0,0.0,0.0,0.0,0.0,0.0,0.0,0.0,0.0,0.0,0.0,0.0,0.0,0.0,0.0,0.0,0.0,0.0,0.0,0.0,0.0,0.0,0.0,0.0,0.0,0.0,0.0,0.0,0.0,0.0,0.0,0.0,0.0,0.0,0.0,0.0,0.0,0.0,0.0,0.0,0.0,0.0,0.0,0.0,0.0,0.0,0.0,0.0,0.0,0.0,0.0,0.0,0.0,0.0,0.0,0.0,0.0,0.0,0.0,0.0,0.0,0.0,0.0,0.0,0.0,0.0,0.0,0.0,0.0,0.0,0.0,0.0,0.0,0.0,0.0,0.0,0.0,0.0,0.0,0.0,0.0,0.0,0.0,0.0,0.0,0.0,0.0,0.0,0.0,0.0,0.0,0.0,0.0,0.0,0.0,0.0,0.0,0.0,0.0,0.0,0.0,0.0,0.0,0.0,0.0,0.0,0.0,0.0,0.0,0.0,0.0,0.0,0.0,0.0,0.0,0.0,0.0,0.0,0.0,0.0,0.0,0.0,0.0,0.0,0.0,0.0,0.0,0.0,0.0,0.0,0.0,0.0,0.0,0.0,0.0,0.0,0.0,0.0,0.0,0.0,0.0,0.0,0.0,0.0,0.0,0.0,0.0,0.0,0.0,0.0,0.0,0.0,0.0,0.0,0.0,0.0,0.0,0.0,0.0,0.0,0.0,0.0,0.0,0.0,0.0,0.0,0.0,0.0,0.0,0.0,0.0,0.0,0.0,0.0,0.0,0.0,0.0,0.0,0.0,0.0,0.0,0.0,0.0,0.0,0.0,0.0,0.0,0.0,0.0,0.0,0.0,0.0,0.0,0.0,0.0,0.0,0.0,0.0,0.0,0.0,0.0,0.0,0.0,0.0,0.0,0.0,0.0,0.0,0.0,0.0,0.0,0.0,0.0,0.0,0.0,0.0,0.0,0.0,0.0,0.0,0.0,0.0,0.0,0.0,0.0,0.0,0.0,-0.4999,0.0,0.0,0.0,0.0,0.0,0.0,0.0,0.0,0.0,0.0,0.0,0.0,0.0,0.0,0.0,0.0,0.0,0.0,0.0,0.0,0.0,0.0,0.0,0.0,0.0,0.0,0.0,0.0,0.0,0.0,0.0,0.0,0.0,0.0,0.0,0.0,0.0,0.0,0.0,0.0,0.0,0.0,0.0,0.0,0.0,0.0,0.0,0.0,0.0,0.0,0.0,0.0,0.0,0.0,0.0,0.0,0.0,0.0,0.0,0.0,0.0,0.0,0.0,0.0,0.0,0.0,0.0,0.0,0.0,0.0,0.0,0.0,0.0,0.0,0.0,0.0,0.0,0.0,0.0,0.0,0.0,0.0,0.0,0.0,0.0,0.0,0.0,0.0,0.0,0.0,0.0,0.0,0.0,0.0,0.0,0.0,0.0,0.0,0.0,0.0,0.0,0.0,0.0,0.0,0.0,0.0,0.0,0.0,0.0,0.0,-0.4834,-0.4908,-0.4974,-0.5044,-0.509,0.0,0.0,0.0,0.0,0.0,0.0,0.0,0.0,0.0,0.0,0.0,0.0,0.0,0.0,0.0,0.0,0.0,0.0,0.0,0.0,0.0,0.0,0.0,0.0,0.0,0.0,0.0,0.0,0.0,0.0,0.0,0.0,0.0,0.0,0.0,0.0,0.0,0.0,0.0,0.0,0.0,0.0,0.0,0.0,0.0,0.0,0.0,0.0,0.0,0.0,0.0,0.0,0.0,0.0,0.0,0.0,0.0,0.0,0.0,0.0,0.0,0.0,0.0,0.0,0.0,0.0,0.0,0.0,0.0,0.0,0.0,0.0,0.0,0.0,0.0,0.0,0.0,0.0,0.0,0.0,0.0,0.0,0.0,0.0,0.0,0.0,0.0,0.0,0.0,0.0,0.0,0.0,0.0,0.0,0.0,0.0,0.0,0.0,0.0,0.0,0.0,0.0,0.0,0.0,0.0,0.0,0.0,0.0,0.0,0.0,0.0,0.0,-0.5048,-0.5112,-0.524,0.0,0.0,0.0,0.0,0.0,0.0,0.0,0.0,0.0,0.0,0.0,0.0,0.0,0.0,0.0,0.0,0.0,0.0,0.0,0.0,0.0,0.0,0.0,0.0,0.0,0.0,0.0,0.0,0.0,0.0,0.0,0.0,0.0,0.0,0.0,0.0,0.0,0.0,0.0,0.0,0.0,0.0,0.0,0.0,0.0,0.0,0.0,0.0,0.0,0.0,0.0,0.0,0.0,0.0,0.0,0.0,0.0,0.0,0.0,0.0,0.0,0.0,0.0,0.0,0.0,0.0,0.0,0.0,0.0,0.0,0.0,0.0,0.0,0.0,0.0,0.0,0.0,0.0,0.0,0.0,0.0,0.0,0.0,0.0,0.0,0.0,0.0,0.0,0.0,0.0,0.0,0.0,0.0,0.0,0.0,0.0,0.0,0.0,0.0,0.0,0.0,0.0,0.0,0.0,0.0,0.0,0.0,0.0,0.0,0.0,-0.5088,-0.5096,-0.5151,0.0,-0.5361,0.0,0.0,0.0,0.0,0.0,0.0,0.0,0.0,0.0,0.0,0.0,0.0,0.0,0.0,0.0,0.0,0.0,0.0,0.0,0.0,0.0,0.0,0.0,0.0,0.0,0.0,0.0,0.0,0.0,0.0,0.0,0.0,0.0,0.0,0.0,0.0,0.0,0.0,0.0,0.0,0.0,0.0,0.0,0.0,0.0,0.0,0.0,0.0,0.0,0.0,0.0,0.0,0.0,0.0,0.0,0.0,0.0,0.0,0.0,0.0,0.0,0.0,0.0,0.0,0.0,0.0,0.0,0.0,0.0,0.0,0.0,0.0,0.0,0.0,0.0,0.0,0.0,0.0,0.0,0.0,0.0,0.0,0.0,0.0,0.0,0.0,0.0,0.0,0.0,0.0,0.0,0.0,0.0,0.0,0.0,0.0,0.0,0.0,0.0,0.0,0.0,0.0,0.0,0.0,0.0,0.0,0.0,0.0,0.0,0.0,-0.5137,-0.5163,-0.5252,-0.5341,0.0,0.0,0.0,0.0,0.0,0.0,0.0,0.0,0.0,0.0,0.0,0.0,0.0,0.0,0.0,0.0,0.0,0.0,0.0,0.0,0.0,0.0,0.0,0.0,0.0,0.0,0.0,0.0,0.0,0.0,0.0,0.0,0.0,0.0,0.0,0.0,0.0,0.0,0.0,0.0,0.0,0.0,0.0,0.0,0.0,0.0,0.0,0.0,0.0,0.0,0.0,0.0,0.0,0.0,0.0,0.0,0.0,0.0,0.0,0.0,0.0,0.0,0.0,0.0,0.0,0.0,0.0,0.0,0.0,0.0,0.0,0.0,0.0,0.0,0.0,0.0,0.0,0.0,0.0,0.0,0.0,0.0,0.0,0.0,0.0,0.0,0.0,0.0,0.0,0.0,0.0,0.0,0.0,0.0,0.0,0.0,0.0,0.0,0.0,0.0,0.0,0.0,0.0,0.0,0.0,0.0,0.0,0.0,0.0,0.0,-0.5181,-0.5187,-0.5252,-0.5349,-0.5409,-0.5409,0.0,0.0,0.0,0.0,0.0,0.0,0.0,0.0,0.0,0.0,0.0,0.0,0.0,0.0,0.0,0.0,0.0,0.0,0.0,0.0,0.0,0.0,0.0,0.0,0.0,0.0,0.0,0.0,0.0,0.0,0.0,0.0,0.0,0.0,0.0,0.0,0.0,0.0,0.0,0.0,0.0,0.0,0.0,0.0,0.0,0.0,0.0,0.0,0.0,0.0,0.0,0.0,0.0,0.0,0.0,0.0,0.0,0.0,0.0,0.0,0.0,0.0,0.0,0.0,0.0,0.0,0.0,0.0,0.0,0.0,0.0,0.0,0.0,0.0,0.0,0.0,0.0,0.0,0.0,0.0,0.0,0.0,0.0,0.0,0.0,0.0,0.0,0.0,0.0,0.0,0.0,0.0,0.0,0.0,0.0,0.0,0.0,0.0,0.0,0.0,0.0,0.0,0.0,0.0,0.0,0.0,0.0,0.0,-0.5389,-0.5393,-0.5397,-0.5373,-0.5409,-0.5409,0.0,0.0,0.0,0.0,0.0,0.0,0.0,0.0,0.0,0.0,0.0,0.0,0.0,0.0,0.0,0.0,0.0,0.0,0.0,0.0,0.0,0.0,0.0,0.0,0.0,0.0,0.0,0.0,0.0,0.0,0.0,0.0,0.0,0.0,0.0,0.0,0.0,0.0,0.0,0.0,0.0,0.0,0.0,0.0,0.0,0.0,0.0,0.0,0.0,0.0,0.0,0.0,0.0,0.0,0.0,0.0,0.0,0.0,0.0,0.0,0.0,0.0,0.0,0.0,0.0,0.0,0.0,0.0,0.0,0.0,0.0,0.0,0.0,0.0,0.0,0.0,0.0,0.0,0.0,0.0,0.0,0.0,0.0,0.0,0.0,0.0,0.0,0.0,0.0,0.0,0.0,0.0,0.0,0.0,0.0,0.0,0.0,0.0,0.0,0.0,0.0,0.0,0.0,0.0,0.0,0.0,0.0,0.0,0.0,-0.5409,-0.5409,-0.5409,-0.5409,-0.5409,-0.5409,0.0,0.0,0.0,0.0,0.0,0.0,0.0,0.0,0.0,0.0,0.0,0.0,0.0,0.0,0.0,0.0,0.0,0.0,0.0,0.0,0.0,0.0,0.0,0.0,0.0,0.0,0.0,0.0,0.0,0.0,0.0,0.0,0.0,0.0,0.0,0.0,0.0,0.0,0.0,0.0,0.0,0.0,0.0,0.0,0.0,0.0,0.0,0.0,0.0,0.0,0.0,0.0,0.0,0.0,0.0,0.0,0.0,0.0,0.0,0.0,0.0,0.0,0.0,0.0,0.0,0.0,0.0,0.0,0.0,0.0,0.0,0.0,0.0,0.0,0.0,0.0,0.0,0.0,0.0,0.0,0.0,0.0,0.0,0.0,0.0,0.0,0.0,0.0,0.0,0.0,0.0,0.0,0.0,0.0,0.0,0.0,0.0,0.0,0.0,0.0,0.0,0.0,0.0,0.0,0.0,0.0,0.0,0.0,0.0,-0.5409,0.0,-0.5409,-0.5409,-0.5409,-0.5409,0.0,0.0,0.0,0.0,0.0,0.0,0.0,0.0,0.0,0.0,0.0,0.0,0.0,0.0,0.0,0.0,0.0,0.0,0.0,0.0,0.0,0.0,0.0,0.0,0.0,0.0,0.0,0.0,0.0,0.0,0.0,0.0,0.0,0.0,0.0,0.0,0.0,0.0,0.0,0.0,0.0,0.0,0.0,0.0,0.0,0.0,0.0,0.0,0.0,0.0,0.0,0.0,0.0,0.0,0.0,0.0,0.0,0.0,0.0,0.0,0.0,0.0,0.0,0.0,0.0,0.0,0.0,0.0,0.0,0.0,0.0,0.0,0.0,0.0,0.0,0.0,0.0,0.0,0.0,0.0,0.0,0.0,0.0,0.0,0.0,0.0,0.0,0.0,0.0,0.0,0.0,0.0,0.0,0.0,0.0,0.0,0.0,0.0,0.0,0.0,0.0,0.0,0.0,0.0,0.0,0.0,0.0,0.0,-0.5409,-0.5382,-0.5382,-0.5354,-0.5382,-0.5382,-0.5382,0.0,0.0,0.0,0.0,0.0,0.0,0.0,0.0,0.0,0.0,0.0,0.0,0.0,0.0,0.0,0.0,0.0,0.0,0.0,0.0,0.0,0.0,0.0,0.0,0.0,0.0,0.0,0.0,0.0,0.0,0.0,0.0,0.0,0.0,0.0,0.0,0.0,0.0,0.0,0.0,0.0,0.0,0.0,0.0,0.0,0.0,0.0,0.0,0.0,0.0,0.0,0.0,0.0,0.0,0.0,0.0,0.0,0.0,0.0,0.0,0.0,0.0,0.0,0.0,0.0,0.0,0.0,0.0,0.0,0.0,0.0,0.0,0.0,0.0,0.0,0.0,0.0,0.0,0.0,0.0,0.0,0.0,0.0,0.0,0.0,0.0,0.0,0.0,0.0,0.0,0.0,0.0,0.0,0.0,0.0,0.0,0.0,0.0,0.0,0.0,0.0,0.0,0.0,0.0,0.0,0.0,0.0,0.0,0.0,-0.4791,-0.4791,-0.4763,-0.4763,-0.4791,-0.4901,0.0,0.0,0.0,0.0,0.0,0.0,0.0,0.0,0.0,0.0,0.0,0.0,0.0,0.0,0.0,0.0,0.0,0.0,0.0,0.0,0.0,0.0,0.0,0.0,0.0,0.0,0.0,0.0,0.0,0.0,0.0,0.0,0.0,0.0,0.0,0.0,0.0,0.0,0.0,0.0,0.0,0.0,0.0,0.0,0.0,0.0,0.0,0.0,0.0,0.0,0.0,0.0,0.0,0.0,0.0,0.0,0.0,0.0,0.0,0.0,0.0,0.0,0.0,0.0,0.0,0.0,0.0,0.0,0.0,0.0,0.0,0.0,0.0,0.0,0.0,0.0,0.0,0.0,0.0,0.0,0.0,0.0,0.0,0.0,0.0,0.0,0.0,0.0,0.0,0.0,0.0,0.0,0.0,0.0,0.0,0.0,0.0,0.0,0.0,0.0,0.0,0.0,0.0,0.0,0.0,0.0,0.0,0.0,0.0,-0.3737,-0.4366,-0.4765,-0.4765,-0.4765,-0.4875,-0.5128,0.0,0.0,0.0,0.0,0.0,0.0,0.0,0.0,0.0,0.0,0.0,0.0,0.0,0.0,0.0,0.0,0.0,0.0,0.0,0.0,0.0,0.0,0.0,0.0,0.0,0.0,0.0,0.0,0.0,0.0,0.0,0.0,0.0,0.0,0.0,0.0,0.0,0.0,0.0,0.0,0.0,0.0,0.0,0.0,0.0,0.0,0.0,0.0,0.0,0.0,0.0,0.0,0.0,0.0,0.0,0.0,0.0,0.0,0.0,0.0,0.0,0.0,0.0,0.0,0.0,0.0,0.0,0.0,0.0,0.0,0.0,0.0,0.0,0.0,0.0,0.0,0.0,0.0,0.0,0.0,0.0,0.0,0.0,0.0,0.0,0.0,0.0,0.0,0.0,0.0,0.0,0.0,0.0,0.0,0.0,0.0,0.0,0.0,0.0,0.0,0.0,0.0,0.0,0.0,0.0,0.0,0.0,0.0,-0.2448,-0.4159,-0.5072,-0.5031,-0.4998,-0.5064,0.0,0.0,0.0,0.0,0.0,0.0,0.0,0.0,0.0,0.0,0.0,0.0,0.0,0.0,0.0,0.0,0.0,0.0,0.0,0.0,0.0,0.0,0.0,0.0,0.0,0.0,0.0,0.0,0.0,0.0,0.0,0.0,0.0,0.0,0.0,0.0,0.0,0.0,0.0,0.0,0.0,0.0,0.0,0.0,0.0,0.0,0.0,0.0,0.0,0.0,0.0,0.0,0.0,0.0,0.0,0.0,0.0,0.0,0.0,0.0,0.0,0.0,0.0,0.0,0.0,0.0,0.0,0.0,0.0,0.0,0.0,0.0,0.0,0.0,0.0,0.0,0.0,0.0,0.0,0.0,0.0,0.0,0.0,0.0,0.0,0.0,0.0,0.0,0.0,0.0,0.0,0.0,0.0,0.0,0.0,0.0,0.0,0.0,0.0,0.0,0.0,0.0,0.0,0.0,0.0,0.0,0.0,0.0,0.0,-0.3897,-0.3927,-0.3763,-0.3448,-0.3176,-0.3637,0.0,0.0,0.0,0.0,0.0,0.0,0.0,0.0,0.0,0.0,0.0,0.0,0.0,0.0,0.0,0.0,0.0,0.0,0.0,0.0,0.0,0.0,0.0,0.0,0.0,0.0,0.0,0.0,0.0,0.0,0.0,0.0,0.0,0.0,0.0,0.0,0.0,0.0,0.0,0.0,0.0,0.0,0.0,0.0,0.0,0.0,0.0,0.0,0.0,0.0,0.0,0.0,0.0,0.0,0.0,0.0,0.0,0.0,0.0,0.0,0.0,0.0,0.0,0.0,0.0,0.0,0.0,0.0,0.0,0.0,0.0,0.0,0.0,0.0,0.0,0.0,0.0,0.0,0.0,0.0,0.0,0.0,0.0,0.0,0.0,0.0,0.0,0.0,0.0,0.0,0.0,0.0,0.0,0.0,0.0,0.0,0.0,0.0,0.0,0.0,0.0,0.0,0.0,0.0,0.0,0.0,0.0,0.0,-0.342,-0.2556,-0.2218,-0.1894,-0.1621,-0.2101,-0.3164,0.0,0.0,0.0,0.0,0.0,0.0,0.0,0.0,0.0,0.0,0.0,0.0,0.0,0.0,0.0,0.0,0.0,0.0,0.0,0.0,0.0,0.0,0.0,0.0,0.0,0.0,0.0,0.0,0.0,0.0,0.0,0.0,0.0,0.0,0.0,0.0,0.0,0.0,0.0,0.0,0.0,0.0,0.0,0.0,0.0,0.0,0.0,0.0,0.0,0.0,0.0,0.0,0.0,0.0,0.0,0.0,0.0,0.0,0.0,0.0,0.0,0.0,0.0,0.0,0.0,0.0,0.0,0.0,0.0,0.0,0.0,0.0,0.0,0.0,0.0,0.0,0.0,0.0,0.0,0.0,0.0,0.0,0.0,0.0,0.0,0.0,0.0,0.0,0.0,0.0,0.0,0.0,0.0,0.0,0.0,0.0,0.0,0.0,0.0,0.0,0.0,0.0,0.0,0.0,0.0,0.0,0.0,0.0,-0.167,-0.0155,-0.0031,-0.0062,-0.0248,-0.1574,-0.3053,0.0,0.0,0.0,0.0,0.0,0.0,0.0,0.0,0.0,0.0,0.0,0.0,0.0,0.0,0.0,0.0,0.0,0.0,0.0,0.0,0.0,0.0,0.0,0.0,0.0,0.0,0.0,0.0,0.0,0.0,0.0,0.0,0.0,0.0,0.0,0.0,0.0,0.0,0.0,0.0,0.0,0.0,0.0,0.0,0.0,0.0,0.0,0.0,0.0,0.0,0.0,0.0,0.0,0.0,0.0,0.0,0.0,0.0,0.0,0.0,0.0,0.0,0.0,0.0,0.0,0.0,0.0,0.0,0.0,0.0,0.0,0.0,0.0,0.0,0.0,0.0,0.0,0.0,0.0,0.0,0.0,0.0,0.0,0.0,0.0,0.0,0.0,0.0,0.0,0.0,0.0,0.0,0.0,0.0,0.0,0.0,0.0,0.0,0.0,0.0,0.0,0.0,0.0,0.0,0.0,0.0,0.0,0.0,-0.161,-0.0734,-0.0192,-0.0415,-0.1467,-0.1123,-0.1725,0.0,0.0,0.0,0.0,0.0,0.0,0.0,0.0,0.0,0.0,0.0,0.0,0.0,0.0,0.0,0.0,0.0,0.0,0.0,0.0,0.0,0.0,0.0,0.0,0.0,0.0,0.0,0.0,0.0,0.0,0.0,0.0,0.0,0.0,0.0,0.0,0.0,0.0,0.0,0.0,0.0,0.0,0.0,0.0,0.0,0.0,0.0,0.0,0.1437,0.0,0.0,0.0,0.0,0.0,0.0,0.0,0.0,0.0,0.0,0.0,0.0,0.0,0.0,0.0,0.0,0.0,0.0,0.0,0.0,0.0,0.0,0.0,0.0,0.0,0.0,0.0,0.0,0.0,0.0,0.0,0.0,0.0,0.0,0.0,0.0,0.0,0.0,0.0,0.0,0.0,0.0,0.0,0.0,0.0,0.0,0.0,0.0,0.0,0.0,0.0,0.0,0.0,0.0,0.0,0.0,0.0,0.0,0.0,-0.0286,0.0258,0.0774,0.0709,0.0032,0.0159,-0.069,0.0,0.0,0.0,0.0,0.0,0.0,0.0,0.0,0.0,0.0,0.0,0.0,0.0,0.0,0.0,0.0,0.0,0.0,0.0,0.0,0.0,0.0,0.0,0.0,0.0,0.0,0.0,0.0,0.0,0.0,0.0,0.0,0.0,0.0,0.0,0.0,0.0,0.0,0.0,0.0,0.0,0.0,0.0,0.0,0.0,0.0,0.0,0.0,0.0,0.0,0.0,0.0,0.0,0.0,0.0,0.0,0.0,0.0,0.0,0.0,0.0,0.0,0.0,0.0,0.0,0.0,0.0,0.0,0.0,0.0,0.0,0.0,0.0,0.0,0.0,0.0,0.0,0.0,0.0,0.0,0.0,0.0,0.0,0.0,0.0,0.0,0.0,0.0,0.0,0.0,0.0,0.0,0.0,0.0,0.0,0.0,0.0,0.0,0.0,0.0,0.0,0.0,0.0,0.0,0.0,0.0,0.0,0.0791,0.1273,0.1676,0.1971,0.2103,0.2103,0.1491,0.0193,-0.1936,0.0,0.0,0.0,0.0,0.0,0.0,0.0,0.0,0.0,0.0,0.0,0.0,0.0,0.0,0.0,0.0,0.0,0.0,0.0,0.0,0.0,0.0,0.0,0.0,0.0,0.0,0.0,0.0,0.0,0.0,0.0,0.0,0.0,0.0,0.0,0.0,0.0,0.0,-0.112,-0.0612,0.0,0.0,0.0,0.0,0.0,0.0,0.0,0.0,0.2013,0.0,0.0,0.0,0.0,0.0,0.0,0.0,0.0,0.0,0.0,0.0,0.0,0.0,0.0,0.0,0.0,0.0,0.0,0.0,0.0,0.0,0.0,0.0,0.0,0.0,0.0,0.0,0.0,0.0,0.0,0.0,0.0,0.0,0.0,0.0,0.0,0.0,0.0,0.0,0.0,0.0,0.0,0.0,0.0,0.0,0.0,0.0,0.0,0.0,0.0,0.0,0.0,0.0,0.0,0.0,0.0,0.0932,0.1317,0.1673,0.1999,0.2056,0.2102,0.2102,0.1727,0.0929,-0.0327,0.0,0.0,0.0,0.0,0.0,0.0,0.0,0.0,0.0,0.0,0.0,0.0,0.0,0.0,0.0,0.0,0.0,0.0,0.0,0.0,0.0,0.0,0.0,0.0,0.0,0.0,0.0,0.0,0.0,0.0,0.0,0.0,0.0,0.0,0.0,0.0,0.0,0.0,0.0,0.0524,0.0803,0.0,0.0,0.0,0.0,0.0,0.0,0.0,0.0,0.2012,0.0,0.0,0.0,0.0,0.0,0.0,0.0,0.0,0.0,0.0,0.0,0.0,0.0,0.0,0.0,0.0,0.0,0.0,0.0,0.0,0.0,0.0,0.0,0.0,0.0,0.0,0.0,0.0,0.0,0.0,0.0,0.0,0.0,0.0,0.0,0.0,0.0,0.0,0.0,0.0,0.0,0.0,0.0,0.0,0.0,0.0,0.0,0.0,0.0,0.0,0.0,0.0,0.0,0.0,0.0,0.1353,0.1664,0.192,0.2096,0.211,0.2118,0.2087,0.1784,0.119,0.0,0.0,0.0,0.0,0.0,0.0,0.0,0.0,0.0,0.0,0.0,0.0,0.0,0.0,0.0,0.0,0.0,0.0,0.0,0.0,0.0,0.0,0.0,0.0,0.0,0.0,0.0,0.0,0.0,0.0,0.0,0.0,0.0,0.0,0.0,0.0,0.0,0.0,0.0,0.0,0.1149,0.1311,0.1498,0.0,0.0,0.0,0.0,0.0,0.0,0.2009,0.2014,0.0,0.0,0.0,0.0,0.0,0.0,0.0,0.0,0.0,0.0,0.0,0.0,0.0,0.0,0.0,0.0,0.0,0.0,0.0,0.0,0.0,0.0,0.0,0.0,0.0,0.0,0.0,0.0,0.0,0.0,0.0,0.0,0.0,0.0,0.0,0.0,0.0,0.0,0.0,0.0,0.0,0.0,0.0,0.0,0.0,0.0,0.0,0.0,0.0,0.0,0.0,0.0,0.0,0.0,0.0,0.1683,0.1921,0.2045,0.2095,0.2102,0.2105,0.2106,0.1774,0.1251,0.0,0.0,0.0,0.0,0.0,0.0,0.0,0.0,0.0,0.0,0.0,0.0,0.0,0.0,0.0,0.0,0.0,0.0,0.0,0.0,0.0,0.0,0.0,0.0,0.0,0.0,0.0,0.0,0.0,0.0,0.0,0.0,0.0,0.0,0.0,0.0,0.0,0.0,0.0,0.0,0.0,0.1702,0.1956,0.2023,0.0,0.0,0.0,0.0,0.2007,0.2022,0.0,0.0,0.0,0.0,0.0,0.0,0.0,0.0,0.0,0.0,0.0,0.0,0.0,0.0,0.0,0.0,0.0,0.0,0.0,0.0,0.0,0.0,0.0,0.0,0.0,0.0,0.0,0.0,0.0,0.0,0.0,0.0,0.0,0.0,0.0,0.0,0.0,0.0,0.0,0.0,0.0,0.0,0.0,0.0,0.0,0.0,0.0,0.0,0.0,0.0,0.0,0.0,0.0,0.0,0.0,0.0,0.2038,0.2068,0.212,0.2099,0.209,0.2104,0.2105,0.1767,0.1241,0.0,0.0,0.0,0.0,0.0,0.0,0.0,0.0,0.0,0.0,0.0,0.0,0.0,0.0,0.0,0.0,0.0,0.0,0.0,0.0,0.0,0.0,0.0,0.0,0.0,0.0,0.0,0.0,0.0,0.0,0.0,0.0,0.0,0.0,0.0,0.0,0.0,0.0,0.0,0.0,0.0,0.1956,0.1987,0.2042,0.2091,0.0,0.0,0.2098,0.2094,0.2097,0.0,0.0,0.0,0.0,0.0,0.0,0.0,0.0,0.0,0.0,0.0,0.0,0.0,0.0,0.0,0.0,0.0,0.0,0.0,0.0,0.0,0.0,0.0,0.0,0.0,0.0,0.0,0.0,0.0,0.0,0.0,0.0,0.0,0.0,0.0,0.0,0.0,0.0,0.0,0.0,0.0,0.0,0.0,0.0,0.0,0.0,0.0,0.0,0.0,0.0,0.0,0.0,0.0,0.0,0.0,0.1985,0.2167,0.2119,0.2112,0.2149,0.2161,0.2168,0.2168,0.1812,0.1346,0.0,0.0,0.0,0.0,0.0,0.0,0.0,0.0,0.0,0.0,0.0,0.0,0.0,0.0,0.0,0.0,0.0,0.0,0.0,0.0,0.0,0.0,0.0,0.0,0.0,0.0,0.0,0.0,0.0,0.0,0.0,0.0,0.0,0.0,0.0,0.0,0.0,0.0,0.0,0.0,0.0,0.0,0.2038,0.2082,0.0,0.0,0.0,0.2102,0.2118,0.0,0.0,0.0,0.0,0.0,0.0,0.0,0.0,0.0,0.0,0.0,0.0,0.0,0.0,0.0,0.0,0.0,0.0,0.0,0.0,0.0,0.0,0.0,0.0,0.0,0.0,0.0,0.0,0.0,0.0,0.0,0.0,0.0,0.0,0.0,0.0,0.0,0.0,0.0,0.0,0.0,0.0,0.0,0.0,0.0,0.0,0.0,0.0,0.0,0.0,0.0,0.0,0.0,0.0,0.0,0.0,0.0,0.2188,0.2165,0.2132,0.2188,0.2189,0.2192,0.22,0.1894,0.0,0.0,0.0,0.0,0.0,0.0,0.0,0.0,0.0,0.0,0.0,0.0,0.0,0.0,0.0,0.0,0.0,0.0,0.0,0.0,0.0,0.0,0.0,0.0,0.0,0.0,0.0,0.2022,0.0,0.0,0.0,0.0,0.0,0.0,0.0,0.0,0.0,0.0,0.0,0.0,0.0,0.0,0.2109,0.2109,0.2116,0.2123,0.0,0.0,0.2116,0.2132,0.211,0.2146,0.0,0.0,0.0,0.0,0.0,0.0,0.0,0.0,0.0,0.0,0.0,0.0,0.0,0.0,0.0,0.0,0.0,0.0,0.0,0.0,0.0,0.0,0.0,0.0,0.0,0.0,0.0,0.0,0.0,0.0,0.0,0.0,0.0,0.0,0.0,0.0,0.0,0.0,0.0,0.0,0.0,0.0,0.0,0.0,0.0,0.0,0.0,0.0,0.0,0.0,0.0,0.0,0.0,0.0,0.2186,0.2188,0.2186,0.2186,0.2189,0.2189,0.2201,0.2196,0.2162,0.199,0.0,0.0,0.0,0.0,0.0,0.0,0.0,0.0,0.0,0.0,0.0,0.0,0.0,0.0,0.0,0.0,0.0,0.0,0.0,0.0,0.0,0.0,0.0,0.0,0.0,0.0,0.0,0.0,0.0,0.0,0.0,0.0,0.0,0.0,0.0,0.0,0.0,0.0,0.0,0.0,0.0,0.2109,0.2109,0.2167,0.2196,0.0,0.2204,0.2195,0.2187,0.2203,0.2185,0.2183,0.0,0.0,0.0,0.0,0.0,0.0,0.0,0.0,0.0,0.0,0.0,0.0,0.0,0.0,0.0,0.0,0.0,0.0,0.0,0.0,0.0,0.0,0.0,0.0,0.0,0.0,0.0,0.0,0.0,0.0,0.0,0.0,0.0,0.0,0.0,0.0,0.0,0.0,0.0,0.0,0.0,0.0,0.0,0.0,0.0,0.0,0.0,0.0,0.0,0.0,0.0,0.0,0.0,0.2207,0.221,0.2192,0.2235,0.2271,0.2273,0.2244,0.2256,0.2238,0.2054,0.0,0.0,0.0,0.0,0.0,0.0,0.0,0.0,0.0,0.0,0.0,0.0,0.0,0.0,0.0,0.0,0.0,0.0,0.0,0.0,0.0,0.0,0.0,0.0,0.0,0.0,0.0,0.0,0.2098,0.2099,0.2093,0.0,0.0,0.0,0.0,0.0,0.0,0.0,0.0,0.0,0.0,0.215,0.2154,0.2187,0.0,0.0,0.2183,0.2214,0.2191,0.2183,0.221,0.221,0.221,0.0,0.0,0.0,0.0,0.0,0.0,0.0,0.0,0.0,0.0,0.0,0.0,0.0,0.0,0.0,0.0,0.0,0.0,0.0,0.0,0.0,0.0,0.0,0.0,0.0,0.0,0.0,0.0,0.0,0.0,0.0,0.0,0.0,0.0,0.0,0.0,0.0,0.0,0.0,0.0,0.0,0.0,0.0,0.0,0.0,0.0,0.0,0.0,0.0,0.0,0.0,0.0,0.2203,0.221,0.2189,0.2234,0.2275,0.2278,0.2282,0.229,0.227,0.2118,0.0,0.0,0.0,0.0,0.0,0.0,0.0,0.0,0.0,0.0,0.0,0.0,0.0,0.0,0.0,0.0,0.0,0.0,0.0,0.0,0.0,0.0,0.0,0.0,0.0,0.0,0.0,0.0,0.2175,0.2177,0.2113,0.0,0.0,0.0,0.0,0.0,0.0,0.0,0.0,0.0,0.0,0.2196,0.2204,0.2191,0.219,0.222,0.2216,0.2213,0.2222,0.2217,0.221,0.221,0.0,0.0,0.0,0.0,0.0,0.0,0.0,0.0,0.0,0.0,0.0,0.0,0.0,0.0,0.0,0.0,0.0,0.0,0.0,0.0,0.0,0.0,0.0,0.0,0.0,0.0,0.0,0.2063,0.0,0.0,0.2068,0.0,0.0,0.0,0.0,0.0,0.0,0.0,0.0,0.0,0.0,0.0,0.0,0.0,0.0,0.0,0.0,0.0,0.0,0.0,0.0,0.0,0.0,0.2208,0.221,0.2209,0.221,0.2213,0.2212,0.2226,0.2289,0.229,0.229,0.2253,0.0,0.0,0.0,0.0,0.0,0.0,0.0,0.0,0.0,0.0,0.0,0.0,0.0,0.0,0.0,0.0,0.0,0.0,0.0,0.0,0.0,0.0,0.0,0.0,0.0,0.0,0.2193,0.2189,0.2179,0.0,0.0,0.0,0.0,0.0,0.0,0.0,0.0,0.0,0.2202,0.2191,0.2209,0.2212,0.221,0.222,0.2286,0.223,0.2221,0.2286,0.223,0.221,0.0,0.0,0.0,0.0,0.0,0.0,0.0,0.0,0.0,0.0,0.0,0.0,0.0,0.0,0.0,0.0,0.0,0.0,0.0,0.0,0.0,0.0,0.0,0.0,0.0,0.0,0.0,0.1996,0.2095,0.0,0.0,0.0,0.0,0.0,0.0,0.0,0.0,0.0,0.0,0.0,0.2189,0.2189,0.0,0.0,0.0,0.0,0.0,0.0,0.0,0.0,0.0,0.0,0.0,0.0,0.222,0.2274,0.2221,0.222,0.2275,0.2275,0.2281,0.2292,0.2292,0.2292,0.2292,0.0,0.0,0.0,0.0,0.0,0.0,0.0,0.0,0.0,0.0,0.0,0.0,0.0,0.0,0.0,0.0,0.0,0.0,0.0,0.0,0.0,0.0,0.0,0.0,0.0,0.2234,0.0,0.0,0.0,0.0,0.0,0.0,0.0,0.0,0.0,0.0,0.0,0.2202,0.2258,0.2217,0.2224,0.2261,0.2252,0.2286,0.0,0.0,0.0,0.0,0.0,0.0,0.0,0.0,0.0,0.0,0.0,0.0,0.0,0.0,0.2255,0.2182,0.221,0.221,0.221,0.0,0.0,0.0,0.0,0.0,0.0,0.0,0.0,0.0,0.0,0.0,0.0,0.0,0.0,0.2125,0.2127,0.2179,0.0,0.0,0.0,0.0,0.0,0.0,0.0,0.0,0.2199,0.2204,0.2206,0.2181,0.2187,0.0,0.2206,0.2221,0.0,0.0,0.0,0.0,0.0,0.0,0.0,0.0,0.2249,0.2304,0.225,0.2249,0.2304,0.2305,0.2305,0.2305,0.2305,0.2301,0.2292,0.2281,0.2212,0.0,0.0,0.0,0.0,0.0,0.0,0.0,0.0,0.0,0.0,0.0,0.0,0.0,0.0,0.0,0.0,0.0,0.0,0.0,0.0,0.0,0.0,0.0,0.2046,0.0,0.0,0.0,0.0,0.0,0.0,0.0,0.0,0.0,0.2143,0.2079,0.2091,0.2252,0.2175,0.2114,0.2305,0.0,0.0,0.0,0.0,0.0,0.0,0.0,0.1921,0.1921,0.1921,0.1921,0.1921,0.1921,0.1921,0.1921,0.0,0.0,0.218,0.224,0.224,0.2241,0.224,0.224,0.224,0.2241,0.224,0.0,0.0,0.0,0.0,0.0,0.0,0.0,0.0,0.2188,0.2188,0.0,0.2188,0.0,0.0,0.0,0.0,0.219,0.2192,0.0,0.0,0.2189,0.2202,0.2203,0.2195,0.221,0.221,0.221,0.2226,0.2289,0.2228,0.0,0.0,0.0,0.0,0.0,0.0,0.2297,0.2297,0.2299,0.2299,0.23,0.23,0.2299,0.23,0.2299,0.2324,0.2298,0.2323,0.2287,0.2296,0.232,0.0,0.0,0.0,0.0,0.0,0.0,0.0,0.0,0.0,0.0,0.0,0.0,0.0,0.0,0.0,0.0,0.0,0.0,0.0,0.0,0.1685,0.0,0.0,0.0,0.0,0.0,0.0,0.0,0.0,0.0,0.0,0.205,0.185,0.1827,0.2188,0.0,0.0,0.0,0.0,0.1344,0.17,0.1439,0.1211,0.1211,0.1211,0.1211,0.1211,0.0,0.0,0.1211,0.1211,0.121,0.1211,0.1248,0.1427,0.2126,0.2226,0.2226,0.2226,0.2226,0.2262,0.2262,0.2226,0.2262,0.2173,0.0,0.0,0.0,0.0,0.2189,0.2189,0.2189,0.2189,0.2189,0.2189,0.2189,0.0,0.0,0.0,0.0,0.0,0.0,0.2185,0.2185,0.2193,0.2197,0.2198,0.2206,0.221,0.2212,0.2267,0.2293,0.2284,0.2334,0.2334,0.2285,0.0,0.0,0.0,0.0,0.2365,0.2367,0.2386,0.2361,0.2361,0.2398,0.2398,0.2398,0.2359,0.2356,0.2386,0.2393,0.2383,0.2356,0.2361,0.0,0.0,0.0,0.0,0.0,0.0,0.0,0.0,0.0,0.0,0.0,0.0,0.0,0.0,0.0,0.0,0.0,0.0,0.0,0.1315,0.1327,0.1337,0.0,0.0,0.0,0.0,0.0,0.0,0.0,0.0,0.0,0.1409,0.1401,0.1401,0.0,0.0,0.1387,0.1543,0.1355,0.1244,0.1362,0.1287,0.0,0.1174,0.1174,0.1174,0.1174,0.1174,0.1174,0.1174,0.1174,0.1174,0.1174,0.1174,0.1284,0.1464,0.1536,0.1536,0.1536,0.1498,0.1498,0.1536,0.1723,0.1947,0.2189,0.2191,0.2191,0.2191,0.2191,0.2191,0.2191,0.2191,0.2191,0.2191,0.2191,0.2191,0.2191,0.2191,0.2191,0.0,0.0,0.0,0.221,0.221,0.2234,0.2244,0.2245,0.2268,0.228,0.228,0.2335,0.2352,0.2332,0.2387,0.2387,0.2332,0.0,0.0,0.2332,0.2387,0.2397,0.2397,0.2414,0.2424,0.2424,0.2424,0.2424,0.2424,0.2424,0.2424,0.2424,0.2424,0.2416,0.2397,0.2247,0.2165,0.0,0.0,0.0,0.0,0.0,0.0,0.0,0.0,0.0,0.0,0.0,0.1803,0.198,0.0,0.0,0.0,0.1365,0.1148,0.0895,0.091,0.0,0.0,0.0,0.0,0.0,0.0,0.0,0.0756,0.053,0.0456,0.069,0.0725,0.0835,0.1136,0.106,0.1026,0.1189,0.0,0.0771,0.0934,0.0818,0.0701,0.074,0.074,0.074,0.074,0.0701,0.0741,0.0741,0.0701,0.0741,0.0701,0.0701,0.074,0.0701,0.074,0.0851,0.114,0.1174,0.1174,0.1174,0.1401,0.159,0.2119,0.2118,0.2119,0.2148,0.221,0.221,0.221,0.221,0.221,0.221,0.221,0.221,0.2212,0.2214,0.2218,0.0,0.2221,0.2224,0.2226,0.2191,0.2279,0.2303,0.2305,0.2359,0.2424,0.2423,0.2386,0.2348,0.2351,0.2313,0.2314,0.2317,0.2317,0.2352,0.2386,0.2349,0.2313,0.2351,0.2315,0.2317,0.2317,0.2317,0.2317,0.2317,0.2317,0.2317,0.2317,0.2317,0.2315,0.2275,0.1934,0.1743,0.1741,0.0,0.0,0.0,0.0,0.0,0.0,0.0,0.0,0.0,0.0,0.0,0.0,0.0,0.0,0.1152,0.0782,0.0,0.0468,0.0514,0.0,0.0,0.0,0.0946,0.0606,0.0569,0.0418,0.0038,0.0,0.0,0.0,0.0,0.0273,0.0993,0.0761,0.0691,0.106,0.0473,0.0119,0.0526,0.0244,0.0,0.0,0.0,0.0,0.0,0.0,0.0,0.0,0.0,0.0,0.0,0.0,0.0,0.0,0.0,0.0241,0.0961,0.1068,0.1067,0.1068,0.1106,0.1144,0.1451,0.1451,0.1451,0.171,0.2212,0.221,0.221,0.221,0.221,0.221,0.221,0.221,0.2222,0.2282,0.2327,0.2346,0.2348,0.2371,0.2382,0.2344,0.2358,0.2365,0.2366,0.2379,0.2424,0.2386,0.2082,0.194,0.1919,0.1652,0.1505,0.1557,0.1558,0.1852,0.2349,0.1796,0.1652,0.192,0.1705,0.1558,0.1558,0.1558,0.1558,0.1558,0.1558,0.1558,0.1558,0.1558,0.1551,0.1498,0.1382,0.1338,0.1364,0.1246,0.0,0.0,0.0,0.0,0.0,0.0,0.0,0.0,0.0,0.0995,0.1288,0.0,0.0752,0.0,0.0377,0.0151,0.0112,0.015,0.0,0.0,0.0227,0.0266,0.0153,0.0155,0.0117,0.0,0.0,0.0,0.0,0.0,0.0081,0.028,0.0,0.02,0.0242,0.0161,0.004,0.0,0.0,0.0,0.0,0.0,0.0,0.0,0.0,0.0,0.0,0.0,0.0,0.0,0.0,0.0,0.0,0.0,0.0,0.0241,0.028,0.0279,0.0277,0.0513,0.0748,0.1174,0.1174,0.1174,0.1415,0.1743,0.1743,0.178,0.1743,0.1743,0.1852,0.2034,0.2215,0.2297,0.2352,0.2384,0.2398,0.2399,0.2416,0.2424,0.2424,0.2438,0.233,0.2139,0.215,0.2079,0.1925,0.1694,0.1584,0.1555,0.1361,0.1248,0.1296,0.1066,0.1298,0.1864,0.1477,0.1361,0.1555,0.1409,0.1296,0.1296,0.1296,0.1299,0.1306,0.1307,0.1191,0.0998,0.0992,0.0908,0.0666,0.0468,0.0388,0.0385,0.0191,0.0076,0.0,0.0,0.0,0.0,0.0,0.0,0.0,0.0,0.0,0.0,0.0,0.0344,0.0305,0.0115,0.0,0.0,0.0,0.0,0.0,0.0,0.0,0.0,0.0,0.0,0.0,0.0,0.0,0.0,0.0,0.0,0.0,0.0,0.0,0.0,0.0,0.0,0.0,0.0,0.0,0.0,0.0,0.0,0.0,0.0,0.0,0.0,0.0,0.0,0.0,0.0,0.0,0.0,0.0,0.0,0.0,0.0,0.0,0.0,0.0161,0.0322,0.1027,0.1027,0.1065,0.1027,0.1065,0.1065,0.1101,0.1174,0.1174,0.1401,0.1741,0.2087,0.224,0.224,0.2243,0.2245,0.2245,0.2245,0.2245,0.2246,0.2308,0.2126,0.1741,0.1798,0.1651,0.1299,0.122,0.1221,0.1223,0.1184,0.1144,0.1105,0.0718,0.0722,0.1124,0.1113,0.1146,0.1105,0.1144,0.1144,0.1144,0.1144,0.115,0.1121,0.1082,0.0846,0.0447,0.0322,0.012,-0.024,-0.0635,-0.0907,-0.1023,-0.1403,-0.1664,0.0,-0.1568,0.0,0.0,0.0,0.0,0.0,0.0,0.0,0.0,0.0193,0.0,0.0,0.0,0.0,0.0,0.0,0.0,0.0,0.0,0.0,0.0,0.0,0.0,0.0,0.0,0.0,0.0,0.0,0.0,0.0,0.0,0.0,0.0,0.0,0.0,0.0,0.0,0.0,0.0,0.0,0.0,0.0,0.0,0.0,0.0,0.0,0.0,0.0,0.0,0.0,0.0,0.0,0.0,0.0,0.0,0.0,0.0,0.0,0.0,0.0234,0.0234,0.0234,0.0234,0.0234,0.0234,0.0617,0.1174,0.1174,0.1249,0.1326,0.1377,0.1422,0.1423,0.1476,0.1482,0.1521,0.1521,0.1482,0.1521,0.1525,0.1487,0.141,0.1413,0.1382,0.1275,0.0916,0.0721,0.0727,0.0404,0.0242,0.0243,0.0162,0.0163,0.0247,0.0,0.0,0.0,0.0242,0.0242,0.0242,0.0242,0.0243,0.0243,-0.0122,0.0,-0.0447,-0.1136,-0.154,-0.1621,-0.2062,0.0,0.0,0.0,0.0,0.0,0.0,0.0,0.0,0.0,0.0,0.0,0.0079,0.0118,0.0116,0.0039,0.0,0.0,0.0,0.0,0.0,0.0,0.0,0.0,0.0,0.0,0.0,0.0,0.0,0.0,0.0,0.0,0.0,0.0,0.0,0.0,0.0,0.0,0.0,0.0,0.0,0.0,0.0,0.0,0.0,0.0,0.0,0.0,0.0,0.0,0.0,0.0,0.0,0.0,0.0,0.0,0.0,0.0,0.0,0.0,0.0,0.0,0.0,0.0,0.0,0.0,0.0,0.0,0.0,0.0,0.0,0.0234,0.0617,0.0617,0.0733,0.0926,0.1164,0.1245,0.1246,0.1301,0.1308,0.1308,0.1315,0.1319,0.1319,0.132,0.1159,0.0959,0.0959,0.0845,0.0651,0.0407,0.0327,0.029,0.0124,0.0,0.0,0.0,0.0,0.0,0.0,0.0,0.0,0.0,0.0,0.0,0.0,0.0,0.0,-0.1168,0.0,0.0,0.0,0.0,0.0,0.0,0.0,0.0,-0.5441,0.0,-0.5922,-0.5188,-0.4621,-0.4421,-0.3611,-0.2639,-0.1503,-0.0572,0.0,0.0,0.0,0.0,0.0,0.0,0.0,0.0,0.0,0.0,0.0,0.0,0.0,0.0,0.0,0.0,0.0,0.0,0.0,0.0,0.0,0.0,0.0,0.0,0.0,0.0,0.0,0.0,0.0,0.0,0.0,0.0,0.0,0.0,0.0,0.0,0.0,0.0,0.0,0.0,0.0,0.0,0.0,0.0,0.0,0.0,0.0,0.0,0.0,0.0,0.0,0.0,0.0,0.0,0.0,0.0,0.0,0.0,0.0,0.0,0.0,0.0,0.0,0.0903,0.1062,0.1064,0.1075,0.1081,0.1084,0.1096,0.1061,0.1061,0.1061,0.0857,0.049,0.0489,0.0328,0.0,0.0,0.0,0.0,0.0,0.0,0.0,0.0,0.0,0.0,0.0,0.0,0.0,0.0,0.0,0.0,0.0,0.0,0.0,-0.1623,-0.2831,-0.3502,-0.5196,-0.6459,-0.7103,-0.7212,-0.7336,-0.7448,-0.7448,-0.7524,-0.7634,-0.7383,-0.709,-0.6717,-0.6131,-0.4791,-0.2528,-0.0886,0.0,0.0,0.0,0.0,0.0,0.0,0.0,0.0,0.0,0.0,0.0,0.0,0.0,0.0,0.0,0.0,0.0,0.0,0.0,0.0,0.0,0.0,0.0,0.0,0.0,0.0,0.0,0.0,0.0,0.0,0.0,0.0,0.0,0.0,0.0,0.0,0.0,0.0,0.0,0.0,0.0,0.0,0.0,0.0,0.0,0.0,0.0,0.0,0.0,0.0,0.0,0.0,0.0,0.0,0.0,0.0,0.0,0.0,0.0,0.0,0.0,0.0,0.0079,0.0157,0.0197,0.016,0.016,0.0201,0.0162,0.0164,0.0165,0.0206,0.0165,0.0165,0.0083,0.0082,0.0041,0.0,0.0,0.0,0.0,0.0,0.0,0.0,0.0,0.0,0.0,0.0,0.0,0.0,0.0,0.0,0.0,0.0,0.0,0.0,-0.0681,-0.1796,-0.3466,-0.4614,-0.5888,-0.7486,-0.7992,-0.8509,-0.9196,-0.9239,-0.9535,-1.0033,-0.885,-0.801,-0.7889,-0.5119,-0.2532,-0.064,-0.0128,0.0,0.0,0.0,0.0,0.0,0.0,0.0,0.0,0.0,0.0,0.0,0.0,0.0,0.0,0.0,0.0,0.0,0.0,0.0,0.0,0.0,0.0,0.0,0.0,0.0,0.0,0.0,0.0,0.0,0.0,0.0,0.0,0.0,0.0,0.0,0.0,0.0,0.0,0.0,0.0,0.0,0.0,0.0,0.0,0.0,0.0,0.0,0.0,0.0,0.0,0.0,0.0,0.0,0.0,0.0,0.0,0.0,0.0,0.0,0.0,0.0,0.0,0.0,0.0,0.0,0.0,0.0,0.0,0.0,0.0,0.0,0.0,0.0,0.0,0.0,0.0,0.0,0.0,0.0,0.0,0.0,0.0,0.0,0.0,0.0,0.0,0.0,0.0,0.0,0.0,0.0,0.0,0.0,0.0,-0.0479,-0.1525,-0.2713,-0.4293,-0.6217,-0.7699,-0.8864,-0.9707,-0.9971,-1.0253,-1.0601,-1.0639,-1.0792,-1.1085,-1.0432,-0.9995,-0.9995,-0.7519,-0.5621,-0.473,-0.3682,-0.3194,-0.3438,-0.1343,0.0,0.0,0.0,0.0,0.0,0.0,-0.0088,-0.0353,-0.0357,-0.0358,-0.0357,-0.0403,-0.0269,0.0,0.0,0.0,0.0,0.0,0.0,0.0,0.0,0.0,0.0,0.0,0.0,0.0,0.0,0.0,0.0,0.0,0.0,0.0,0.0,0.0,0.0,0.0,0.0,0.0,0.0,0.0,0.0,0.0,0.0,0.0,0.0,0.0,0.0,0.0,0.0,0.0,0.0,0.0,0.0,0.0,0.0,0.0,0.0,0.0,0.0,0.0,0.0,0.0,0.0,0.0,0.0,0.0,0.0,0.0,0.0,0.0,0.0,0.0,0.0,0.0,0.0,0.0,0.0,0.0,0.0,0.0,0.0,0.0,0.0,0.0,0.0,0.0,0.0,-0.0445,-0.0671,-0.0668,-0.0668,-0.1602,-0.3469,-0.4897,-0.6596,-0.8558,-1.0051,-1.1049,-1.1455,-1.1499,-1.1499,-1.1499,-1.1499,-1.1499,-1.1499,-1.1499,-1.1277,-1.0827,-0.9571,-0.8587,-0.8093,-0.6841,-0.6171,-0.6255,-0.3554,-0.1377,-0.1075,0.0,0.0,0.0,0.0,-0.0446,-0.0799,-0.0848,-0.085,-0.0845,-0.0759,-0.0584,-0.0224,-0.009,0.0,0.0,0.0,0.0,0.0,0.0,0.0,0.0,0.0,0.0,0.0,0.0,0.0,0.0,0.0,0.0,0.0,0.0,0.0,0.0,0.0,0.0,0.0,0.0,0.0,0.0,0.0,0.0,0.0,0.0,0.0,0.0,0.0,0.0,0.0,0.0,0.0,0.0,0.0,0.0,0.0,0.0,0.0,0.0,0.0,0.0,0.0,0.0,0.0,0.0,0.0,0.0,0.0,0.0,0.0,0.0,0.0,0.0,0.0,0.0,0.0,0.0,0.0,0.0,0.0,0.0,0.0,0.0,0.0,0.0,0.0,0.0,-0.1746,-0.2618,-0.2657,-0.2655,-0.3523,-0.5388,-0.5619,-0.6614,-0.8609,-0.8768,-0.9705,-1.1277,-1.1499,-1.1499,-1.1499,-1.1499,-1.1499,-1.1499,-1.1499,-1.0782,-0.9166,-0.9121,-0.8583,-0.6841,-0.706,-0.7194,-0.7242,-0.6742,-0.5714,-0.4429,-0.3954,-0.3153,-0.1567,-0.1425,-0.1601,-0.1881,-0.175,-0.1301,-0.157,-0.0942,-0.0673,-0.0673,-0.0585,0.0,0.0,0.0,0.0,0.0,0.0,0.0,0.0,0.0,0.0,0.0,0.0,0.0,0.0,0.0,0.0,0.0,0.0,0.0,0.0,0.0,0.0,0.0,0.0,0.0,0.0,0.0,0.0,0.0,0.0,0.0,0.0,0.0,0.0,0.0,0.0,0.0,0.0,0.0,0.0,0.0,0.0,0.0,0.0,0.0,0.0,0.0,0.0,0.0,0.0,0.0,0.0,0.0,0.0,0.0,0.0,0.0,0.0,-0.013,-0.0348,-0.0131,-0.0307,-0.0747,-0.0839,-0.0844,-0.0847,-0.0806,-0.0808,-0.0943,-0.1973,-0.242,-0.2196,-0.4295,-0.5656,-0.6057,-0.5125,-0.5478,-0.7156,-0.7405,-0.8353,-1.0092,-1.0313,-1.0693,-1.1455,-1.1499,-1.1499,-1.1499,-1.1766,-1.1899,-1.1943,-1.2165,-1.1982,-1.1222,-1.1355,-1.1083,-1.0278,-1.0411,-1.0654,-1.1033,-1.1083,-1.0386,-0.889,-0.7087,-0.5567,-0.4874,-0.4769,-0.4909,-0.5269,-0.5371,-0.5339,-0.5465,-0.524,-0.4739,-0.3329,-0.2829,-0.219,-0.1143,-0.064,-0.0503,-0.0411,-0.0274,0.0,0.0,0.0,0.0,0.0,0.0,0.0,0.0,0.0,0.0,0.0,0.0,0.0,0.0,0.0,0.0,0.0,0.0,0.0,0.0,0.0,0.0,0.0,0.0,0.0,0.0,0.0,0.0,-0.1849,-0.1848,-0.1848,-0.1849,-0.1849,-0.1849,-0.1852,-0.1899,-0.1899,-0.1902,-0.195,-0.195,-0.195,-0.1781,-0.0762,-0.0169,-0.0255,-0.0856,-0.1203,-0.1247,-0.1687,0.0,-0.1917,-0.1396,-0.1355,-0.1491,-0.0796,-0.0754,-0.1421,-0.201,-0.2198,-0.2242,-0.2689,-0.2958,-0.3092,-0.4431,-0.4923,-0.4789,-0.6748,-0.8267,-0.8761,-0.8137,-0.8271,-0.9482,-0.9705,-1.0461,-1.181,-1.1899,-1.1899,-1.1899,-1.1899,-1.1899,-1.1899,-1.221,-1.2387,-1.2438,-1.274,-1.2981,-1.2975,-1.3101,-1.3209,-1.3209,-1.3298,-1.3566,-1.3913,-1.4029,-1.3616,-1.258,-1.054,-0.9011,-0.766,-0.7615,-0.7821,-0.8284,-0.8337,-0.8369,-0.8373,-0.8385,-0.7459,-0.5948,-0.5432,-0.4935,-0.3465,-0.254,-0.1985,-0.194,-0.111,-0.0324,-0.0232,0.0,0.0,0.0,0.0,0.0,0.0,0.0,0.0,0.0,0.0,0.0,0.0,0.0,0.0,0.0,0.0,0.0,0.0,0.0,0.0,0.0,0.0,0.0,0.0,0.0,0.0,-0.6411,-0.6327,-0.6369,-0.6166,-0.6327,-0.6208,-0.6324,-0.6127,-0.6336,-0.6544,-0.6424,-0.6517,-0.6692,-0.6258,-0.2659,-0.0773,-0.1083,-0.3076,-0.403,-0.4158,-0.5721,-0.6702,-0.6676,-0.5017,-0.4116,-0.4012,-0.2503,-0.1702,-0.1837,-0.3358,-0.4163,-0.4297,-0.5814,-0.6748,-0.6659,-0.6882,-0.6971,-0.7194,-0.8935,-0.9918,-1.0189,-1.1621,-1.2171,-1.1993,-1.2387,-1.2565,-1.2793,-1.2793,-1.2793,-1.2837,-1.2805,-1.2805,-1.2799,-1.2843,-1.2894,-1.2944,-1.3048,-1.3116,-1.3224,-1.3628,-1.3919,-1.3977,-1.4276,-1.4576,-1.4589,-1.4589,-1.4518,-1.4518,-1.401,-1.2557,-0.9798,-0.941,-0.9281,-0.9299,-0.9165,-0.922,-0.9182,-0.9245,-0.8435,-0.8075,-0.7668,-0.7167,-0.7059,-0.5623,-0.4623,-0.4073,-0.2777,-0.1623,-0.1439,-0.1113,-0.0835,-0.0418,0.0,0.0,0.0,0.0,0.0,0.0,0.0,0.0,0.0,0.0,0.0,0.0,0.0,0.0,0.0,0.0,0.0,0.0,0.0,0.0,0.0,0.0,0.0,-0.6769,-0.6817,-0.6908,-0.6971,-0.6971,-0.6971,-0.6985,-0.7009,-0.7052,-0.7066,-0.709,-0.7137,-0.7122,-0.7036,-0.5885,-0.5125,-0.4899,-0.5711,-0.608,-0.617,-0.6824,-0.7126,-0.7013,-0.6355,-0.6278,-0.6391,-0.5546,-0.5234,-0.5638,-0.6576,-0.7067,-0.7112,-0.7691,-0.8048,-0.8271,-0.9251,-0.974,-0.9651,-1.1616,-1.2464,-1.1988,-1.3222,-1.372,-1.3266,-1.3007,-1.292,-1.292,-1.2961,-1.301,-1.301,-1.3083,-1.3132,-1.3177,-1.3448,-1.3765,-1.4042,-1.4088,-1.412,-1.4172,-1.4342,-1.4466,-1.4466,-1.4603,-1.4794,-1.4869,-1.4889,-1.4923,-1.4991,-1.5018,-1.4128,-1.3434,-1.2812,-1.2701,-1.2823,-1.2795,-1.2731,-1.2935,-1.2766,-1.2248,-1.0936,-0.9581,-0.8598,-0.8587,-0.7658,-0.7048,-0.6908,-0.6063,-0.531,-0.4937,-0.414,-0.3057,-0.2307,-0.132,-0.0378,0.0,0.0,0.0,0.0,0.0,0.0,0.0,0.0,0.0,0.0,0.0,0.0,0.0,0.0,0.0,0.0,0.0,0.0,0.0,0.0,0.0,-0.9047,-0.9153,-0.9221,-0.9253,-0.9253,-0.9253,-0.9314,-0.9341,-0.9346,-0.9408,-0.9435,-0.944,-0.9437,-0.9492,-0.9809,-0.9776,-0.9362,-0.8811,-0.8485,-0.8577,-0.9122,-0.942,-0.9286,-0.8797,-0.8668,-0.8805,-0.8,-0.7777,-0.8226,-0.9077,-0.9477,-0.9477,-1.0056,-1.0416,-1.0683,-1.1705,-1.2154,-1.2248,-1.354,-1.4011,-1.3579,-1.415,-1.4403,-1.4074,-1.3681,-1.3502,-1.3458,-1.3591,-1.3642,-1.3609,-1.3731,-1.3729,-1.3775,-1.4055,-1.4375,-1.4655,-1.4741,-1.4814,-1.4821,-1.4809,-1.4836,-1.4882,-1.4843,-1.493,-1.5031,-1.5038,-1.5092,-1.516,-1.5181,-1.5181,-1.5147,-1.4951,-1.493,-1.5018,-1.5085,-1.5126,-1.5214,-1.5127,-1.4463,-1.3316,-1.2082,-1.1244,-1.0923,-1.0205,-0.9724,-0.9638,-0.8782,-0.8072,-0.7643,-0.6793,-0.5275,-0.4231,-0.2994,-0.1759,-0.0951,0.0,0.0,0.0,0.0,0.0,0.0,0.0,0.0,0.0,0.0,0.0,0.0,0.0,0.0,0.0,0.0,0.0,0.0,0.0,0.0,-1.3623,-1.3452,-1.3716,-1.335,-1.3234,-1.3234,-1.3681,-1.3576,-1.3676,-1.3429,-1.3337,-1.3868,-1.3495,-1.3925,-1.3514,-1.3969,-1.3369,-1.1948,-1.1284,-1.1422,-1.2996,-1.3717,-1.3578,-1.1971,-1.1261,-1.1261,-0.9611,-0.881,-0.9166,-1.0639,-1.1438,-1.1754,-1.3002,-1.3584,-1.4122,-1.3951,-1.4135,-1.4118,-1.4359,-1.4471,-1.4484,-1.462,-1.4694,-1.4649,-1.4603,-1.4603,-1.4649,-1.4649,-1.4564,-1.461,-1.4623,-1.4701,-1.4643,-1.4689,-1.4714,-1.4748,-1.4896,-1.4964,-1.503,-1.5079,-1.5133,-1.5133,-1.516,-1.514,-1.5147,-1.516,-1.5167,-1.5181,-1.5181,-1.5181,-1.5181,-1.5153,-1.5147,-1.5174,-1.516,-1.5214,-1.5174,-1.5181,-1.5181,-1.4946,-1.4563,-1.504,-1.4657,-1.3281,-1.2145,-1.1815,-1.0772,-0.9638,-0.9397,-0.8877,-0.7362,-0.575,-0.485,-0.4185,-0.2619,0.0,0.0,0.0,0.0,0.0,0.0,0.0,0.0,0.0,0.0,0.0,0.0,0.0,0.0,0.0,0.0,0.0,0.0,0.0,0.0,-1.4,-1.4014,-1.4116,-1.4156,-1.4156,-1.4156,-1.419,-1.4224,-1.4224,-1.4258,-1.4292,-1.4299,-1.4299,-1.4299,-1.4299,-1.4299,-1.4255,-1.3628,-1.3407,-1.3496,-1.4033,-1.4299,-1.4166,-1.3673,-1.3401,-1.3312,-1.2825,-1.2509,-1.2553,-1.3046,-1.3401,-1.3584,-1.3945,-1.4299,-1.4312,-1.4394,-1.4448,-1.4462,-1.459,-1.462,-1.464,-1.4821,-1.4896,-1.4909,-1.4991,-1.5045,-1.5038,-1.495,-1.4903,-1.4903,-1.4991,-1.5045,-1.5045,-1.5045,-1.5045,-1.5052,-1.5086,-1.516,-1.5166,-1.5147,-1.5181,-1.5181,-1.5181,-1.5181,-1.5181,-1.5181,-1.5181,-1.5181,-1.5181,-1.5181,-1.5181,-1.5181,-1.5194,-1.5181,-1.5181,-1.5181,-1.5194,-1.5194,-1.5181,-1.5181,-1.5181,-1.5181,-1.514,-1.4335,-1.4159,-1.4099,-1.3434,-1.2963,-1.281,-1.1574,-1.0772,-0.9492,-0.8357,-0.6793,-0.5373,-0.4092,-0.3283,-0.2096,0.0,0.0,0.0,0.0,0.0,0.0,0.0,0.0,0.0,0.0,0.0,0.0,0.0,0.0,0.0,0.0,0.0,-1.4156,-1.4214,-1.4258,-1.4299,-1.4299,-1.4299,-1.4299,-1.4299,-1.4299,-1.4299,-1.4299,-1.4299,-1.4299,-1.4299,-1.4299,-1.4299,-1.4299,-1.4299,-1.4299,-1.4299,-1.4299,-1.4299,-1.4299,-1.4299,-1.4299,-1.4299,-1.4299,-1.4299,-1.4299,-1.4299,-1.4299,-1.4299,-1.4299,-1.4333,-1.4373,-1.4462,-1.4529,-1.4604,-1.4746,-1.4775,-1.4855,-1.497,-1.5098,-1.5059,-1.5133,-1.5174,-1.5174,-1.5139,-1.5098,-1.5112,-1.514,-1.5181,-1.5181,-1.5174,-1.5181,-1.5181,-1.5181,-1.5181,-1.5181,-1.5174,-1.5181,-1.5181,-1.5181,-1.5181,-1.5181,-1.5181,-1.5181,-1.5181,-1.5242,-1.5269,-1.5276,-1.533,-1.535,-1.535,-1.5248,-1.5215,-1.5248,-1.5323,-1.5357,-1.5371,-1.5364,-1.535,-1.535,-1.535,-1.5323,-1.5289,-1.5269,-1.5228,-1.4972,-1.404,-1.3052,-1.2009,-1.063,-0.9255,-0.8167,-0.7078,-0.5987,-0.428,0.0,0.0,0.0,0.0,0.0,0.0,0.0,0.0,0.0,0.0,0.0,0.0,0.0,0.0,0.0,0.0,0.0,-1.4299,-1.4299,-1.4299,-1.4299,-1.4299,-1.4299,-1.4299,-1.4299,-1.4299,-1.4299,-1.4299,-1.4299,-1.4299,-1.4299,-1.4299,-1.4299,-1.4299,-1.4299,-1.4299,-1.4299,-1.4299,-1.4299,-1.4299,-1.4299,-1.4299,-1.4299,-1.4299,-1.4299,-1.4299,-1.4299,-1.4306,-1.4326,-1.434,-1.4387,-1.4509,-1.4529,-1.4638,-1.476,-1.4903,-1.503,-1.503,-1.5146,-1.5167,-1.5167,-1.5174,-1.5181,-1.5181,-1.5214,-1.5167,-1.5181,-1.5181,-1.5181,-1.5181,-1.5181,-1.5181,-1.5181,-1.5181,-1.5181,-1.5181,-1.5181,-1.5181,-1.5181,-1.5181,-1.5181,-1.5181,-1.5208,-1.5221,-1.5228,-1.5343,-1.5425,-1.5445,-1.5472,-1.5546,-1.5546,-1.5404,-1.5323,-1.5411,-1.554,-1.5526,-1.5546,-1.558,-1.558,-1.5546,-1.5546,-1.554,-1.5466,-1.5425,-1.5371,-1.5262,-1.4762,-1.4184,-1.3388,-1.2522,-1.2005,-1.0988,-0.9694,-0.8638,-0.7489,-0.5368,-0.3207,-0.0908,0.0,0.0,0.0,0.0,0.0,0.0,0.0,0.0,0.0,0.0,0.0,0.0,0.0,0.0,-1.4299,-1.4299,-1.4299,-1.4299,-1.4299,-1.4299,-1.4299,-1.4299,-1.4299,-1.4299,-1.4299,-1.4299,-1.4299,-1.4299,-1.4299,-1.4299,-1.4299,-1.4299,-1.4299,-1.4299,-1.4299,-1.4299,-1.4299,-1.4299,-1.4299,-1.4299,-1.4299,-1.4299,-1.4299,-1.4299,-1.4353,-1.4455,-1.4448,-1.4523,-1.462,-1.478,-1.4862,-1.4923,-1.5052,-1.5166,-1.5173,-1.5153,-1.5181,-1.5181,-1.5181,-1.5181,-1.5181,-1.5181,-1.5181,-1.5181,-1.5181,-1.5181,-1.5181,-1.5181,-1.5181,-1.5181,-1.5181,-1.5181,-1.5181,-1.5181,-1.5181,-1.5181,-1.5194,-1.5181,-1.5187,-1.5289,-1.5337,-1.5377,-1.5486,-1.5581,-1.5588,-1.5573,-1.56,-1.558,-1.5567,-1.5533,-1.5519,-1.556,-1.5587,-1.5587,-1.56,-1.5614,-1.5614,-1.5614,-1.5642,-1.5594,-1.5526,-1.5506,-1.5431,-1.5418,-1.4858,-1.5061,-1.4613,-1.4463,-1.3783,-1.2422,-1.1361,-1.0588,-0.8573,-0.6076,-0.3457,0.0,0.0,0.0,0.0,0.0,0.0,0.0,0.0,0.0,0.0,0.0,0.0,0.0,0.0,-1.4299,-1.4299,-1.4299,-1.4299,-1.4299,-1.4299,-1.4299,-1.4299,-1.4299,-1.4299,-1.4299,-1.4299,-1.4299,-1.4299,-1.4299,-1.4299,-1.4299,-1.4299,-1.4299,-1.4299,-1.4299,-1.4299,-1.4299,-1.4299,-1.4299,-1.4299,-1.4299,-1.4299,-1.4299,-1.4299,-1.438,-1.4482,-1.4516,-1.4624,-1.4828,-1.4916,-1.5051,-1.5059,-1.5194,-1.5181,-1.5181,-1.5181,-1.5181,-1.5181,-1.5181,-1.5181,-1.5181,-1.5181,-1.5181,-1.5181,-1.5181,-1.5181,-1.5181,-1.5181,-1.5181,-1.5181,-1.5181,-1.5181,-1.5181,-1.5181,-1.5215,-1.5262,-1.5276,-1.5316,-1.5377,-1.5466,-1.5506,-1.552,-1.5649,-1.571,-1.5744,-1.5784,-1.5818,-1.5839,-1.5825,-1.5798,-1.5737,-1.5798,-1.5818,-1.5825,-1.5825,-1.5825,-1.5818,-1.5818,-1.5784,-1.575,-1.573,-1.5683,-1.558,-1.56,-1.5607,-1.5627,-1.5627,-1.5255,-1.509,-1.4067,-1.3491,-1.2817,-1.0861,-0.8518,-0.5524,-0.255,0.0,0.0,0.0,0.0,0.0,0.0,0.0,0.0,0.0,0.0,0.0,0.0,0.0,-1.4299,-1.4299,-1.4299,-1.4299,-1.4299,-1.4299,-1.4299,-1.4299,-1.4299,-1.4299,-1.4299,-1.4299,-1.4299,-1.4299,-1.4299,-1.4299,-1.4299,-1.4299,-1.4299,-1.4299,-1.4299,-1.4299,-1.4299,-1.4299,-1.4299,-1.4299,-1.4299,-1.4299,-1.4306,-1.4312,-1.4407,-1.4536,-1.457,-1.4726,-1.4943,-1.5004,-1.5112,-1.5147,-1.5167,-1.5181,-1.5181,-1.5181,-1.5181,-1.5181,-1.5181,-1.5181,-1.5181,-1.5181,-1.5181,-1.5181,-1.5181,-1.5181,-1.5181,-1.5181,-1.5181,-1.5181,-1.5181,-1.5187,-1.5208,-1.5235,-1.5282,-1.5398,-1.5432,-1.5486,-1.5581,-1.5628,-1.5662,-1.5662,-1.584,-1.5866,-1.5942,-1.5995,-1.6029,-1.6029,-1.6049,-1.6008,-1.599,-1.6044,-1.6133,-1.6133,-1.6069,-1.6126,-1.6133,-1.6119,-1.6029,-1.5893,-1.5879,-1.5852,-1.5811,-1.5805,-1.5791,-1.5771,-1.575,-1.5675,-1.5619,-1.5522,-1.5292,-1.4818,-1.2564,-1.0126,-0.7172,-0.435,-0.1948,0.0,0.0,0.0,0.0,0.0,0.0,0.0,0.0,0.0,0.0,0.0,0.0,-1.4299,-1.4299,-1.4299,-1.4299,-1.4299,-1.4299,-1.4299,-1.4299,-1.4299,-1.4299,-1.4299,-1.4299,-1.4299,-1.4299,-1.4299,-1.4299,-1.4299,-1.4299,-1.4299,-1.4299,-1.4299,-1.4299,-1.4299,-1.4299,-1.4299,-1.4299,-1.4299,-1.4299,-1.4319,-1.4407,-1.4536,-1.4626,-1.4787,-1.5003,-1.5146,-1.512,-1.5147,-1.5181,-1.5181,-1.5181,-1.5181,-1.5181,-1.5181,-1.5181,-1.5181,-1.5181,-1.5181,-1.5181,-1.5181,-1.5181,-1.5181,-1.5181,-1.5181,-1.5181,-1.5187,-1.5201,-1.5194,-1.5235,-1.5337,-1.5371,-1.5425,-1.556,-1.5539,-1.5553,-1.5587,-1.5757,-1.5847,-1.5881,-1.599,-1.6008,-1.6071,-1.6056,-1.6076,-1.6133,-1.6083,-1.6069,-1.6049,-1.6112,-1.6126,-1.6133,-1.6133,-1.6133,-1.6133,-1.6133,-1.6105,-1.6078,-1.6071,-1.6015,-1.5981,-1.5947,-1.592,-1.5886,-1.5893,-1.5879,-1.5879,-1.5872,-1.5872,-1.5774,-1.4041,-1.2656,-0.9715,-0.6673,-0.4424,-0.2597,0.0,0.0,0.0,0.0,0.0,0.0,0.0,0.0,0.0,0.0,0.0,-1.4299,-1.4299,-1.4299,-1.4299,-1.4299,-1.4299,-1.4299,-1.4299,-1.4299,-1.4299,-1.4299,-1.4299,-1.4299,-1.4299,-1.4299,-1.4299,-1.4299,-1.4299,-1.4299,-1.4299,-1.4299,-1.4299,-1.4299,-1.4299,-1.4299,-1.4299,-1.4299,-1.4299,-1.4333,-1.4448,-1.4532,-1.4694,-1.4903,-1.5071,-1.5207,-1.5181,-1.5174,-1.5181,-1.5181,-1.5181,-1.5181,-1.5181,-1.5181,-1.5181,-1.5181,-1.5181,-1.5181,-1.5181,-1.5181,-1.5181,-1.5181,-1.5181,-1.5181,-1.5187,-1.5215,-1.5276,-1.5289,-1.5364,-1.5472,-1.5527,-1.5581,-1.5723,-1.5737,-1.5784,-1.5832,-1.5927,-1.6003,-1.6024,-1.6078,-1.6126,-1.6133,-1.6133,-1.6133,-1.6133,-1.6133,-1.6133,-1.6133,-1.6133,-1.6133,-1.6133,-1.6133,-1.6133,-1.6133,-1.6133,-1.6126,-1.6105,-1.6105,-1.6049,-1.6049,-1.6022,-1.6035,-1.6078,-1.6092,-1.6098,-1.6098,-1.6092,-1.6071,-1.5916,-1.5252,-1.4607,-1.3343,-1.0248,-0.7178,-0.5037,0.0,0.0,0.0,0.0,0.0,0.0,0.0,0.0,0.0,0.0,0.0,-1.4299,-1.4299,-1.4299,-1.4299,-1.4299,-1.4299,-1.4299,-1.4299,-1.4299,-1.4299,-1.4299,-1.4299,-1.4299,-1.4299,-1.4299,-1.4299,-1.4299,-1.4299,-1.4299,-1.4299,-1.4299,-1.4299,-1.4299,-1.4299,-1.4299,-1.4299,-1.4299,-1.4306,-1.4373,-1.4475,-1.4606,-1.4787,-1.4936,-1.5119,-1.516,-1.5181,-1.5181,-1.5181,-1.5181,-1.5181,-1.5181,-1.5181,-1.5181,-1.5181,-1.5181,-1.5181,-1.5181,-1.5181,-1.5181,-1.5181,-1.5181,-1.5194,-1.5215,-1.5228,-1.5262,-1.5404,-1.5418,-1.552,-1.5635,-1.5676,-1.573,-1.5915,-1.5935,-1.594,-1.6035,-1.6049,-1.6105,-1.6112,-1.6133,-1.6133,-1.6133,-1.6133,-1.6133,-1.6133,-1.6133,-1.6133,-1.6133,-1.6133,-1.6133,-1.6133,-1.6133,-1.6133,-1.6133,-1.6133,-1.6133,-1.6133,-1.6133,-1.6133,-1.6133,-1.6133,-1.6133,-1.6133,-1.6133,-1.6133,-1.6133,-1.6133,-1.6133,-1.6026,-1.5827,-1.5778,-1.5472,-1.256,-0.9116,-0.6373,0.0,0.0,0.0,0.0,0.0,0.0,0.0,0.0,0.0,0.0,0.0,-1.4299,-1.4299,-1.4299,-1.4299,-1.4299,-1.4299,-1.4299,-1.4299,-1.4299,-1.4299,-1.4299,-1.4299,-1.4299,-1.4299,-1.4299,-1.4299,-1.4299,-1.4299,-1.4299,-1.4299,-1.4299,-1.4299,-1.4299,-1.4299,-1.4299,-1.4299,-1.4306,-1.4353,-1.4475,-1.4631,-1.4753,-1.4923,-1.5112,-1.516,-1.5167,-1.5181,-1.5181,-1.5181,-1.5181,-1.5181,-1.5181,-1.5181,-1.5181,-1.5181,-1.5181,-1.5181,-1.5181,-1.5181,-1.5181,-1.5181,-1.5181,-1.5255,-1.533,-1.5364,-1.5398,-1.5459,-1.5547,-1.5662,-1.5791,-1.5874,-1.5949,-1.6001,-1.6029,-1.6078,-1.6119,-1.6133,-1.6133,-1.6133,-1.6133,-1.6133,-1.6133,-1.6133,-1.6133,-1.6133,-1.6133,-1.6133,-1.6133,-1.6133,-1.6133,-1.6133,-1.6133,-1.6133,-1.6133,-1.6133,-1.6133,-1.6133,-1.6133,-1.6133,-1.6133,-1.6133,-1.6133,-1.6133,-1.6133,-1.6133,-1.6133,-1.6133,-1.6133,-1.6133,-1.5977,-1.5977,-1.5273,-1.3505,-1.0926,-0.9051,-0.6306,0.0,0.0,-0.1302,0.0,0.0,0.0,0.0,0.0,0.0,0.0,-1.4299,-1.4299,-1.4299,-1.4299,-1.4299,-1.4299,-1.4299,-1.4299,-1.4299,-1.4299,-1.4299,-1.4299,-1.4299,-1.4299,-1.4299,-1.4299,-1.4299,-1.4299,-1.4299,-1.4299,-1.4299,-1.4299,-1.4299,-1.4299,-1.4299,-1.4299,-1.4306,-1.4373,-1.4516,-1.462,-1.4821,-1.4964,-1.5113,-1.5181,-1.5181,-1.5181,-1.5181,-1.5181,-1.5181,-1.5181,-1.5181,-1.5181,-1.5181,-1.5181,-1.5181,-1.5181,-1.5181,-1.5181,-1.5181,-1.5181,-1.5181,-1.5269,-1.5384,-1.5486,-1.556,-1.5628,-1.571,-1.5811,-1.599,-1.6024,-1.6008,-1.6105,-1.6133,-1.6133,-1.6133,-1.6133,-1.6133,-1.6133,-1.6133,-1.6133,-1.6133,-1.6133,-1.6133,-1.6133,-1.6133,-1.6133,-1.6133,-1.6133,-1.6133,-1.6133,-1.6133,-1.6133,-1.6133,-1.6133,-1.6133,-1.6133,-1.6133,-1.6133,-1.6133,-1.6133,-1.6133,-1.6133,-1.6133,-1.6133,-1.6133,-1.6133,-1.6133,-1.6133,-1.6133,-1.6133,-1.5827,-1.4414,-1.396,-1.3046,-0.9845,-0.6185,-0.3874,-0.2661,-0.1512,-0.0404,0.0,0.0,0.0,0.0,0.0,-1.4299,-1.4299,-1.4299,-1.4299,-1.4299,-1.4299,-1.4299,-1.4299,-1.4299,-1.4299,-1.4299,-1.4299,-1.4299,-1.4299,-1.4299,-1.4299,-1.4299,-1.4299,-1.4299,-1.4299,-1.4299,-1.4299,-1.4299,-1.4299,-1.4299,-1.4299,-1.4299,-1.4373,-1.4516,-1.462,-1.4821,-1.497,-1.516,-1.5181,-1.5181,-1.5181,-1.5181,-1.5181,-1.5181,-1.5181,-1.5181,-1.5181,-1.5181,-1.5181,-1.5181,-1.5181,-1.5181,-1.5181,-1.5181,-1.5181,-1.5201,-1.5269,-1.5438,-1.5526,-1.5716,-1.5859,-1.5949,-1.6024,-1.6085,-1.6119,-1.6062,-1.6133,-1.6133,-1.6133,-1.6133,-1.6133,-1.6133,-1.6133,-1.6133,-1.6133,-1.6133,-1.6133,-1.6133,-1.6133,-1.6133,-1.6133,-1.6133,-1.6133,-1.6133,-1.6133,-1.6133,-1.6133,-1.6133,-1.6133,-1.6133,-1.6133,-1.6133,-1.6133,-1.6133,-1.6133,-1.6133,-1.6133,-1.6133,-1.6133,-1.6133,-1.6133,-1.6133,-1.6133,-1.6133,-1.6133,-1.6133,-1.5778,-1.5479,-1.4875,-1.2962,-0.9398,-0.6787,-0.438,-0.3426,-0.2419,-0.1261,0.0,0.0,0.0,0.0,-1.4299,-1.4299,-1.4343,-1.4299,-1.4343,-1.4387,-1.4343,-1.4343,-1.4387,-1.4299,-1.4387,-1.4343,-1.4387,-1.4343,-1.4299,-1.4299,-1.4299,-1.4299,-1.4299,-1.4299,-1.4299,-1.4299,-1.4299,-1.4299,-1.4299,-1.4299,-1.4299,-1.438,-1.4502,-1.4652,-1.4814,-1.497,-1.5099,-1.5181,-1.5181,-1.5181,-1.5181,-1.5181,-1.5181,-1.5181,-1.5181,-1.5181,-1.5181,-1.5181,-1.5181,-1.5181,-1.5181,-1.5181,-1.5181,-1.5181,-1.5181,-1.5323,-1.5554,-1.5573,-1.5798,-1.5961,-1.6056,-1.6062,-1.6126,-1.6133,-1.6133,-1.6133,-1.6133,-1.6133,-1.6133,-1.6133,-1.6133,-1.6133,-1.6133,-1.6133,-1.6133,-1.6133,-1.6133,-1.6133,-1.6133,-1.6133,-1.6133,-1.6133,-1.6133,-1.6133,-1.6133,-1.6133,-1.6133,-1.6133,-1.6133,-1.6133,-1.6133,-1.6133,-1.6133,-1.6133,-1.6133,-1.6133,-1.6133,-1.6133,-1.6133,-1.6133,-1.6133,-1.6133,-1.6133,-1.6133,-1.6133,-1.6133,-1.6133,-1.5273,-1.3766,-1.2763,-1.0599,-0.8342,-0.6185,-0.428,-0.2873,-0.1463,0.0,0.0,0.0,-1.5087,-1.505,-1.4778,-1.4822,-1.5087,-1.5087,-1.5094,-1.5094,-1.5094,-1.4911,-1.4778,-1.5006,-1.4955,-1.4697,-1.4431,-1.4299,-1.4299,-1.4343,-1.4299,-1.4343,-1.4343,-1.4343,-1.4299,-1.4299,-1.4299,-1.4299,-1.4299,-1.4312,-1.4448,-1.4631,-1.4769,-1.4964,-1.5099,-1.5181,-1.5181,-1.5181,-1.5181,-1.5181,-1.5181,-1.5181,-1.5181,-1.5181,-1.5181,-1.5181,-1.5181,-1.5181,-1.5181,-1.5181,-1.5181,-1.5181,-1.5181,-1.533,-1.5506,-1.5607,-1.5771,-1.6085,-1.6126,-1.6126,-1.6133,-1.6133,-1.6133,-1.6133,-1.6133,-1.6133,-1.6133,-1.6133,-1.6133,-1.6133,-1.6133,-1.6133,-1.6133,-1.6133,-1.6133,-1.6133,-1.6133,-1.6133,-1.6133,-1.6133,-1.6133,-1.6133,-1.6133,-1.6133,-1.6133,-1.6133,-1.6133,-1.6133,-1.6133,-1.6133,-1.6133,-1.6133,-1.6133,-1.6133,-1.6133,-1.6133,-1.6133,-1.6133,-1.6133,-1.6133,-1.6133,-1.6133,-1.6133,-1.6133,-1.6133,-1.6133,-1.5273,-1.437,-1.3617,-1.1504,-0.8596,-0.6439,-0.438,-0.3074,-0.1715,0.0,0.0,-1.5837,-1.6013,-1.5433,-1.5396,-1.5704,-1.5704,-1.566,-1.566,-1.566,-1.5484,-1.5352,-1.5528,-1.5484,-1.5175,-1.4866,-1.4741,-1.469,-1.4653,-1.4564,-1.452,-1.4476,-1.4431,-1.4343,-1.4299,-1.4299,-1.4299,-1.4299,-1.4306,-1.4394,-1.4577,-1.4801,-1.4923,-1.5092,-1.5167,-1.5181,-1.5181,-1.5181,-1.5181,-1.5181,-1.5181,-1.5181,-1.5181,-1.5181,-1.5181,-1.5181,-1.5181,-1.5181,-1.5181,-1.5181,-1.5181,-1.5181,-1.5323,-1.5533,-1.56,-1.5784,-1.6008,-1.6133,-1.6133,-1.6133,-1.6133,-1.6133,-1.6133,-1.6133,-1.6133,-1.6133,-1.6133,-1.6133,-1.6133,-1.6133,-1.6133,-1.6133,-1.6133,-1.6133,-1.6133,-1.6133,-1.6133,-1.6133,-1.6133,-1.6133,-1.6133,-1.6133,-1.6133,-1.6133,-1.6133,-1.6133,-1.6133,-1.6133,-1.6133,-1.6133,-1.6133,-1.6133,-1.6133,-1.6133,-1.6133,-1.6133,-1.6133,-1.6133,-1.6133,-1.6133,-1.6133,-1.6133,-1.6133,-1.6133,-1.6133,-1.6133,-1.5728,-1.4875,-1.2913,-1.1009,-0.9051,-0.7095,-0.4986,-0.3328,-0.1513,0.0,-1.6189,-1.6928,-1.6013,-1.5704,-1.5749,-1.5712,-1.5704,-1.5793,-1.5749,-1.5749,-1.5749,-1.5704,-1.566,-1.5616,-1.5528,-1.544,-1.5528,-1.5572,-1.5264,-1.4999,-1.4903,-1.4646,-1.4476,-1.4299,-1.4299,-1.4299,-1.4299,-1.4299,-1.436,-1.4563,-1.466,-1.4748,-1.5059,-1.5147,-1.5181,-1.5181,-1.5181,-1.5181,-1.5181,-1.5181,-1.5181,-1.5181,-1.5181,-1.5181,-1.5181,-1.5181,-1.5181,-1.5181,-1.5181,-1.5181,-1.5181,-1.5323,-1.5526,-1.558,-1.5784,-1.6008,-1.6133,-1.6133,-1.6133,-1.6133,-1.6133,-1.6133,-1.6133,-1.6133,-1.6133,-1.6133,-1.6133,-1.6133,-1.6133,-1.6133,-1.6133,-1.6133,-1.6133,-1.6133,-1.6133,-1.6133,-1.6133,-1.6133,-1.6133,-1.6133,-1.6133,-1.6133,-1.6133,-1.6133,-1.6133,-1.6133,-1.6133,-1.6133,-1.6133,-1.6133,-1.6133,-1.6133,-1.6133,-1.6133,-1.6133,-1.6133,-1.6133,-1.6133,-1.6133,-1.6133,-1.6133,-1.6133,-1.6133,-1.6133,-1.6133,-1.6133,-1.6026,-1.452,-1.3012,-1.1614,-0.9707,-0.6994,-0.4283,-0.2018,-0.0757,-1.6761,-1.7068,-1.6717,-1.6541,-1.6541,-1.6541,-1.6585,-1.6541,-1.6541,-1.6541,-1.6497,-1.6013,-1.5873,-1.6005,-1.5793,-1.5704,-1.5704,-1.566,-1.5396,-1.5131,-1.4955,-1.4734,-1.4476,-1.4299,-1.4299,-1.4299,-1.4299,-1.4299,-1.4326,-1.4523,-1.4599,-1.4748,-1.5031,-1.514,-1.5181,-1.5181,-1.5181,-1.5181,-1.5181,-1.5181,-1.5181,-1.5181,-1.5181,-1.5181,-1.5181,-1.5181,-1.5181,-1.5181,-1.5181,-1.5181,-1.5181,-1.5364,-1.5519,-1.5566,-1.5784,-1.6029,-1.6119,-1.6133,-1.6133,-1.6133,-1.6133,-1.6133,-1.6133,-1.6133,-1.6133,-1.6133,-1.6133,-1.6133,-1.6133,-1.6133,-1.6133,-1.6133,-1.6133,-1.6133,-1.6133,-1.6133,-1.6133,-1.6133,-1.6133,-1.6133,-1.6133,-1.6133,-1.6133,-1.6133,-1.6133,-1.6133,-1.6133,-1.6133,-1.6133,-1.6133,-1.6133,-1.6133,-1.6133,-1.6133,-1.6133,-1.6133,-1.6133,-1.6133,-1.6133,-1.6133,-1.6133,-1.6133,-1.6133,-1.6133,-1.6133,-1.6133,-1.6083,-1.5927,-1.4975,-1.3467,-1.1109,-0.8349,-0.559,-0.2874,-0.1614,-1.7419,-1.7885,-1.7928,-1.7586,-1.7156,-1.7112,-1.7112,-1.7112,-1.7068,-1.7112,-1.7068,-1.6409,-1.6277,-1.6445,-1.6321,-1.6145,-1.6189,-1.6145,-1.5749,-1.544,-1.5219,-1.4822,-1.452,-1.4299,-1.4299,-1.4299,-1.4299,-1.4299,-1.4306,-1.4441,-1.459,-1.4728,-1.4977,-1.5099,-1.5181,-1.5181,-1.5181,-1.5181,-1.5181,-1.5181,-1.5181,-1.5181,-1.5181,-1.5181,-1.5181,-1.5181,-1.5181,-1.5181,-1.5181,-1.5181,-1.5208,-1.5323,-1.5486,-1.5593,-1.5729,-1.5934,-1.6105,-1.6126,-1.6133,-1.6133,-1.6133,-1.6133,-1.6133,-1.6133,-1.6133,-1.6133,-1.6133,-1.6133,-1.6133,-1.6133,-1.6133,-1.6133,-1.6133,-1.6133,-1.6133,-1.6133,-1.6133,-1.6133,-1.6133,-1.6133,-1.6133,-1.6133,-1.6133,-1.6133,-1.6133,-1.6133,-1.6133,-1.6133,-1.6133,-1.6133,-1.6133,-1.6133,-1.6133,-1.6133,-1.6133,-1.6133,-1.6133,-1.6133,-1.6133,-1.6133,-1.6133,-1.6133,-1.6133,-1.6133,-1.6133,-1.6133,-1.6083,-1.5977,-1.5728,-1.5224,-1.2413,-0.9356,-0.7396,-0.4835,-0.2824,-1.8278,-1.9786,-1.983,-1.8837,-1.7543,-1.7156,-1.7156,-1.7112,-1.7112,-1.7112,-1.7112,-1.6936,-1.6936,-1.698,-1.6849,-1.6849,-1.6805,-1.6849,-1.6409,-1.5749,-1.544,-1.5043,-1.4608,-1.4299,-1.4299,-1.4299,-1.4299,-1.4299,-1.4299,-1.4407,-1.4563,-1.4726,-1.4903,-1.5065,-1.5167,-1.5181,-1.5181,-1.5181,-1.5181,-1.5181,-1.5181,-1.5181,-1.5181,-1.5181,-1.5181,-1.5181,-1.5181,-1.5181,-1.5181,-1.5181,-1.5181,-1.5282,-1.5425,-1.5533,-1.5716,-1.5908,-1.6015,-1.6076,-1.6133,-1.6133,-1.6133,-1.6133,-1.6133,-1.6133,-1.6133,-1.6133,-1.6133,-1.6133,-1.6133,-1.6133,-1.6133,-1.6133,-1.6133,-1.6133,-1.6133,-1.6133,-1.6133,-1.6133,-1.6133,-1.6133,-1.6133,-1.6133,-1.6133,-1.6133,-1.6133,-1.6133,-1.6133,-1.6133,-1.6133,-1.6133,-1.6133,-1.6133,-1.6133,-1.6133,-1.6133,-1.6133,-1.6133,-1.6133,-1.6133,-1.6133,-1.6133,-1.6133,-1.6133,-1.6133,-1.6133,-1.6133,-1.6133,-1.6083,-1.5778,-1.5224,-1.3068,-1.0458,-0.86,-0.6843,-0.4835,-2.1122,-2.1684,-2.1673,-2.1328,-2.0602,-1.9438,-1.8322,-1.7244,-1.7112,-1.7112,-1.7112,-1.7112,-1.7112,-1.7112,-1.7112,-1.7068,-1.7068,-1.6665,-1.6225,-1.5749,-1.5484,-1.4866,-1.4476,-1.4343,-1.4343,-1.4299,-1.4299,-1.4299,-1.4299,-1.4373,-1.4455,-1.4604,-1.4848,-1.5038,-1.5147,-1.5181,-1.5181,-1.5181,-1.5181,-1.5181,-1.5181,-1.5181,-1.5181,-1.5181,-1.5181,-1.5181,-1.5181,-1.5181,-1.5181,-1.5181,-1.5181,-1.5255,-1.5391,-1.554,-1.5696,-1.5839,-1.5995,-1.6126,-1.6133,-1.6133,-1.6133,-1.6133,-1.6133,-1.6133,-1.6133,-1.6133,-1.6133,-1.6133,-1.6133,-1.6133,-1.6133,-1.6133,-1.6133,-1.6133,-1.6133,-1.6133,-1.6133,-1.6133,-1.6133,-1.6133,-1.6133,-1.6133,-1.6133,-1.6133,-1.6133,-1.6133,-1.6133,-1.6133,-1.6133,-1.6133,-1.6133,-1.6133,-1.6133,-1.6133,-1.6133,-1.6133,-1.6133,-1.6133,-1.6133,-1.6133,-1.6133,-1.6133,-1.6133,-1.6133,-1.6133,-1.6133,-1.6133,-1.6083,-1.5778,-1.4875,-1.3367,-1.1664,-0.9757,-0.8303,-0.6897,-2.2966,-2.3524,-2.3567,-2.318,-2.2492,-2.1338,-2.0091,-1.909,-1.8968,-1.8706,-1.8191,-1.8103,-1.7674,-1.7279,-1.7112,-1.7112,-1.7068,-1.6797,-1.6401,-1.5961,-1.5653,-1.5175,-1.4778,-1.452,-1.4476,-1.4387,-1.4299,-1.4299,-1.4299,-1.4299,-1.4387,-1.457,-1.486,-1.503,-1.5092,-1.5133,-1.5181,-1.5181,-1.5181,-1.5181,-1.5181,-1.5181,-1.5181,-1.5181,-1.5181,-1.5181,-1.5181,-1.5181,-1.5181,-1.5181,-1.5201,-1.5228,-1.535,-1.5479,-1.5628,-1.5778,-1.5967,-1.6105,-1.6133,-1.6133,-1.6133,-1.6133,-1.6133,-1.6133,-1.6133,-1.6133,-1.6133,-1.6133,-1.6133,-1.6133,-1.6133,-1.6133,-1.6133,-1.6133,-1.6133,-1.6133,-1.6133,-1.6133,-1.6133,-1.6133,-1.6133,-1.6133,-1.6133,-1.6133,-1.6133,-1.6133,-1.6133,-1.6133,-1.6133,-1.6133,-1.6133,-1.6133,-1.6133,-1.6133,-1.6133,-1.6133,-1.6133,-1.6133,-1.6133,-1.6133,-1.6133,-1.6133,-1.6133,-1.6133,-1.6133,-1.6133,-1.6133,-1.6026,-1.5877,-1.5628,-1.4925,-1.3068,-1.0958,-0.9055,-0.7349,-2.3867,-2.5385,-2.5458,-2.4477,-2.3052,-2.3009,-2.2751,-2.2492,-2.2449,-2.1468,-1.9994,-1.996,-1.9308,-1.7753,-1.7411,-1.7411,-1.7236,-1.7148,-1.6665,-1.6401,-1.6049,-1.5565,-1.5219,-1.4999,-1.4778,-1.452,-1.4387,-1.4431,-1.4343,-1.4299,-1.4373,-1.4536,-1.4787,-1.4976,-1.5018,-1.5113,-1.5167,-1.5181,-1.5181,-1.5181,-1.5181,-1.5181,-1.5181,-1.5181,-1.5181,-1.5181,-1.5181,-1.5181,-1.5181,-1.5181,-1.5187,-1.5187,-1.5235,-1.533,-1.5431,-1.5683,-1.5947,-1.6092,-1.6133,-1.6133,-1.6133,-1.6133,-1.6133,-1.6133,-1.6133,-1.6133,-1.6133,-1.6133,-1.6133,-1.6133,-1.6133,-1.6133,-1.6133,-1.6133,-1.6133,-1.6133,-1.6133,-1.6133,-1.6133,-1.6133,-1.6133,-1.6133,-1.6133,-1.6133,-1.6133,-1.6133,-1.6133,-1.6133,-1.6133,-1.6133,-1.6133,-1.6133,-1.6133,-1.6133,-1.6133,-1.6133,-1.6133,-1.6133,-1.6133,-1.6133,-1.6133,-1.6133,-1.6133,-1.6133,-1.6133,-1.6133,-1.6133,-1.6133,-1.6083,-1.5728,-1.5124,-1.3417,-1.1009,-0.8249,-0.6193,-2.694,-2.7405,-2.7405,-2.7054,-2.663,-2.6588,-2.5129,-2.2794,-2.2622,-2.2191,-2.1803,-2.1803,-2.1328,-2.0948,-1.97,-1.9177,-1.8401,-1.7534,-1.6709,-1.6357,-1.6225,-1.5793,-1.5572,-1.5484,-1.5175,-1.4955,-1.4734,-1.4601,-1.4387,-1.4343,-1.4367,-1.4529,-1.4706,-1.4835,-1.497,-1.5153,-1.5153,-1.5181,-1.5181,-1.5181,-1.5181,-1.5181,-1.5181,-1.5181,-1.5181,-1.5181,-1.5181,-1.5181,-1.5181,-1.5181,-1.5181,-1.5181,-1.5194,-1.5337,-1.5499,-1.5778,-1.6017,-1.6133,-1.6133,-1.6133,-1.6133,-1.6133,-1.6133,-1.6133,-1.6133,-1.6133,-1.6133,-1.6133,-1.6133,-1.6133,-1.6133,-1.6133,-1.6133,-1.6133,-1.6133,-1.6133,-1.6133,-1.6133,-1.6133,-1.6133,-1.6133,-1.6133,-1.6133,-1.6133,-1.6133,-1.6133,-1.6133,-1.6133,-1.6133,-1.6133,-1.6133,-1.6133,-1.6133,-1.6133,-1.6133,-1.6133,-1.6133,-1.6133,-1.6133,-1.6133,-1.6133,-1.6133,-1.6133,-1.6133,-1.6133,-1.6133,-1.6133,-1.6133,-1.6133,-1.5323,-1.4564,-1.2913,-1.0954,-0.8145,-0.5388,-2.8192,-2.8192,-2.8192,-2.8192,-2.8192,-2.8192,-2.6758,-2.499,-2.4819,-2.452,-2.3738,-2.3695,-2.3309,-2.2191,-2.0645,-1.9743,-1.9569,-1.7753,-1.6753,-1.6665,-1.6357,-1.6189,-1.6057,-1.5925,-1.5697,-1.5396,-1.5087,-1.4822,-1.4557,-1.435,-1.436,-1.4421,-1.4577,-1.4726,-1.4869,-1.5004,-1.512,-1.516,-1.5181,-1.5181,-1.5181,-1.5181,-1.5181,-1.5181,-1.5181,-1.5181,-1.5181,-1.5181,-1.5181,-1.5181,-1.5181,-1.5181,-1.5208,-1.5337,-1.5493,-1.5737,-1.5886,-1.6058,-1.6105,-1.6133,-1.6133,-1.6133,-1.6133,-1.6133,-1.6133,-1.6133,-1.6133,-1.6133,-1.6133,-1.6133,-1.6133,-1.6133,-1.6133,-1.6133,-1.6133,-1.6133,-1.6133,-1.6133,-1.6133,-1.6133,-1.6133,-1.6133,-1.6133,-1.6133,-1.6133,-1.6133,-1.6133,-1.6133,-1.6133,-1.6133,-1.6133,-1.6133,-1.6133,-1.6133,-1.6133,-1.6133,-1.6133,-1.6133,-1.6133,-1.6133,-1.6133,-1.6133,-1.6133,-1.6133,-1.6133,-1.6133,-1.6133,-1.6133,-1.5977,-1.5273,-1.4713,-1.3611,-1.1354,-0.7891,-0.5183,-2.8192,-2.8192,-2.8192,-2.8192,-2.8192,-2.8192,-2.8094,-2.8192,-2.7841,-2.7194,-2.5811,-2.5641,-2.4819,-2.3695,-2.2029,-2.0819,-2.0134,-1.8575,-1.7323,-1.7156,-1.6936,-1.6717,-1.6489,-1.6357,-1.6049,-1.5704,-1.5264,-1.4866,-1.4778,-1.452,-1.4306,-1.4306,-1.4455,-1.4604,-1.4726,-1.4916,-1.5045,-1.5113,-1.516,-1.5181,-1.5181,-1.5181,-1.5181,-1.5181,-1.5181,-1.5181,-1.5181,-1.5181,-1.5181,-1.5181,-1.5181,-1.5181,-1.5228,-1.533,-1.5438,-1.5642,-1.5811,-1.5996,-1.6092,-1.6133,-1.6133,-1.6133,-1.6133,-1.6133,-1.6133,-1.6133,-1.6133,-1.6133,-1.6133,-1.6133,-1.6133,-1.6133,-1.6133,-1.6133,-1.6133,-1.6133,-1.6133,-1.6133,-1.6133,-1.6133,-1.6133,-1.6133,-1.6133,-1.6133,-1.6133,-1.6133,-1.6133,-1.6133,-1.6133,-1.6133,-1.6133,-1.6133,-1.6133,-1.6133,-1.6133,-1.6133,-1.6133,-1.6133,-1.6133,-1.6133,-1.6133,-1.6133,-1.6133,-1.6133,-1.6133,-1.6133,-1.6133,-1.6133,-1.6133,-1.5927,-1.5323,-1.4564,-1.1998,-0.8639,-0.5683,-2.8192,-2.8192,-2.8192,-2.8192,-2.8192,-2.8192,-2.8192,-2.8192,-2.8192,-2.7926,-2.7532,-2.7448,-2.7194,-2.6193,-2.4434,-2.3094,-2.1673,-1.9743,-1.8453,-1.7586,-1.72,-1.7024,-1.6841,-1.6577,-1.6357,-1.6005,-1.5477,-1.4822,-1.4557,-1.4387,-1.4306,-1.4312,-1.4428,-1.4529,-1.4597,-1.4808,-1.4957,-1.5045,-1.5166,-1.516,-1.5181,-1.5181,-1.5181,-1.5181,-1.5181,-1.5181,-1.5181,-1.5181,-1.5181,-1.5181,-1.5181,-1.5181,-1.5187,-1.533,-1.5479,-1.5628,-1.5757,-1.59,-1.6064,-1.6119,-1.6133,-1.6133,-1.6133,-1.6133,-1.6133,-1.6133,-1.6133,-1.6133,-1.6133,-1.6133,-1.6133,-1.6133,-1.6133,-1.6133,-1.6133,-1.6133,-1.6133,-1.6133,-1.6133,-1.6133,-1.6133,-1.6133,-1.6133,-1.6133,-1.6133,-1.6133,-1.6133,-1.6133,-1.6133,-1.6133,-1.6133,-1.6133,-1.6133,-1.6133,-1.6133,-1.6133,-1.6133,-1.6133,-1.6133,-1.6133,-1.6133,-1.6133,-1.6133,-1.6133,-1.6133,-1.6133,-1.6133,-1.6133,-1.6133,-1.6133,-1.5877,-1.5118,-1.3611,-1.0645,-0.7437,-2.8192,-2.8192,-2.8192,-2.8192,-2.8192,-2.8192,-2.8192,-2.8192,-2.8192,-2.8192,-2.8192,-2.8192,-2.8192,-2.7926,-2.6236,-2.5075,-2.3352,-2.0992,-1.9613,-1.8497,-1.7543,-1.7112,-1.6928,-1.6841,-1.6577,-1.6225,-1.5433,-1.4778,-1.4431,-1.4299,-1.4306,-1.4312,-1.4394,-1.4455,-1.4516,-1.4699,-1.4848,-1.5017,-1.5105,-1.5166,-1.5167,-1.5181,-1.5181,-1.5181,-1.5181,-1.5181,-1.5181,-1.5181,-1.5181,-1.5181,-1.5181,-1.5181,-1.5194,-1.5255,-1.5377,-1.552,-1.5669,-1.5825,-1.5947,-1.6085,-1.6119,-1.6126,-1.6133,-1.6133,-1.6133,-1.6133,-1.6133,-1.6133,-1.6133,-1.6133,-1.6133,-1.6133,-1.6133,-1.6133,-1.6133,-1.6133,-1.6133,-1.6133,-1.6133,-1.6133,-1.6133,-1.6133,-1.6133,-1.6133,-1.6133,-1.6133,-1.6133,-1.6133,-1.6133,-1.6133,-1.6133,-1.6133,-1.6133,-1.6133,-1.6133,-1.6133,-1.6133,-1.6133,-1.6133,-1.6133,-1.6133,-1.6133,-1.6133,-1.6133,-1.6133,-1.6133,-1.6133,-1.6133,-1.6133,-1.6133,-1.5927,-1.5628,-1.4065,-1.2608,-0.9995,-2.8192,-2.8192,-2.8192,-2.8192,-2.8192,-2.8192,-2.8192,-2.8192,-2.8192,-2.8192,-2.8192,-2.8192,-2.8192,-2.7575,-2.6673,-2.5939,-2.4691,-2.2675,-2.1122,-1.983,-1.841,-1.8147,-1.7674,-1.7148,-1.6665,-1.6137,-1.5484,-1.4955,-1.4513,-1.4387,-1.4299,-1.4299,-1.4326,-1.436,-1.4455,-1.4543,-1.4652,-1.4855,-1.4984,-1.5112,-1.5173,-1.5181,-1.5181,-1.5181,-1.5181,-1.5181,-1.5181,-1.5181,-1.5181,-1.5181,-1.5181,-1.5181,-1.5181,-1.5208,-1.5303,-1.5432,-1.5492,-1.5696,-1.5894,-1.6017,-1.6078,-1.6069,-1.6126,-1.6133,-1.6133,-1.6133,-1.6133,-1.6133,-1.6133,-1.6133,-1.6133,-1.6133,-1.6133,-1.6133,-1.6133,-1.6133,-1.6133,-1.6133,-1.6133,-1.6133,-1.6133,-1.6133,-1.6133,-1.6133,-1.6133,-1.6133,-1.6133,-1.6133,-1.6133,-1.6133,-1.6133,-1.6133,-1.6133,-1.6133,-1.6133,-1.6133,-1.6133,-1.6133,-1.6133,-1.6133,-1.6133,-1.6133,-1.6133,-1.6133,-1.6133,-1.6133,-1.6133,-1.6133,-1.6133,-1.6133,-1.6026,-1.5877,-1.5373,-1.3966,-1.2508,-2.8192,-2.8192,-2.8192,-2.8192,-2.8192,-2.8192,-2.8192,-2.8192,-2.8192,-2.8192,-2.8192,-2.8192,-2.8192,-2.8192,-2.7968,-2.7152,-2.5683,-2.4092,-2.3137,-2.1975,-2.0221,-1.9569,-1.8663,-1.7315,-1.6401,-1.5925,-1.5616,-1.5308,-1.4734,-1.4476,-1.4299,-1.4299,-1.4299,-1.4319,-1.4346,-1.4441,-1.4584,-1.476,-1.4916,-1.5011,-1.5173,-1.5221,-1.5181,-1.5181,-1.5181,-1.5181,-1.5181,-1.5181,-1.5181,-1.5181,-1.5181,-1.5181,-1.5181,-1.5187,-1.5262,-1.5343,-1.5452,-1.5588,-1.5744,-1.5922,-1.5996,-1.6042,-1.6105,-1.6133,-1.6133,-1.6133,-1.6133,-1.6133,-1.6133,-1.6133,-1.6133,-1.6133,-1.6133,-1.6133,-1.6133,-1.6133,-1.6133,-1.6133,-1.6133,-1.6133,-1.6133,-1.6133,-1.6133,-1.6133,-1.6133,-1.6133,-1.6133,-1.6133,-1.6133,-1.6133,-1.6133,-1.6133,-1.6133,-1.6133,-1.6133,-1.6133,-1.6133,-1.6133,-1.6133,-1.6133,-1.6133,-1.6133,-1.6133,-1.6133,-1.6133,-1.6133,-1.6133,-1.6133,-1.6133,-1.6133,-1.6133,-1.5977,-1.5778,-1.5273,-1.3816]},{"header":{"parameterUnit":"m.s-1","parameterCategory":1,"la1":31.0,"la2":29.5877,"lo1":-88.7671,"lo2":-86.6584,"dy":0.0162,"dx":0.0185,"nx":115,"ny":88,"refTime":"2023-10-19T06:00:00:Z","depth":0,"parameterNumber":3,"parameterNumberName":"V-component_of_WINDS"},"data":[0.0,0.0,0.0,0.0,0.0,0.0,0.0,0.0,0.0,0.0,0.0,0.0,0.0,0.0,0.0,0.0,0.0,0.0,0.0,0.0,0.0,0.0,0.0,0.0,0.0,0.0,0.0,0.0,0.0,0.0,0.0,0.0,0.0,0.0,0.0,0.0,0.0,0.0,0.0,0.0,0.0,0.0,0.0,0.0,0.0,0.0,0.0,0.0,0.0,0.0,0.0,0.0,0.0,0.0,0.0,0.0,0.0,0.0,0.0,0.0,0.0,0.0,0.0,0.0,0.0,0.0,0.0,0.0,0.0,0.0,0.0,0.0,0.0,0.0,0.0,0.0,0.0,0.0,0.0,0.0,0.0,0.0,0.0,0.0,0.0,0.0,0.0,0.0,0.0,0.0,0.0,0.0,0.0,0.0,0.0,0.0,0.0,0.0,0.0,0.0,0.0,0.0,0.0,0.0,0.0,0.0,0.0,0.0,0.0,0.0,0.0,0.0,0.0,0.0,0.0,0.0,0.0,0.0,0.0,0.0,0.0,0.0,0.0,0.0,0.0,0.0,0.0,0.0,0.0,0.0,0.0,0.0,0.0,0.0,0.0,0.0,0.0,0.0,0.0,0.0,0.0,0.0,0.0,0.0,0.0,0.0,0.0,0.0,0.0,0.0,0.0,0.0,0.0,0.0,0.0,0.0,0.0,0.0,0.0,0.0,0.0,0.0,0.0,0.0,0.0,0.0,0.0,0.0,0.0,0.0,0.0,0.0,0.0,0.0,0.0,0.0,0.0,0.0,0.0,0.0,0.0,0.0,0.0,0.0,0.0,0.0,0.0,0.0,0.0,0.0,0.0,0.0,0.0,0.0,0.0,0.0,0.0,0.0,0.0,0.0,0.0,0.0,0.0,0.0,0.0,0.0,0.0,0.0,0.0,0.0,0.0,0.0,0.0,0.0,0.0,0.0,0.0,0.0,0.0,0.0,0.0,0.0,0.0,0.0,0.0,0.0,0.0,0.0,0.0,0.0,0.0,0.0,0.0,0.0,0.0,0.0,0.0,0.0,0.0,0.0,0.0,0.0,0.0,0.0,0.0,0.0,0.0,0.0,0.0,0.0,0.0,0.0,0.0,0.0,0.0,0.0,0.0,0.0,0.0,0.0,0.0,0.0,0.0,0.0,0.0,0.0,0.0,0.0,0.0,0.0,0.0,0.0,0.0,0.0,0.0,0.0,0.0,0.0,0.0,0.0,0.0,0.0,0.0,0.0,0.0,0.0,0.0,0.0,0.0,0.0,0.0,0.0,0.0,0.0,0.0,0.0,0.0,0.0,0.0,0.0,0.0,0.0,0.0,0.0,0.0,0.0,0.0,0.0,0.0,0.0,0.0,0.0,0.0,0.0,0.0,0.0,0.0,0.0,0.0,0.0,0.0,0.0,0.0,0.0,0.0,0.0,0.0,0.0,0.0,0.0,0.0,0.0,0.0,0.0,0.0,0.0,0.0,0.0,0.0,0.0,0.0,0.0,0.0,0.0,0.0,0.0,0.0,0.0,0.0,0.0,0.0,0.0,0.0,0.0,0.0,0.0,0.0,0.0,0.0,0.0,0.0,0.0,0.0,0.0,0.0,0.0,0.0,0.0,0.0,0.0,0.0,0.0,0.0,0.0,0.0,0.0,0.0,0.0,0.0,0.0,0.0,0.0,0.0,0.0,0.0,0.0,0.0,0.0,0.0,0.0,0.0,0.0,0.0,0.0,0.0,0.0,0.0,0.0,0.0,0.0,0.0,0.0,0.0,0.0,0.0,0.0,0.0,0.0,0.0,0.0,0.0,0.0,0.0,0.0,0.0,0.0,0.0,0.0,0.0,0.0,0.0,0.0,0.0,0.0,0.0,0.0,0.0,0.0,0.0,0.0,0.0,0.0,0.0,0.0,0.0,0.0,0.0,0.0,0.0,0.0,0.0,0.0,0.0,0.0,0.0,0.0,0.0,0.0,0.0,0.0,0.0,0.0,0.0,0.0,0.0,0.0,0.0,0.0,0.0,0.0,0.0,0.0,0.0,0.0,0.0,0.0,0.0,0.0,0.0,0.0,0.0,0.0,0.0,0.0,0.0,0.0,0.0,0.0,0.0,0.0,0.0,0.0,0.0,0.0,0.0,0.0,0.0,0.0,0.0,0.0,0.0,0.0,0.0,0.0,0.0,0.0,0.0,0.0,0.0,0.0,0.0,0.0,0.0,0.0,0.0,0.0,0.0,0.0,0.0,0.0,0.0,0.0,0.0,0.0,0.0,0.0,0.0,0.0,0.0,0.0,0.0,0.0,0.0,0.0,0.0,0.0,0.0,0.0,0.0,0.0,0.0,0.0,0.0,0.0,0.0,0.0,0.0,0.0,0.0,0.0,0.0,0.0,0.0,0.0,0.0,0.0,0.0,0.0,0.0,0.0,0.0,0.0,0.0,0.0,0.0,0.0,0.0,0.0,0.0,0.0,0.0,0.0,0.0,0.0,0.0,0.0,0.0,0.0,0.0,0.0,0.0,0.0,0.0,0.0,0.0,0.0,0.0,0.0,0.0,0.0,0.0,0.0,0.0,0.0,0.0,0.0,0.0,0.0,0.0,0.0,0.0,0.0,0.0,0.0,0.0,0.0,0.0,0.0,0.0,0.0,0.0,0.0,0.0,0.0,0.0,0.0,0.0,0.0,0.0,0.0,0.0,0.0,0.0,0.0,0.0,0.0,0.0,0.0,0.0,0.0,0.0,0.0,0.0,0.0,0.0,0.0,0.0,0.0,0.0,0.0,0.0,0.0,0.0,0.0,0.0,0.0,0.0,0.0,0.0,0.0,0.0,0.0,0.0,0.0,0.0,0.0,0.0,0.0,0.0,0.0,0.0,0.0,0.0,0.0,0.0,0.0,0.0,0.0,0.0,0.0,0.0,0.0,0.0,0.0,0.0,0.0,0.0,0.0,0.0,0.0,0.0,0.0,0.0,0.0,0.0,0.0,0.0,0.0,0.0,0.0,0.0,0.0,0.0,0.0,0.0,0.0,0.0,0.0,0.0,0.0,0.0,0.0,0.0,0.0,0.0,0.0,0.0,0.0,0.0,0.0,0.0,0.0,0.0,0.0,0.0,0.0,0.0,0.0,0.0,0.0,0.0,0.0,0.0,0.0,0.0,0.0,0.0,0.0,0.0,0.0,0.0,0.0,0.0,0.0,0.0,0.0,0.0,0.0,0.0,0.0,0.0,0.0,0.0,0.0,0.0,0.0,0.0,0.0,0.0,0.0,0.0,0.0,0.0,0.0,0.0,0.0,0.0,0.0,0.0,0.0,0.0,0.0,0.0,0.0,0.0,0.0,0.0,0.0,0.0,0.0,0.0,0.0,0.0,0.0,0.0,0.0,0.0,0.0,0.0,0.0,0.0,0.0,0.0,0.0,0.0,0.0,0.0,0.0,0.0,0.0,0.0,0.0,0.0,0.0,0.0,0.0,0.0,0.0,0.0,0.0,0.0,0.0,0.0,0.0,0.0,0.0,0.0,0.0,0.0,0.0,0.0,0.0,0.0,0.0,0.0,0.0,0.0,0.0,0.0,0.0,0.0,0.0,0.0,0.0,0.0,0.0,0.0,0.0,0.0,0.0,0.0,0.0,0.0,0.0,0.0,0.0,0.0,0.0,0.0,0.0,0.0,0.0,0.0,0.0,0.0,0.0,0.0,0.0,0.0,0.0,0.0,0.0,0.0,0.0,0.0,0.0,0.0,0.0,0.0,0.0,0.0,0.0,0.0,0.0,0.0,0.0,0.0,0.0,0.0,0.0,0.0,0.0,0.0,0.0,0.0,0.0,0.0,0.0,0.0,0.0,0.0,0.0,0.0,0.0,0.0,0.0,0.0,0.0,0.0,0.0,0.0,0.0,0.0,0.0,0.0,0.0,0.0,0.0,0.0,0.0,0.0,0.0,0.0,0.0,0.0,0.0,0.0,0.0,0.0,0.0,0.0,0.0,0.0,0.0,0.0,0.0,0.0,0.0,0.0,0.0,0.0,0.0,0.0,0.0,0.0,0.0,0.0,0.0,0.0,0.0,0.0,0.0,0.0,0.0,0.0,0.0,0.0,0.0,0.0,0.0,0.0,0.0,0.0,0.0,0.0,0.0,0.0,0.0,0.0,0.0,0.0,0.0,0.0,0.0,0.0,0.0,0.0,0.0,0.0,0.0,0.0,0.0,0.0,0.0,0.0,0.0,0.0,0.0,0.0,0.0,0.0,0.0,0.0,0.0,0.0,0.0,4.7315,0.0,0.0,0.0,0.0,0.0,0.0,0.0,0.0,0.0,0.0,0.0,0.0,0.0,0.0,0.0,0.0,0.0,0.0,0.0,0.0,0.0,0.0,0.0,0.0,0.0,0.0,0.0,0.0,0.0,0.0,0.0,0.0,0.0,0.0,0.0,0.0,0.0,0.0,0.0,0.0,0.0,0.0,0.0,0.0,0.0,0.0,0.0,0.0,0.0,0.0,0.0,0.0,0.0,0.0,0.0,0.0,0.0,0.0,0.0,0.0,0.0,0.0,0.0,0.0,0.0,0.0,0.0,0.0,0.0,0.0,0.0,0.0,0.0,0.0,0.0,0.0,0.0,0.0,0.0,0.0,0.0,0.0,0.0,0.0,0.0,0.0,0.0,0.0,0.0,0.0,0.0,0.0,0.0,0.0,0.0,0.0,0.0,0.0,0.0,0.0,0.0,0.0,0.0,0.0,0.0,0.0,0.0,0.0,0.0,0.0,4.6232,4.6696,4.7082,4.7742,4.868,0.0,0.0,0.0,0.0,0.0,0.0,0.0,0.0,0.0,0.0,0.0,0.0,0.0,0.0,0.0,0.0,0.0,0.0,0.0,0.0,0.0,0.0,0.0,0.0,0.0,0.0,0.0,0.0,0.0,0.0,0.0,0.0,0.0,0.0,0.0,0.0,0.0,0.0,0.0,0.0,0.0,0.0,0.0,0.0,0.0,0.0,0.0,0.0,0.0,0.0,0.0,0.0,0.0,0.0,0.0,0.0,0.0,0.0,0.0,0.0,0.0,0.0,0.0,0.0,0.0,0.0,0.0,0.0,0.0,0.0,0.0,0.0,0.0,0.0,0.0,0.0,0.0,0.0,0.0,0.0,0.0,0.0,0.0,0.0,0.0,0.0,0.0,0.0,0.0,0.0,0.0,0.0,0.0,0.0,0.0,0.0,0.0,0.0,0.0,0.0,0.0,0.0,0.0,0.0,0.0,0.0,0.0,0.0,0.0,0.0,0.0,0.0,4.7781,4.8638,5.0117,0.0,0.0,0.0,0.0,0.0,0.0,0.0,0.0,0.0,0.0,0.0,0.0,0.0,0.0,0.0,0.0,0.0,0.0,0.0,0.0,0.0,0.0,0.0,0.0,0.0,0.0,0.0,0.0,0.0,0.0,0.0,0.0,0.0,0.0,0.0,0.0,0.0,0.0,0.0,0.0,0.0,0.0,0.0,0.0,0.0,0.0,0.0,0.0,0.0,0.0,0.0,0.0,0.0,0.0,0.0,0.0,0.0,0.0,0.0,0.0,0.0,0.0,0.0,0.0,0.0,0.0,0.0,0.0,0.0,0.0,0.0,0.0,0.0,0.0,0.0,0.0,0.0,0.0,0.0,0.0,0.0,0.0,0.0,0.0,0.0,0.0,0.0,0.0,0.0,0.0,0.0,0.0,0.0,0.0,0.0,0.0,0.0,0.0,0.0,0.0,0.0,0.0,0.0,0.0,0.0,0.0,0.0,0.0,0.0,0.0,4.8405,4.8483,4.9263,0.0,5.1008,0.0,0.0,0.0,0.0,0.0,0.0,0.0,0.0,0.0,0.0,0.0,0.0,0.0,0.0,0.0,0.0,0.0,0.0,0.0,0.0,0.0,0.0,0.0,0.0,0.0,0.0,0.0,0.0,0.0,0.0,0.0,0.0,0.0,0.0,0.0,0.0,0.0,0.0,0.0,0.0,0.0,0.0,0.0,0.0,0.0,0.0,0.0,0.0,0.0,0.0,0.0,0.0,0.0,0.0,0.0,0.0,0.0,0.0,0.0,0.0,0.0,0.0,0.0,0.0,0.0,0.0,0.0,0.0,0.0,0.0,0.0,0.0,0.0,0.0,0.0,0.0,0.0,0.0,0.0,0.0,0.0,0.0,0.0,0.0,0.0,0.0,0.0,0.0,0.0,0.0,0.0,0.0,0.0,0.0,0.0,0.0,0.0,0.0,0.0,0.0,0.0,0.0,0.0,0.0,0.0,0.0,0.0,0.0,0.0,0.0,4.8871,4.9379,5.0234,5.0814,0.0,0.0,0.0,0.0,0.0,0.0,0.0,0.0,0.0,0.0,0.0,0.0,0.0,0.0,0.0,0.0,0.0,0.0,0.0,0.0,0.0,0.0,0.0,0.0,0.0,0.0,0.0,0.0,0.0,0.0,0.0,0.0,0.0,0.0,0.0,0.0,0.0,0.0,0.0,0.0,0.0,0.0,0.0,0.0,0.0,0.0,0.0,0.0,0.0,0.0,0.0,0.0,0.0,0.0,0.0,0.0,0.0,0.0,0.0,0.0,0.0,0.0,0.0,0.0,0.0,0.0,0.0,0.0,0.0,0.0,0.0,0.0,0.0,0.0,0.0,0.0,0.0,0.0,0.0,0.0,0.0,0.0,0.0,0.0,0.0,0.0,0.0,0.0,0.0,0.0,0.0,0.0,0.0,0.0,0.0,0.0,0.0,0.0,0.0,0.0,0.0,0.0,0.0,0.0,0.0,0.0,0.0,0.0,0.0,0.0,4.9299,4.9612,5.0234,5.0891,5.1199,5.1199,0.0,0.0,0.0,0.0,0.0,0.0,0.0,0.0,0.0,0.0,0.0,0.0,0.0,0.0,0.0,0.0,0.0,0.0,0.0,0.0,0.0,0.0,0.0,0.0,0.0,0.0,0.0,0.0,0.0,0.0,0.0,0.0,0.0,0.0,0.0,0.0,0.0,0.0,0.0,0.0,0.0,0.0,0.0,0.0,0.0,0.0,0.0,0.0,0.0,0.0,0.0,0.0,0.0,0.0,0.0,0.0,0.0,0.0,0.0,0.0,0.0,0.0,0.0,0.0,0.0,0.0,0.0,0.0,0.0,0.0,0.0,0.0,0.0,0.0,0.0,0.0,0.0,0.0,0.0,0.0,0.0,0.0,0.0,0.0,0.0,0.0,0.0,0.0,0.0,0.0,0.0,0.0,0.0,0.0,0.0,0.0,0.0,0.0,0.0,0.0,0.0,0.0,0.0,0.0,0.0,0.0,0.0,0.0,5.1005,5.1044,5.1083,5.1125,5.1199,5.1199,0.0,0.0,0.0,0.0,0.0,0.0,0.0,0.0,0.0,0.0,0.0,0.0,0.0,0.0,0.0,0.0,0.0,0.0,0.0,0.0,0.0,0.0,0.0,0.0,0.0,0.0,0.0,0.0,0.0,0.0,0.0,0.0,0.0,0.0,0.0,0.0,0.0,0.0,0.0,0.0,0.0,0.0,0.0,0.0,0.0,0.0,0.0,0.0,0.0,0.0,0.0,0.0,0.0,0.0,0.0,0.0,0.0,0.0,0.0,0.0,0.0,0.0,0.0,0.0,0.0,0.0,0.0,0.0,0.0,0.0,0.0,0.0,0.0,0.0,0.0,0.0,0.0,0.0,0.0,0.0,0.0,0.0,0.0,0.0,0.0,0.0,0.0,0.0,0.0,0.0,0.0,0.0,0.0,0.0,0.0,0.0,0.0,0.0,0.0,0.0,0.0,0.0,0.0,0.0,0.0,0.0,0.0,0.0,0.0,5.1199,5.1199,5.1199,5.1199,5.1199,5.1199,0.0,0.0,0.0,0.0,0.0,0.0,0.0,0.0,0.0,0.0,0.0,0.0,0.0,0.0,0.0,0.0,0.0,0.0,0.0,0.0,0.0,0.0,0.0,0.0,0.0,0.0,0.0,0.0,0.0,0.0,0.0,0.0,0.0,0.0,0.0,0.0,0.0,0.0,0.0,0.0,0.0,0.0,0.0,0.0,0.0,0.0,0.0,0.0,0.0,0.0,0.0,0.0,0.0,0.0,0.0,0.0,0.0,0.0,0.0,0.0,0.0,0.0,0.0,0.0,0.0,0.0,0.0,0.0,0.0,0.0,0.0,0.0,0.0,0.0,0.0,0.0,0.0,0.0,0.0,0.0,0.0,0.0,0.0,0.0,0.0,0.0,0.0,0.0,0.0,0.0,0.0,0.0,0.0,0.0,0.0,0.0,0.0,0.0,0.0,0.0,0.0,0.0,0.0,0.0,0.0,0.0,0.0,0.0,0.0,5.1199,0.0,5.1199,5.1199,5.1199,5.1199,0.0,0.0,0.0,0.0,0.0,0.0,0.0,0.0,0.0,0.0,0.0,0.0,0.0,0.0,0.0,0.0,0.0,0.0,0.0,0.0,0.0,0.0,0.0,0.0,0.0,0.0,0.0,0.0,0.0,0.0,0.0,0.0,0.0,0.0,0.0,0.0,0.0,0.0,0.0,0.0,0.0,0.0,0.0,0.0,0.0,0.0,0.0,0.0,0.0,0.0,0.0,0.0,0.0,0.0,0.0,0.0,0.0,0.0,0.0,0.0,0.0,0.0,0.0,0.0,0.0,0.0,0.0,0.0,0.0,0.0,0.0,0.0,0.0,0.0,0.0,0.0,0.0,0.0,0.0,0.0,0.0,0.0,0.0,0.0,0.0,0.0,0.0,0.0,0.0,0.0,0.0,0.0,0.0,0.0,0.0,0.0,0.0,0.0,0.0,0.0,0.0,0.0,0.0,0.0,0.0,0.0,0.0,0.0,5.1199,5.1202,5.1202,5.1205,5.1202,5.1202,5.1202,0.0,0.0,0.0,0.0,0.0,0.0,0.0,0.0,0.0,0.0,0.0,0.0,0.0,0.0,0.0,0.0,0.0,0.0,0.0,0.0,0.0,0.0,0.0,0.0,0.0,0.0,0.0,0.0,0.0,0.0,0.0,0.0,0.0,0.0,0.0,0.0,0.0,0.0,0.0,0.0,0.0,0.0,0.0,0.0,0.0,0.0,0.0,0.0,0.0,0.0,0.0,0.0,0.0,0.0,0.0,0.0,0.0,0.0,0.0,0.0,0.0,0.0,0.0,0.0,0.0,0.0,0.0,0.0,0.0,0.0,0.0,0.0,0.0,0.0,0.0,0.0,0.0,0.0,0.0,0.0,0.0,0.0,0.0,0.0,0.0,0.0,0.0,0.0,0.0,0.0,0.0,0.0,0.0,0.0,0.0,0.0,0.0,0.0,0.0,0.0,0.0,0.0,0.0,0.0,0.0,0.0,0.0,0.0,0.0,5.1222,5.1222,5.1224,5.1224,5.1222,5.1486,0.0,0.0,0.0,0.0,0.0,0.0,0.0,0.0,0.0,0.0,0.0,0.0,0.0,0.0,0.0,0.0,0.0,0.0,0.0,0.0,0.0,0.0,0.0,0.0,0.0,0.0,0.0,0.0,0.0,0.0,0.0,0.0,0.0,0.0,0.0,0.0,0.0,0.0,0.0,0.0,0.0,0.0,0.0,0.0,0.0,0.0,0.0,0.0,0.0,0.0,0.0,0.0,0.0,0.0,0.0,0.0,0.0,0.0,0.0,0.0,0.0,0.0,0.0,0.0,0.0,0.0,0.0,0.0,0.0,0.0,0.0,0.0,0.0,0.0,0.0,0.0,0.0,0.0,0.0,0.0,0.0,0.0,0.0,0.0,0.0,0.0,0.0,0.0,0.0,0.0,0.0,0.0,0.0,0.0,0.0,0.0,0.0,0.0,0.0,0.0,0.0,0.0,0.0,0.0,0.0,0.0,0.0,0.0,0.0,5.221,5.22,5.2166,5.2166,5.2166,5.243,5.2955,0.0,0.0,0.0,0.0,0.0,0.0,0.0,0.0,0.0,0.0,0.0,0.0,0.0,0.0,0.0,0.0,0.0,0.0,0.0,0.0,0.0,0.0,0.0,0.0,0.0,0.0,0.0,0.0,0.0,0.0,0.0,0.0,0.0,0.0,0.0,0.0,0.0,0.0,0.0,0.0,0.0,0.0,0.0,0.0,0.0,0.0,0.0,0.0,0.0,0.0,0.0,0.0,0.0,0.0,0.0,0.0,0.0,0.0,0.0,0.0,0.0,0.0,0.0,0.0,0.0,0.0,0.0,0.0,0.0,0.0,0.0,0.0,0.0,0.0,0.0,0.0,0.0,0.0,0.0,0.0,0.0,0.0,0.0,0.0,0.0,0.0,0.0,0.0,0.0,0.0,0.0,0.0,0.0,0.0,0.0,0.0,0.0,0.0,0.0,0.0,0.0,0.0,0.0,0.0,0.0,0.0,0.0,0.0,5.4046,5.398,5.3902,5.3789,5.3752,5.3825,0.0,0.0,0.0,0.0,0.0,0.0,0.0,0.0,0.0,0.0,0.0,0.0,0.0,0.0,0.0,0.0,0.0,0.0,0.0,0.0,0.0,0.0,0.0,0.0,0.0,0.0,0.0,0.0,0.0,0.0,0.0,0.0,0.0,0.0,0.0,0.0,0.0,0.0,0.0,0.0,0.0,0.0,0.0,0.0,0.0,0.0,0.0,0.0,0.0,0.0,0.0,0.0,0.0,0.0,0.0,0.0,0.0,0.0,0.0,0.0,0.0,0.0,0.0,0.0,0.0,0.0,0.0,0.0,0.0,0.0,0.0,0.0,0.0,0.0,0.0,0.0,0.0,0.0,0.0,0.0,0.0,0.0,0.0,0.0,0.0,0.0,0.0,0.0,0.0,0.0,0.0,0.0,0.0,0.0,0.0,0.0,0.0,0.0,0.0,0.0,0.0,0.0,0.0,0.0,0.0,0.0,0.0,0.0,0.0,5.5723,5.5721,5.5106,5.3952,5.3852,5.4136,0.0,0.0,0.0,0.0,0.0,0.0,0.0,0.0,0.0,0.0,0.0,0.0,0.0,0.0,0.0,0.0,0.0,0.0,0.0,0.0,0.0,0.0,0.0,0.0,0.0,0.0,0.0,0.0,0.0,0.0,0.0,0.0,0.0,0.0,0.0,0.0,0.0,0.0,0.0,0.0,0.0,0.0,0.0,0.0,0.0,0.0,0.0,0.0,0.0,0.0,0.0,0.0,0.0,0.0,0.0,0.0,0.0,0.0,0.0,0.0,0.0,0.0,0.0,0.0,0.0,0.0,0.0,0.0,0.0,0.0,0.0,0.0,0.0,0.0,0.0,0.0,0.0,0.0,0.0,0.0,0.0,0.0,0.0,0.0,0.0,0.0,0.0,0.0,0.0,0.0,0.0,0.0,0.0,0.0,0.0,0.0,0.0,0.0,0.0,0.0,0.0,0.0,0.0,0.0,0.0,0.0,0.0,0.0,5.5911,5.6426,5.6441,5.5983,5.5015,5.4999,5.5183,0.0,0.0,0.0,0.0,0.0,0.0,0.0,0.0,0.0,0.0,0.0,0.0,0.0,0.0,0.0,0.0,0.0,0.0,0.0,0.0,0.0,0.0,0.0,0.0,0.0,0.0,0.0,0.0,0.0,0.0,0.0,0.0,0.0,0.0,0.0,0.0,0.0,0.0,0.0,0.0,0.0,0.0,0.0,0.0,0.0,0.0,0.0,0.0,0.0,0.0,0.0,0.0,0.0,0.0,0.0,0.0,0.0,0.0,0.0,0.0,0.0,0.0,0.0,0.0,0.0,0.0,0.0,0.0,0.0,0.0,0.0,0.0,0.0,0.0,0.0,0.0,0.0,0.0,0.0,0.0,0.0,0.0,0.0,0.0,0.0,0.0,0.0,0.0,0.0,0.0,0.0,0.0,0.0,0.0,0.0,0.0,0.0,0.0,0.0,0.0,0.0,0.0,0.0,0.0,0.0,0.0,0.0,0.0,5.6694,5.6797,5.6758,5.6758,5.6757,5.658,5.648,0.0,0.0,0.0,0.0,0.0,0.0,0.0,0.0,0.0,0.0,0.0,0.0,0.0,0.0,0.0,0.0,0.0,0.0,0.0,0.0,0.0,0.0,0.0,0.0,0.0,0.0,0.0,0.0,0.0,0.0,0.0,0.0,0.0,0.0,0.0,0.0,0.0,0.0,0.0,0.0,0.0,0.0,0.0,0.0,0.0,0.0,0.0,0.0,0.0,0.0,0.0,0.0,0.0,0.0,0.0,0.0,0.0,0.0,0.0,0.0,0.0,0.0,0.0,0.0,0.0,0.0,0.0,0.0,0.0,0.0,0.0,0.0,0.0,0.0,0.0,0.0,0.0,0.0,0.0,0.0,0.0,0.0,0.0,0.0,0.0,0.0,0.0,0.0,0.0,0.0,0.0,0.0,0.0,0.0,0.0,0.0,0.0,0.0,0.0,0.0,0.0,0.0,0.0,0.0,0.0,0.0,0.0,0.0,5.7868,5.8511,5.8554,5.8553,5.8458,5.7176,5.6458,0.0,0.0,0.0,0.0,0.0,0.0,0.0,0.0,0.0,0.0,0.0,0.0,0.0,0.0,0.0,0.0,0.0,0.0,0.0,0.0,0.0,0.0,0.0,0.0,0.0,0.0,0.0,0.0,0.0,0.0,0.0,0.0,0.0,0.0,0.0,0.0,0.0,0.0,0.0,0.0,0.0,0.0,0.0,0.0,0.0,0.0,0.0,0.0,5.6036,0.0,0.0,0.0,0.0,0.0,0.0,0.0,0.0,0.0,0.0,0.0,0.0,0.0,0.0,0.0,0.0,0.0,0.0,0.0,0.0,0.0,0.0,0.0,0.0,0.0,0.0,0.0,0.0,0.0,0.0,0.0,0.0,0.0,0.0,0.0,0.0,0.0,0.0,0.0,0.0,0.0,0.0,0.0,0.0,0.0,0.0,0.0,0.0,0.0,0.0,0.0,0.0,0.0,0.0,0.0,0.0,0.0,0.0,0.0,5.8241,5.9062,5.9096,5.9097,5.9023,5.8164,5.7496,0.0,0.0,0.0,0.0,0.0,0.0,0.0,0.0,0.0,0.0,0.0,0.0,0.0,0.0,0.0,0.0,0.0,0.0,0.0,0.0,0.0,0.0,0.0,0.0,0.0,0.0,0.0,0.0,0.0,0.0,0.0,0.0,0.0,0.0,0.0,0.0,0.0,0.0,0.0,0.0,0.0,0.0,0.0,0.0,0.0,0.0,0.0,0.0,0.0,0.0,0.0,0.0,0.0,0.0,0.0,0.0,0.0,0.0,0.0,0.0,0.0,0.0,0.0,0.0,0.0,0.0,0.0,0.0,0.0,0.0,0.0,0.0,0.0,0.0,0.0,0.0,0.0,0.0,0.0,0.0,0.0,0.0,0.0,0.0,0.0,0.0,0.0,0.0,0.0,0.0,0.0,0.0,0.0,0.0,0.0,0.0,0.0,0.0,0.0,0.0,0.0,0.0,0.0,0.0,0.0,0.0,0.0,5.8041,5.8345,5.9078,5.9225,5.9299,5.9299,5.9434,5.9062,5.8171,0.0,0.0,0.0,0.0,0.0,0.0,0.0,0.0,0.0,0.0,0.0,0.0,0.0,0.0,0.0,0.0,0.0,0.0,0.0,0.0,0.0,0.0,0.0,0.0,0.0,0.0,0.0,0.0,0.0,0.0,0.0,0.0,0.0,0.0,0.0,0.0,0.0,0.0,5.5496,5.6129,0.0,0.0,0.0,0.0,0.0,0.0,0.0,0.0,5.6761,0.0,0.0,0.0,0.0,0.0,0.0,0.0,0.0,0.0,0.0,0.0,0.0,0.0,0.0,0.0,0.0,0.0,0.0,0.0,0.0,0.0,0.0,0.0,0.0,0.0,0.0,0.0,0.0,0.0,0.0,0.0,0.0,0.0,0.0,0.0,0.0,0.0,0.0,0.0,0.0,0.0,0.0,0.0,0.0,0.0,0.0,0.0,0.0,0.0,0.0,0.0,0.0,0.0,0.0,0.0,0.0,5.8899,5.8891,5.8961,5.9107,5.9808,6.0198,6.0198,6.0874,6.0852,5.996,0.0,0.0,0.0,0.0,0.0,0.0,0.0,0.0,0.0,0.0,0.0,0.0,0.0,0.0,0.0,0.0,0.0,0.0,0.0,0.0,0.0,0.0,0.0,0.0,0.0,0.0,0.0,0.0,0.0,0.0,0.0,0.0,0.0,0.0,0.0,0.0,0.0,0.0,0.0,5.6521,5.6596,0.0,0.0,0.0,0.0,0.0,0.0,0.0,0.0,5.7621,0.0,0.0,0.0,0.0,0.0,0.0,0.0,0.0,0.0,0.0,0.0,0.0,0.0,0.0,0.0,0.0,0.0,0.0,0.0,0.0,0.0,0.0,0.0,0.0,0.0,0.0,0.0,0.0,0.0,0.0,0.0,0.0,0.0,0.0,0.0,0.0,0.0,0.0,0.0,0.0,0.0,0.0,0.0,0.0,0.0,0.0,0.0,0.0,0.0,0.0,0.0,0.0,0.0,0.0,0.0,5.9047,5.8648,5.864,5.9103,5.9494,5.9728,5.9768,6.056,6.0613,0.0,0.0,0.0,0.0,0.0,0.0,0.0,0.0,0.0,0.0,0.0,0.0,0.0,0.0,0.0,0.0,0.0,0.0,0.0,0.0,0.0,0.0,0.0,0.0,0.0,0.0,0.0,0.0,0.0,0.0,0.0,0.0,0.0,0.0,0.0,0.0,0.0,0.0,0.0,0.0,5.6941,5.7211,5.7207,0.0,0.0,0.0,0.0,0.0,0.0,5.7543,5.766,0.0,0.0,0.0,0.0,0.0,0.0,0.0,0.0,0.0,0.0,0.0,0.0,0.0,0.0,0.0,0.0,0.0,0.0,0.0,0.0,0.0,0.0,0.0,0.0,0.0,0.0,0.0,0.0,0.0,0.0,0.0,0.0,0.0,0.0,0.0,0.0,0.0,0.0,0.0,0.0,0.0,0.0,0.0,0.0,0.0,0.0,0.0,0.0,0.0,0.0,0.0,0.0,0.0,0.0,0.0,5.9312,5.8679,5.8558,5.9064,5.9259,5.9338,5.9377,6.0208,6.0338,0.0,0.0,0.0,0.0,0.0,0.0,0.0,0.0,0.0,0.0,0.0,0.0,0.0,0.0,0.0,0.0,0.0,0.0,0.0,0.0,0.0,0.0,0.0,0.0,0.0,0.0,0.0,0.0,0.0,0.0,0.0,0.0,0.0,0.0,0.0,0.0,0.0,0.0,0.0,0.0,0.0,5.7787,5.7818,5.7933,0.0,0.0,0.0,0.0,5.7465,5.7894,0.0,0.0,0.0,0.0,0.0,0.0,0.0,0.0,0.0,0.0,0.0,0.0,0.0,0.0,0.0,0.0,0.0,0.0,0.0,0.0,0.0,0.0,0.0,0.0,0.0,0.0,0.0,0.0,0.0,0.0,0.0,0.0,0.0,0.0,0.0,0.0,0.0,0.0,0.0,0.0,0.0,0.0,0.0,0.0,0.0,0.0,0.0,0.0,0.0,0.0,0.0,0.0,0.0,0.0,0.0,0.0,6.0239,6.016,5.9767,5.9181,5.9846,6.0237,6.0276,6.1107,6.1511,0.0,0.0,0.0,0.0,0.0,0.0,0.0,0.0,0.0,0.0,0.0,0.0,0.0,0.0,0.0,0.0,0.0,0.0,0.0,0.0,0.0,0.0,0.0,0.0,0.0,0.0,0.0,0.0,0.0,0.0,0.0,0.0,0.0,0.0,0.0,0.0,0.0,0.0,0.0,0.0,0.0,5.7818,5.7817,5.848,5.8947,0.0,0.0,6.008,5.9963,6.0041,0.0,0.0,0.0,0.0,0.0,0.0,0.0,0.0,0.0,0.0,0.0,0.0,0.0,0.0,0.0,0.0,0.0,0.0,0.0,0.0,0.0,0.0,0.0,0.0,0.0,0.0,0.0,0.0,0.0,0.0,0.0,0.0,0.0,0.0,0.0,0.0,0.0,0.0,0.0,0.0,0.0,0.0,0.0,0.0,0.0,0.0,0.0,0.0,0.0,0.0,0.0,0.0,0.0,0.0,0.0,6.0631,6.1094,6.0666,6.0471,6.0587,6.0938,6.1133,6.1133,6.1497,6.1704,0.0,0.0,0.0,0.0,0.0,0.0,0.0,0.0,0.0,0.0,0.0,0.0,0.0,0.0,0.0,0.0,0.0,0.0,0.0,0.0,0.0,0.0,0.0,0.0,0.0,0.0,0.0,0.0,0.0,0.0,0.0,0.0,0.0,0.0,0.0,0.0,0.0,0.0,0.0,0.0,0.0,0.0,5.9301,5.9612,0.0,0.0,0.0,6.0198,5.9728,0.0,0.0,0.0,0.0,0.0,0.0,0.0,0.0,0.0,0.0,0.0,0.0,0.0,0.0,0.0,0.0,0.0,0.0,0.0,0.0,0.0,0.0,0.0,0.0,0.0,0.0,0.0,0.0,0.0,0.0,0.0,0.0,0.0,0.0,0.0,0.0,0.0,0.0,0.0,0.0,0.0,0.0,0.0,0.0,0.0,0.0,0.0,0.0,0.0,0.0,0.0,0.0,0.0,0.0,0.0,0.0,0.0,6.168,6.1055,6.1056,6.168,6.1719,6.1797,6.2031,6.2002,0.0,0.0,0.0,0.0,0.0,0.0,0.0,0.0,0.0,0.0,0.0,0.0,0.0,0.0,0.0,0.0,0.0,0.0,0.0,0.0,0.0,0.0,0.0,0.0,0.0,0.0,0.0,5.7894,0.0,0.0,0.0,0.0,0.0,0.0,0.0,0.0,0.0,0.0,0.0,0.0,0.0,0.0,6.0393,6.0393,6.0588,6.0783,0.0,0.0,6.0588,6.0118,6.0432,6.0509,0.0,0.0,0.0,0.0,0.0,0.0,0.0,0.0,0.0,0.0,0.0,0.0,0.0,0.0,0.0,0.0,0.0,0.0,0.0,0.0,0.0,0.0,0.0,0.0,0.0,0.0,0.0,0.0,0.0,0.0,0.0,0.0,0.0,0.0,0.0,0.0,0.0,0.0,0.0,0.0,0.0,0.0,0.0,0.0,0.0,0.0,0.0,0.0,0.0,0.0,0.0,0.0,0.0,0.0,6.1641,6.168,6.1641,6.1641,6.1719,6.1719,6.207,6.2891,6.2892,6.2898,0.0,0.0,0.0,0.0,0.0,0.0,0.0,0.0,0.0,0.0,0.0,0.0,0.0,0.0,0.0,0.0,0.0,0.0,0.0,0.0,0.0,0.0,0.0,0.0,0.0,0.0,0.0,0.0,0.0,0.0,0.0,0.0,0.0,0.0,0.0,0.0,0.0,0.0,0.0,0.0,0.0,6.0393,6.0393,6.1094,6.1914,0.0,6.2148,6.1875,6.2618,6.2109,6.1602,6.1563,0.0,0.0,0.0,0.0,0.0,0.0,0.0,0.0,0.0,0.0,0.0,0.0,0.0,0.0,0.0,0.0,0.0,0.0,0.0,0.0,0.0,0.0,0.0,0.0,0.0,0.0,0.0,0.0,0.0,0.0,0.0,0.0,0.0,0.0,0.0,0.0,0.0,0.0,0.0,0.0,0.0,0.0,0.0,0.0,0.0,0.0,0.0,0.0,0.0,0.0,0.0,0.0,0.0,6.2226,6.3282,6.2774,6.3007,6.4022,6.41,6.4258,6.4609,6.4101,6.3795,0.0,0.0,0.0,0.0,0.0,0.0,0.0,0.0,0.0,0.0,0.0,0.0,0.0,0.0,0.0,0.0,0.0,0.0,0.0,0.0,0.0,0.0,0.0,0.0,0.0,0.0,0.0,0.0,6.008,6.0119,5.9924,0.0,0.0,0.0,0.0,0.0,0.0,0.0,0.0,0.0,0.0,6.1564,6.2658,6.2618,0.0,0.0,6.3517,6.3399,6.3751,6.3517,6.3282,6.3282,6.3282,0.0,0.0,0.0,0.0,0.0,0.0,0.0,0.0,0.0,0.0,0.0,0.0,0.0,0.0,0.0,0.0,0.0,0.0,0.0,0.0,0.0,0.0,0.0,0.0,0.0,0.0,0.0,0.0,0.0,0.0,0.0,0.0,0.0,0.0,0.0,0.0,0.0,0.0,0.0,0.0,0.0,0.0,0.0,0.0,0.0,0.0,0.0,0.0,0.0,0.0,0.0,0.0,6.3086,6.4298,6.3673,6.3984,6.5155,6.5234,6.5351,6.5585,6.4999,6.4692,0.0,0.0,0.0,0.0,0.0,0.0,0.0,0.0,0.0,0.0,0.0,0.0,0.0,0.0,0.0,0.0,0.0,0.0,0.0,0.0,0.0,0.0,0.0,0.0,0.0,0.0,0.0,0.0,6.1328,6.1368,6.051,0.0,0.0,0.0,0.0,0.0,0.0,0.0,0.0,0.0,0.0,6.2891,6.4103,6.3751,6.3712,6.4571,6.4454,6.4376,6.4649,6.4493,6.4298,6.4298,0.0,0.0,0.0,0.0,0.0,0.0,0.0,0.0,0.0,0.0,0.0,0.0,0.0,0.0,0.0,0.0,0.0,0.0,0.0,0.0,0.0,0.0,0.0,0.0,0.0,0.0,0.0,5.9065,0.0,0.0,5.9222,0.0,0.0,0.0,0.0,0.0,0.0,0.0,0.0,0.0,0.0,0.0,0.0,0.0,0.0,0.0,0.0,0.0,0.0,0.0,0.0,0.0,0.0,6.422,6.4298,6.4259,6.4298,6.4376,6.4337,6.4766,6.5546,6.5585,6.5585,6.5547,0.0,0.0,0.0,0.0,0.0,0.0,0.0,0.0,0.0,0.0,0.0,0.0,0.0,0.0,0.0,0.0,0.0,0.0,0.0,0.0,0.0,0.0,0.0,0.0,0.0,0.0,6.1836,6.1719,6.1446,0.0,0.0,0.0,0.0,0.0,0.0,0.0,0.0,0.0,6.3047,6.3751,6.4259,6.4337,6.4298,6.4571,6.5468,6.4883,6.461,6.5468,6.4883,6.4298,0.0,0.0,0.0,0.0,0.0,0.0,0.0,0.0,0.0,0.0,0.0,0.0,0.0,0.0,0.0,0.0,0.0,0.0,0.0,0.0,0.0,0.0,0.0,0.0,0.0,0.0,0.0,5.9967,6.0002,0.0,0.0,0.0,0.0,0.0,0.0,0.0,0.0,0.0,0.0,0.0,6.1719,6.1719,0.0,0.0,0.0,0.0,0.0,0.0,0.0,0.0,0.0,0.0,0.0,0.0,6.4571,6.5116,6.461,6.4571,6.5155,6.5155,6.5312,6.5624,6.5624,6.5624,6.5624,0.0,0.0,0.0,0.0,0.0,0.0,0.0,0.0,0.0,0.0,0.0,0.0,0.0,0.0,0.0,0.0,0.0,0.0,0.0,0.0,0.0,0.0,0.0,0.0,0.0,6.3984,0.0,0.0,0.0,0.0,0.0,0.0,0.0,0.0,0.0,0.0,0.0,6.4064,6.4648,6.4493,6.4688,6.5781,6.5508,6.5468,0.0,0.0,0.0,0.0,0.0,0.0,0.0,0.0,0.0,0.0,0.0,0.0,0.0,0.0,6.5586,6.4494,6.4298,6.4298,6.4298,0.0,0.0,0.0,0.0,0.0,0.0,0.0,0.0,0.0,0.0,0.0,0.0,0.0,0.0,6.0861,6.09,6.1446,0.0,0.0,0.0,0.0,0.0,0.0,0.0,0.0,6.1992,6.2148,6.2187,6.2462,6.2618,0.0,6.3164,6.3594,0.0,0.0,0.0,0.0,0.0,0.0,0.0,0.0,6.543,6.5975,6.5469,6.543,6.5975,6.6014,6.6014,6.6014,6.6014,6.5897,6.5624,6.6367,6.6447,0.0,0.0,0.0,0.0,0.0,0.0,0.0,0.0,0.0,0.0,0.0,0.0,0.0,0.0,0.0,0.0,0.0,0.0,0.0,0.0,0.0,0.0,0.0,6.4655,0.0,0.0,0.0,0.0,0.0,0.0,0.0,0.0,0.0,6.4378,6.4576,6.4966,6.5508,6.5354,6.5669,6.707,0.0,0.0,0.0,0.0,0.0,0.0,0.0,6.7707,6.7707,6.7707,6.7707,6.7707,6.7707,6.7707,6.7707,0.0,0.0,6.551,6.5157,6.5157,6.5196,6.5157,6.5157,6.5157,6.5196,6.5157,0.0,0.0,0.0,0.0,0.0,0.0,0.0,0.0,6.168,6.168,0.0,6.168,0.0,0.0,0.0,0.0,6.1758,6.1797,0.0,0.0,6.2696,6.3047,6.3086,6.3868,6.4298,6.4298,6.4298,6.4766,6.5546,6.4805,0.0,0.0,0.0,0.0,0.0,0.0,6.6835,6.6835,6.6874,6.6874,6.6913,6.6913,6.6874,6.6913,6.6874,6.6561,6.5819,6.6522,6.6523,6.5741,6.6444,0.0,0.0,0.0,0.0,0.0,0.0,0.0,0.0,0.0,0.0,0.0,0.0,0.0,0.0,0.0,0.0,0.0,0.0,0.0,0.0,6.4353,0.0,0.0,0.0,0.0,0.0,0.0,0.0,0.0,0.0,0.0,6.4772,6.5208,6.5678,6.5745,0.0,0.0,0.0,0.0,6.8424,6.9237,6.9399,6.9364,6.9364,6.9364,6.9364,6.9364,0.0,0.0,6.9364,6.9364,6.9325,6.9364,6.9325,6.8852,6.7193,6.6877,6.6877,6.6877,6.6877,6.6876,6.6876,6.6877,6.6876,6.2228,0.0,0.0,0.0,0.0,6.1719,6.1719,6.1719,6.1719,6.1719,6.1719,6.1719,0.0,0.0,0.0,0.0,0.0,0.0,6.3556,6.3556,6.379,6.3907,6.3946,6.4181,6.4298,6.4337,6.4921,6.5663,6.6445,6.6834,6.6834,6.6484,0.0,0.0,0.0,0.0,6.7732,6.7771,6.8318,6.867,6.867,6.8669,6.8669,6.8669,6.8631,6.8553,6.8318,6.8513,6.8239,6.7459,6.7615,0.0,0.0,0.0,0.0,0.0,0.0,0.0,0.0,0.0,0.0,0.0,0.0,0.0,0.0,0.0,0.0,0.0,0.0,0.0,6.5143,6.5768,6.6236,0.0,0.0,0.0,0.0,0.0,0.0,0.0,0.0,0.0,6.7993,6.7603,6.7603,0.0,0.0,6.8736,6.9006,6.901,6.9129,6.9361,6.9402,0.0,6.9404,6.9404,6.9404,6.9404,6.9404,6.9404,6.9404,6.9404,6.9404,6.9443,6.9404,6.9207,6.8812,6.8655,6.8655,6.8655,6.8655,6.8655,6.8655,6.865,6.8644,6.3673,6.2735,6.2735,6.2735,6.2735,6.2735,6.2735,6.2735,6.2735,6.2735,6.2735,6.2735,6.2735,6.2735,6.2735,0.0,0.0,0.0,6.4298,6.4298,6.5001,6.5274,6.5313,6.5977,6.6328,6.6328,6.6873,6.7342,6.785,6.8357,6.8357,6.785,0.0,0.0,6.785,6.8357,6.863,6.863,6.9137,6.9411,6.9411,6.9411,6.9411,6.9411,6.9411,6.9411,6.9411,6.9411,6.9176,6.863,6.8635,6.8403,0.0,0.0,0.0,0.0,0.0,0.0,0.0,0.0,0.0,0.0,0.0,6.4819,6.4813,0.0,0.0,0.0,6.5845,6.5771,6.5619,6.6712,0.0,0.0,0.0,0.0,0.0,0.0,0.0,6.9332,6.9412,6.9725,7.0309,6.9957,6.9604,6.9444,6.9406,6.9641,7.0341,0.0,7.066,7.1361,7.144,7.1442,7.1441,7.1441,7.1441,7.1441,7.1442,7.148,7.148,7.1442,7.148,7.1442,7.1442,7.1441,7.1442,7.1441,7.0932,6.9678,6.9404,6.9404,6.9404,6.94,6.9396,6.4731,6.4692,6.4731,6.4534,6.4298,6.4298,6.4298,6.4298,6.4298,6.4298,6.4298,6.4298,6.4337,6.4415,6.4532,0.0,6.461,6.4688,6.4766,6.4767,6.6289,6.6992,6.707,6.8631,6.9411,6.9372,6.9412,6.9413,6.9491,6.9493,6.9532,6.961,6.961,6.953,6.9412,6.9452,6.9493,6.9491,6.9571,6.961,6.961,6.961,6.961,6.961,6.961,6.961,6.961,6.961,6.9571,6.9494,6.9504,6.947,6.9392,0.0,0.0,0.0,0.0,0.0,0.0,0.0,0.0,0.0,0.0,0.0,0.0,0.0,0.0,6.8154,6.8277,0.0,6.6053,6.7342,0.0,0.0,0.0,6.9407,6.9489,6.9568,6.9647,6.9687,0.0,0.0,7.1992,7.2187,7.1601,7.0032,6.98,7.0387,7.1984,7.2225,7.2812,7.4178,7.4531,7.4531,7.4258,7.4297,7.4258,7.4258,7.457,7.4375,7.4375,7.4414,7.4531,7.4375,7.457,7.4492,7.4531,7.4336,7.3593,7.0501,6.9953,6.9875,6.9914,6.9913,6.9912,6.8188,6.8188,6.8188,6.6697,6.4337,6.4298,6.4298,6.4298,6.4298,6.4298,6.4298,6.4298,6.4649,6.5351,6.6639,6.7185,6.7224,6.7888,6.82,6.8202,6.8592,6.8787,6.8826,6.9217,6.9411,6.9412,6.9383,6.9738,7.0364,7.041,7.0726,7.135,7.1389,7.0718,6.9452,7.0055,7.041,7.0403,7.1034,7.1389,7.1389,7.1389,7.1389,7.1389,7.1389,7.1389,7.1389,7.1389,7.1077,7.0414,7.0377,7.0104,6.944,6.9207,0.0,0.0,0.0,0.0,0.0,0.0,0.0,0.0,0.0,6.7532,6.7488,0.0,6.8902,0.0,6.9139,6.9023,6.8633,6.8906,0.0,0.0,6.9296,6.9648,7.0312,7.0976,7.164,7.2305,7.2969,7.3555,7.3945,7.3984,7.3828,7.3398,7.3359,7.3515,7.3945,7.3984,7.4101,7.457,7.4726,7.457,7.4687,7.457,7.4687,7.457,7.4609,7.457,7.4609,7.457,7.457,7.457,7.457,7.457,7.4648,7.457,7.4375,7.3554,7.3359,7.3163,7.2538,7.2342,7.2183,6.9404,6.9404,6.9404,6.8266,6.6579,6.6579,6.6578,6.6579,6.6579,6.6576,6.657,6.6565,6.6835,6.7342,6.8279,6.8669,6.8708,6.9176,6.9411,6.9411,6.9801,7.0,7.0006,7.0358,7.0555,7.056,7.0565,7.0802,7.1272,7.1276,7.1512,7.198,7.2375,7.2098,7.1186,7.1235,7.1276,7.1272,7.1744,7.198,7.198,7.198,7.2176,7.2566,7.2605,7.2764,7.3157,7.2767,7.2377,7.1872,7.1483,7.1053,7.0585,7.0195,6.9961,0.0,0.0,0.0,0.0,0.0,0.0,0.0,0.0,0.0,0.0,0.0,6.9999,6.9999,7.0,6.9883,6.9492,6.9765,6.9961,6.9961,7.0664,7.1328,7.1797,7.2617,7.3476,7.4336,7.4883,7.5469,7.6211,7.6328,7.6484,7.6797,7.6875,7.6601,7.5898,7.5742,7.6015,7.6719,7.6875,7.6875,7.6875,7.6875,7.6875,7.6875,7.6875,7.6875,7.6875,7.6875,7.6875,7.6875,7.6875,7.6719,7.6406,7.6328,7.625,7.5859,7.5742,7.5273,7.414,7.3867,7.371,6.9758,6.9719,6.9718,6.9719,6.9718,6.9757,6.9601,6.9404,6.9404,6.94,6.9392,6.9539,6.9573,6.9573,6.969,6.9729,6.9729,6.9729,6.9729,6.9768,7.0509,7.0866,7.0916,7.1657,7.2051,7.2137,7.2177,7.2216,7.2333,7.2334,7.2335,7.2374,7.3082,7.3512,7.3585,7.2882,7.2452,7.2335,7.2335,7.2335,7.2335,7.2335,7.2686,7.3429,7.3468,7.3823,7.453,7.3866,7.3437,7.3437,7.2731,7.226,7.2141,7.1431,7.0957,0.0,7.0099,0.0,0.0,0.0,0.0,0.0,0.0,0.0,0.0,7.0781,7.0859,7.0859,7.0859,7.0625,6.9961,7.0664,7.125,7.1406,7.2812,7.3789,7.3828,7.457,7.539,7.6133,7.6328,7.6992,7.8359,7.8633,7.8906,7.9336,7.9414,7.8984,7.8008,7.7617,7.8008,7.9531,7.9726,7.9297,7.9375,7.9531,7.9492,7.9609,7.9453,7.9726,7.9531,7.9531,7.9609,7.9609,7.9453,7.9336,7.875,7.8594,7.8359,7.7656,7.75,7.6914,7.5273,7.4765,7.4726,7.1523,7.1523,7.1523,7.1523,7.1523,7.1523,7.07,6.9404,6.9404,6.9403,6.9479,7.0143,7.0454,7.0493,7.1195,7.1508,7.1507,7.1507,7.1508,7.1507,7.1702,7.1742,7.1783,7.1939,7.2369,7.3036,7.3041,7.3434,7.4098,7.41,7.4101,7.414,7.4257,7.4687,7.5351,0.0,0.0,0.0,7.4101,7.4101,7.4101,7.4101,7.4179,7.4335,7.4336,0.0,7.4569,7.4405,7.4281,7.4279,7.4112,0.0,0.0,0.0,0.0,0.0,0.0,0.0,0.0,0.0,0.0,0.0,7.2148,7.2031,7.0859,7.1328,7.1758,7.1758,7.1758,7.1992,7.2539,7.3359,7.414,7.4844,7.582,7.6484,7.6484,7.7226,7.7851,7.7969,7.8555,7.9101,7.9414,7.9453,7.9531,7.9765,7.9726,7.9883,8.0234,7.9609,7.9375,7.9687,7.9844,7.9765,7.9726,7.9765,7.9883,7.9726,7.9726,7.9765,7.9805,7.9765,7.9726,7.9765,7.9726,7.9726,7.9492,7.9492,7.9414,7.9258,7.918,7.8515,7.6211,7.5664,7.543,7.1992,7.1992,7.1992,7.1992,0.0,7.1992,7.1484,7.07,7.07,7.0699,7.0736,7.1162,7.1317,7.1395,7.2254,7.2644,7.2644,7.3074,7.3269,7.3269,7.3308,7.3272,7.3275,7.3275,7.3745,7.4567,7.4569,7.5038,7.5859,7.5898,7.5859,7.5859,7.6289,7.6758,7.7187,7.7187,7.6758,7.5898,7.5898,7.5898,7.5898,7.5898,7.6094,7.6484,7.6475,0.0,0.0,0.0,0.0,0.0,0.0,0.0,0.0,7.4881,0.0,7.4217,7.4194,7.4231,7.4282,7.4326,7.4406,7.4477,7.4959,7.4844,7.3984,7.4297,7.4765,7.5156,7.4844,7.4765,7.5195,7.5625,7.5898,7.5976,7.707,7.7695,7.7422,7.832,7.9258,7.9687,8.0078,8.0469,8.0937,8.0976,8.0976,8.0976,8.0976,8.1133,8.1445,8.0898,8.0469,8.0898,8.0976,8.1015,8.0976,8.0976,8.0976,8.0976,8.0976,8.0976,8.0976,8.0976,8.0976,8.0976,8.0976,8.0898,8.0429,8.0351,8.0195,7.9805,7.9726,7.9375,7.8008,7.7773,7.7656,7.1992,7.1992,7.1992,7.2109,7.2226,7.2226,7.2305,7.2461,7.2109,0.0,0.0,7.1986,7.2101,7.2258,7.2961,7.339,7.3586,7.4406,7.4836,7.4836,7.4836,7.4839,7.4842,7.4686,7.5077,7.5859,7.5898,7.6367,7.7187,7.7226,7.7265,7.75,7.8164,7.8633,7.8906,7.9101,7.8828,7.8086,7.75,7.7226,7.7226,7.7226,7.7539,7.8281,7.8303,7.8621,7.9219,7.8617,7.8249,7.8233,7.7556,7.7073,7.6906,7.6906,7.682,7.6652,7.6676,7.6704,7.6777,7.6826,7.696,7.7224,7.7378,7.7383,7.7226,7.7226,7.75,7.8203,7.7461,7.707,7.7383,7.7422,7.7265,7.6836,7.8203,7.8906,7.832,7.9258,8.0469,8.1094,8.1211,8.1484,8.2109,8.2226,8.2304,8.2265,8.2148,8.2304,8.2226,8.164,8.1445,8.1992,8.207,8.2226,8.2265,8.2187,8.2304,8.2148,8.2226,8.2304,8.2304,8.2304,8.2304,8.2148,8.2304,8.1953,8.1406,8.1211,8.0976,8.0312,8.0156,8.0156,8.0156,8.0156,8.0,7.1992,7.1992,7.1992,7.2422,7.3125,7.3125,7.3555,7.4101,7.2656,7.1992,7.1992,7.1992,7.2421,7.3125,7.3242,7.371,7.4453,7.5312,7.5703,7.5703,7.5742,7.5742,7.5664,7.4961,7.5078,7.5859,7.5898,7.6328,7.7109,7.7226,7.7578,7.8281,7.8437,7.9219,8.0586,8.1406,8.1719,8.1523,7.8711,7.7226,7.7226,7.7226,7.7265,7.7383,7.8083,7.8378,7.84,7.8967,7.9234,7.91,7.8932,7.8485,7.77,7.7695,7.7305,7.6532,7.656,7.6613,7.6665,7.6822,7.7341,7.82,7.832,7.8008,7.7265,7.7226,7.7265,7.7344,7.6836,7.6719,7.8086,7.8398,7.8906,8.0,8.1094,8.1679,8.1367,8.1601,8.1875,8.2031,8.2109,8.2109,8.2265,8.2304,8.2304,8.2304,8.2304,8.2304,8.2304,8.2226,8.2187,8.2265,8.2304,8.2304,8.2304,8.2304,8.2304,8.2304,8.2304,8.2304,8.2304,8.2304,8.2304,8.2304,8.2304,8.2226,8.207,8.2109,8.1953,8.1758,8.1719,8.1758,8.1719,8.1758,8.1406,7.3437,7.3437,7.3398,7.3633,7.3984,7.3984,7.4219,7.4531,7.375,7.3398,7.3398,7.3437,7.3633,7.4023,7.4492,7.4922,7.5351,7.6211,7.6601,7.6601,7.6601,7.6601,7.6562,7.6211,7.6445,7.7305,7.7734,7.8398,7.9258,7.9726,8.0156,8.0547,8.0547,8.0703,8.1015,8.1367,8.1367,8.0898,8.0273,7.9961,7.9961,7.9961,7.992,7.9868,8.0188,8.0237,8.0111,8.0413,8.0529,8.051,8.0478,8.0246,7.9846,7.9802,7.9623,7.9189,7.9238,7.9255,7.9255,7.945,7.9763,8.0212,8.0306,8.0171,7.973,7.9442,7.9453,7.9922,7.957,7.9687,8.0469,8.0547,8.0703,8.0937,8.1796,8.2108,8.1757,8.2069,8.2304,8.2304,8.2304,8.2304,8.2304,8.2304,8.2304,8.2304,8.2304,8.2304,8.2304,8.2304,8.2304,8.2304,8.2304,8.2304,8.2304,8.2304,8.2304,8.2304,8.2304,8.2304,8.2304,8.2304,8.2304,8.2304,8.2304,8.2304,8.2304,8.2304,8.2304,8.2304,8.2304,8.2304,8.2304,8.2304,8.1992,7.457,7.457,7.457,7.4687,7.4922,7.5117,7.5195,7.5195,7.5195,7.5195,7.5156,7.4765,7.4687,7.4961,7.5586,7.6015,7.6289,7.7109,7.75,7.75,7.75,7.7578,7.7734,7.7617,7.793,7.875,7.9414,8.0039,8.0742,8.1406,8.1836,8.2031,8.2187,8.1953,8.1289,8.1289,8.0937,8.0429,8.1561,8.2067,8.1677,8.1677,8.1586,8.1489,8.1533,8.153,8.1426,8.1492,8.152,8.1504,8.1497,8.1497,8.1497,8.1497,8.1497,8.1497,8.1497,8.1528,8.155,8.1628,8.1698,8.1709,8.1785,8.1838,8.1753,8.1407,8.1433,8.2102,8.1836,8.1875,8.207,8.1992,8.1795,8.1363,8.187,8.2066,8.1519,8.191,8.2302,8.2304,8.2304,8.2304,8.2304,8.2304,8.2304,8.2304,8.2304,8.2304,8.2304,8.2304,8.2304,8.2304,8.2304,8.2304,8.2304,8.2304,8.2304,8.2304,8.2304,8.2304,8.2304,8.2304,8.2304,8.2304,8.2304,8.2304,8.2304,8.2304,8.2304,8.2304,8.2304,8.2304,8.2304,8.2304,8.2304,7.4609,7.457,7.4648,7.5078,7.582,7.6601,7.6875,7.6875,7.6953,7.6953,7.6719,7.5312,7.5078,7.5742,7.5898,7.6367,7.707,7.7969,7.8359,7.8359,7.8398,7.875,7.9297,7.8711,7.8828,7.9492,7.9687,7.9844,7.9961,8.0039,8.039,8.1133,8.1914,8.2265,8.2148,8.2148,8.2109,8.207,8.2091,8.1325,7.9838,7.976,7.9688,7.9544,8.035,8.0667,8.0635,8.1286,8.1612,8.1528,8.1497,8.1497,8.1497,8.1497,8.1497,8.1497,8.1497,8.1556,8.1635,8.164,8.1659,8.1785,8.1727,8.1715,8.175,8.1675,8.1714,8.1951,8.1388,8.1384,8.2094,8.1628,8.1508,8.2088,8.2247,8.2255,8.225,8.226,8.2302,8.2302,8.2459,8.2344,8.25,8.2539,8.2422,8.2578,8.2656,8.2617,8.2617,8.2578,8.2578,8.2461,8.2344,8.2344,8.2344,8.2304,8.2304,8.2304,8.2304,8.2304,8.2304,8.2304,8.2304,8.2304,8.2304,8.2304,8.2304,8.2304,8.2304,8.2304,8.2304,8.2304,8.2304,8.2304,8.2304,7.6133,7.6133,7.6133,7.6328,7.6719,7.707,7.7226,7.7226,7.7226,7.7226,7.7148,7.6445,7.6328,7.668,7.668,7.6875,7.7265,7.8086,7.8476,7.8555,7.8984,7.9414,7.9609,7.9375,7.9414,7.9726,8.0234,8.0468,8.0543,8.0972,8.1402,8.1753,8.2144,8.2301,8.2299,8.2203,8.2152,8.2158,8.1958,8.1523,8.0906,8.0892,8.0869,8.0777,8.1069,8.1173,8.1093,8.142,8.1567,8.1504,8.1497,8.1497,8.1497,8.1459,8.144,8.1433,8.14,8.1388,8.1457,8.1439,8.1437,8.1503,8.1486,8.1612,8.2074,8.2107,8.2355,8.2844,8.2038,8.1529,8.1886,8.1618,8.1727,8.2449,8.2638,8.2836,8.3376,8.3429,8.3459,8.3566,8.3624,8.3643,8.382,8.3865,8.3826,8.3827,8.3827,8.375,8.3828,8.3828,8.3828,8.3828,8.3828,8.332,8.2656,8.2304,8.2344,8.2344,8.2304,8.2304,8.2383,8.2304,8.2304,8.2344,8.2422,8.2422,8.2304,8.2304,8.2304,8.2383,8.2344,8.2304,8.2304,8.2304,8.2304,7.7048,7.7009,7.7009,7.7048,7.7048,7.7048,7.7165,7.7359,7.7359,7.7476,7.771,7.771,7.771,7.7714,7.7613,7.7656,7.7929,7.8472,7.8741,7.8818,7.9318,7.9648,7.986,7.9949,8.0106,8.0416,8.1051,8.1364,8.1394,8.1889,8.2236,8.2196,8.2143,8.2134,8.2129,8.199,8.1961,8.1969,8.1753,8.1653,8.164,8.1705,8.1692,8.1639,8.1612,8.1519,8.1453,8.144,8.144,8.144,8.144,8.144,8.144,8.1394,8.1367,8.1399,8.1589,8.167,8.1631,8.1849,8.195,8.195,8.1935,8.2169,8.2586,8.2725,8.3031,8.355,8.2848,8.2281,8.2379,8.2383,8.2638,8.3182,8.3255,8.3566,8.4076,8.4193,8.4201,8.44,8.4278,8.4465,8.4655,8.4649,8.4625,8.4665,8.4758,8.4921,8.4921,8.4844,8.4844,8.4883,8.4883,8.4375,8.3242,8.3164,8.3008,8.3008,8.3164,8.3164,8.3008,8.3047,8.3047,8.3515,8.3125,8.3086,8.3359,8.3203,8.3008,8.2969,8.2851,8.2734,8.2773,8.2539,8.2344,7.6646,7.6653,7.665,7.6745,7.6653,7.6741,7.7124,7.7845,7.7789,7.8242,7.8879,7.895,7.8975,7.8971,7.8588,7.8785,7.9446,7.9393,7.939,7.9344,7.9325,7.9601,8.0348,8.0586,8.1067,8.1659,8.1915,8.2092,8.2128,8.204,8.2004,8.1997,8.1864,8.1753,8.176,8.1742,8.1734,8.1715,8.1582,8.1508,8.1514,8.1401,8.1439,8.1465,8.1367,8.134,8.1344,8.1344,8.1344,8.1337,8.1421,8.1421,8.1382,8.1375,8.1407,8.1438,8.2094,8.2519,8.262,8.3109,8.3456,8.3526,8.3356,8.3463,8.354,8.354,8.3671,8.3671,8.3719,8.3712,8.3961,8.3809,8.3902,8.4057,8.4111,8.4184,8.4267,8.4417,8.4227,8.4341,8.4457,8.4579,8.4393,8.4383,8.4678,8.4785,8.4837,8.5023,8.5105,8.5032,8.5074,8.5116,8.5078,8.4922,8.4765,8.4375,8.4492,8.4453,8.4219,8.457,8.4726,8.4804,8.4687,8.4648,8.4414,8.4414,8.4687,8.4687,8.4531,8.4297,8.3828,8.3633,8.3554,8.2851,8.2695,7.689,7.7435,7.7976,7.8205,7.8205,7.8205,7.8361,7.8633,7.863,7.8785,7.9057,7.9093,7.9408,7.9925,7.9783,7.9522,7.938,7.9796,8.0043,8.0075,8.0531,8.0937,8.1182,8.1314,8.1477,8.1782,8.1882,8.1903,8.1915,8.1845,8.1804,8.1801,8.1748,8.1714,8.1692,8.1586,8.1529,8.154,8.1362,8.1276,8.1427,8.175,8.1985,8.202,8.1547,8.1284,8.1284,8.1831,8.214,8.214,8.2603,8.2912,8.2904,8.2861,8.2809,8.2802,8.3072,8.3264,8.3295,8.3464,8.3641,8.3641,8.3617,8.3901,8.4324,8.4439,8.4632,8.5016,8.517,8.5283,8.5118,8.4463,8.4045,8.4541,8.4663,8.4871,8.5274,8.5418,8.5455,8.5593,8.5755,8.5859,8.5743,8.5909,8.5961,8.5973,8.6036,8.6047,8.6108,8.6189,8.6196,8.6297,8.6435,8.6522,8.6562,8.5469,8.4883,8.4883,8.4844,8.4883,8.4961,8.5078,8.5039,8.5117,8.5156,8.5195,8.5273,8.5234,8.5234,8.5078,8.4609,8.4492,8.4414,8.3867,8.3789,7.7521,7.8059,7.8641,7.8912,7.8912,7.8912,7.9062,7.9295,7.9334,7.9484,7.9717,7.9756,8.011,8.0575,8.0616,8.0345,7.9843,8.0456,8.0727,8.0757,8.1247,8.1488,8.1504,8.1558,8.1611,8.1636,8.1679,8.1701,8.1696,8.1645,8.16,8.16,8.153,8.1525,8.149,8.135,8.1323,8.1349,8.146,8.1539,8.1691,8.2348,8.274,8.2717,8.2308,8.206,8.2068,8.26,8.2908,8.2993,8.3448,8.3725,8.3718,8.3711,8.3657,8.3648,8.387,8.4016,8.4055,8.4255,8.4409,8.4401,8.4447,8.467,8.5247,8.5286,8.5593,8.5978,8.6094,8.6094,8.5901,8.5063,8.467,8.517,8.5277,8.5508,8.6008,8.6063,8.6138,8.6204,8.6307,8.6499,8.6618,8.6627,8.6604,8.6692,8.6744,8.6813,8.6812,8.6922,8.7028,8.7085,8.7097,8.717,8.7182,8.6406,8.6015,8.5976,8.5859,8.5664,8.5547,8.5586,8.5586,8.5664,8.5703,8.5742,8.5742,8.5703,8.5703,8.5664,8.5469,8.5351,8.5195,8.5,8.4844,7.8514,7.8544,7.8538,7.872,7.8818,7.8818,7.9099,7.9791,7.9853,8.0251,8.0781,8.0969,8.0913,8.1039,8.1029,8.1031,8.0974,8.1156,8.1251,8.1271,8.1193,8.1153,8.1137,8.1311,8.1412,8.1412,8.1584,8.1675,8.1635,8.1496,8.1387,8.1382,8.1231,8.1176,8.1124,8.1193,8.1201,8.1362,8.1955,8.2331,8.2408,8.3178,8.3601,8.3609,8.3617,8.3617,8.3609,8.3609,8.3664,8.3656,8.3733,8.364,8.3848,8.384,8.3717,8.3909,8.4478,8.4863,8.497,8.5517,8.5824,8.5824,8.5978,8.5863,8.5901,8.5978,8.6017,8.6094,8.6094,8.6094,8.6094,8.594,8.5901,8.6055,8.5978,8.6008,8.6055,8.6094,8.6094,8.6135,8.616,8.6118,8.6145,8.6288,8.6416,8.6462,8.6559,8.6692,8.6679,8.6734,8.6876,8.6997,8.7091,8.7126,8.7265,8.7383,8.7383,8.7344,8.7148,8.6992,8.6797,8.6797,8.6719,8.6719,8.6679,8.6719,8.6679,8.6679,8.6836,8.6758,8.6523,8.6211,8.6094,8.5898,8.5547,7.94,7.9477,8.0054,8.0285,8.0285,8.0285,8.0477,8.0669,8.0669,8.0862,8.1054,8.1093,8.1093,8.1093,8.1093,8.1093,8.11,8.1168,8.1205,8.1191,8.1139,8.1093,8.1116,8.1161,8.1167,8.1181,8.126,8.1269,8.1263,8.1224,8.1167,8.1176,8.1154,8.1093,8.117,8.1631,8.1939,8.2016,8.2747,8.3178,8.3293,8.4055,8.4478,8.4555,8.5016,8.5324,8.5286,8.4786,8.4516,8.4516,8.5016,8.5324,8.5324,8.5324,8.5324,8.5363,8.5555,8.5701,8.5739,8.5901,8.6094,8.6094,8.6094,8.6094,8.6094,8.6094,8.6094,8.6094,8.6094,8.6094,8.6094,8.6094,8.617,8.6094,8.6094,8.6094,8.617,8.617,8.6094,8.6094,8.6094,8.6094,8.614,8.6238,8.6347,8.6277,8.6344,8.6416,8.636,8.6455,8.6559,8.6669,8.6786,8.6922,8.7061,8.7169,8.7204,8.7318,8.7383,8.75,8.75,8.75,8.75,8.75,8.75,8.75,8.75,8.75,8.75,8.75,8.7109,8.6992,8.7031,8.6758,8.6328,8.0285,8.0354,8.0862,8.1093,8.1093,8.1093,8.1093,8.1093,8.1093,8.1093,8.1093,8.1093,8.1093,8.1093,8.1093,8.1093,8.1093,8.1093,8.1093,8.1093,8.1093,8.1093,8.1093,8.1093,8.1093,8.1093,8.1093,8.1093,8.1093,8.1093,8.1093,8.1093,8.1093,8.1285,8.1516,8.2016,8.2401,8.2824,8.3632,8.4063,8.4247,8.4901,8.5354,8.5401,8.5824,8.6055,8.6055,8.5585,8.5354,8.5431,8.5863,8.6094,8.6094,8.6055,8.6094,8.6094,8.6094,8.6094,8.6094,8.6055,8.6094,8.6094,8.6094,8.6094,8.6094,8.6094,8.6094,8.6094,8.644,8.6594,8.6632,8.694,8.7055,8.7055,8.6478,8.6286,8.6478,8.6901,8.7094,8.7171,8.7132,8.7055,8.7055,8.7055,8.6901,8.6709,8.6594,8.6363,8.6289,8.6208,8.6363,8.6475,8.6576,8.6695,8.6804,8.69,8.6981,8.7121,8.7265,8.7383,8.75,8.75,8.75,8.75,8.75,8.75,8.75,8.75,8.75,8.75,8.75,8.7422,8.7304,8.7344,8.707,8.1093,8.1093,8.1093,8.1093,8.1093,8.1093,8.1093,8.1093,8.1093,8.1093,8.1093,8.1093,8.1093,8.1093,8.1093,8.1093,8.1093,8.1093,8.1093,8.1093,8.1093,8.1093,8.1093,8.1093,8.1093,8.1093,8.1093,8.1093,8.1093,8.1093,8.1131,8.1246,8.1323,8.1593,8.2285,8.2401,8.3016,8.3708,8.4516,8.497,8.497,8.5624,8.6017,8.6017,8.6055,8.6094,8.6094,8.6008,8.6017,8.6094,8.6094,8.6094,8.6094,8.6094,8.6094,8.6094,8.6094,8.6094,8.6094,8.6094,8.6094,8.6094,8.6094,8.6094,8.6094,8.6247,8.6324,8.6363,8.7017,8.7478,8.7594,8.8025,8.8449,8.8449,8.7363,8.6901,8.7401,8.8132,8.8333,8.8449,8.8641,8.8641,8.8449,8.8449,8.8132,8.7709,8.7478,8.7171,8.6833,8.6761,8.6501,8.6667,8.7033,8.7146,8.7516,8.7629,8.77,8.7806,8.7765,8.7715,8.7612,8.7539,8.75,8.75,8.7578,8.7539,8.75,8.75,8.75,8.75,8.75,8.75,8.75,8.75,8.75,8.1093,8.1093,8.1093,8.1093,8.1093,8.1093,8.1093,8.1093,8.1093,8.1093,8.1093,8.1093,8.1093,8.1093,8.1093,8.1093,8.1093,8.1093,8.1093,8.1093,8.1093,8.1093,8.1093,8.1093,8.1093,8.1093,8.1093,8.1093,8.1093,8.1093,8.14,8.1977,8.1939,8.2362,8.3178,8.3824,8.4286,8.4632,8.5363,8.5739,8.5778,8.594,8.6094,8.6094,8.6094,8.6094,8.6094,8.6094,8.6094,8.6094,8.6094,8.6094,8.6094,8.6094,8.6094,8.6094,8.6094,8.6094,8.6094,8.6094,8.6094,8.6094,8.617,8.6094,8.6132,8.6709,8.6978,8.7209,8.7825,8.8363,8.8402,8.8603,8.8756,8.8641,8.8286,8.8094,8.8295,8.8526,8.8679,8.8679,8.8756,8.8833,8.8833,8.8833,8.8709,8.844,8.8333,8.8218,8.7795,8.7718,8.7616,8.7938,8.8212,8.8197,8.8266,8.8389,8.8532,8.8627,8.8531,8.8268,8.7979,8.7578,8.7539,8.75,8.7695,8.7734,8.7578,8.75,8.75,8.75,8.75,8.75,8.75,8.75,8.75,8.1093,8.1093,8.1093,8.1093,8.1093,8.1093,8.1093,8.1093,8.1093,8.1093,8.1093,8.1093,8.1093,8.1093,8.1093,8.1093,8.1093,8.1093,8.1093,8.1093,8.1093,8.1093,8.1093,8.1093,8.1093,8.1093,8.1093,8.1093,8.1093,8.1093,8.1554,8.2131,8.2324,8.2939,8.4093,8.4593,8.5085,8.5401,8.5893,8.6094,8.6094,8.6094,8.6094,8.6094,8.6094,8.6094,8.6094,8.6094,8.6094,8.6094,8.6094,8.6094,8.6094,8.6094,8.6094,8.6094,8.6094,8.6094,8.6094,8.6094,8.6286,8.6555,8.6632,8.6863,8.7209,8.7709,8.794,8.8017,8.8748,8.9094,8.9286,8.9517,8.971,8.9825,8.9748,8.9594,8.9248,8.9594,8.971,8.9748,8.9748,8.9748,8.971,8.971,8.9517,8.9325,8.921,8.894,8.8641,8.8756,8.8795,8.891,8.891,8.8777,8.8686,8.8815,8.8943,8.9082,8.9263,8.8968,8.8734,8.8205,8.8164,8.8164,8.8086,8.7929,8.7851,8.7695,8.75,8.75,8.75,8.7539,8.7539,8.75,8.75,8.1093,8.1093,8.1093,8.1093,8.1093,8.1093,8.1093,8.1093,8.1093,8.1093,8.1093,8.1093,8.1093,8.1093,8.1093,8.1093,8.1093,8.1093,8.1093,8.1093,8.1093,8.1093,8.1093,8.1093,8.1093,8.1093,8.1093,8.1093,8.1131,8.117,8.1708,8.2439,8.2631,8.3516,8.4747,8.5093,8.5431,8.5901,8.6017,8.6094,8.6094,8.6094,8.6094,8.6094,8.6094,8.6094,8.6094,8.6094,8.6094,8.6094,8.6094,8.6094,8.6094,8.6094,8.6094,8.6094,8.6094,8.6132,8.6247,8.6401,8.6671,8.7325,8.7517,8.7825,8.8363,8.8632,8.8825,8.8825,8.9547,8.9979,9.0124,9.071,9.0902,9.0902,9.1018,9.0787,9.0393,9.0701,9.1201,9.1201,9.1133,9.1163,9.1201,9.1124,9.0902,9.0133,9.0056,8.9902,8.9671,8.9633,8.9556,8.944,8.9325,8.918,8.915,8.9167,8.9286,8.9445,8.975,8.9743,8.987,8.9543,8.9275,8.914,8.8906,8.8594,8.832,8.8086,8.7929,8.7929,8.8203,8.7969,8.7695,8.7539,8.75,8.1093,8.1093,8.1093,8.1093,8.1093,8.1093,8.1093,8.1093,8.1093,8.1093,8.1093,8.1093,8.1093,8.1093,8.1093,8.1093,8.1093,8.1093,8.1093,8.1093,8.1093,8.1093,8.1093,8.1093,8.1093,8.1093,8.1093,8.1093,8.1208,8.1708,8.2439,8.3216,8.3862,8.4816,8.5624,8.5747,8.5901,8.6094,8.6094,8.6094,8.6094,8.6094,8.6094,8.6094,8.6094,8.6094,8.6094,8.6094,8.6094,8.6094,8.6094,8.6094,8.6094,8.6094,8.6132,8.6209,8.617,8.6401,8.6978,8.7171,8.7478,8.8248,8.841,8.8487,8.8679,8.9363,8.9586,8.9778,9.0393,9.0787,9.0855,9.1056,9.1171,9.1201,9.121,9.1133,9.1018,9.1086,9.1163,9.1201,9.1201,9.1201,9.1201,9.1201,9.1047,9.0893,9.0855,9.0825,9.0633,9.0441,9.0287,9.0094,9.0133,9.0056,9.0056,9.0017,9.0017,9.0035,9.0242,9.0407,9.0535,9.0457,9.0047,8.9806,8.9687,8.9375,8.9023,8.9179,8.914,8.9062,8.8867,8.8633,8.8359,8.7969,8.7851,8.1093,8.1093,8.1093,8.1093,8.1093,8.1093,8.1093,8.1093,8.1093,8.1093,8.1093,8.1093,8.1093,8.1093,8.1093,8.1093,8.1093,8.1093,8.1093,8.1093,8.1093,8.1093,8.1093,8.1093,8.1093,8.1093,8.1093,8.1093,8.1285,8.1939,8.2678,8.3601,8.4516,8.5201,8.597,8.6094,8.6055,8.6094,8.6094,8.6094,8.6094,8.6094,8.6094,8.6094,8.6094,8.6094,8.6094,8.6094,8.6094,8.6094,8.6094,8.6094,8.6094,8.6132,8.6286,8.6632,8.6709,8.7132,8.7748,8.8055,8.8363,8.9171,8.9248,8.9517,8.9787,9.0325,9.047,9.0586,9.0893,9.1163,9.1201,9.1201,9.1201,9.1201,9.1201,9.1201,9.1201,9.1201,9.1201,9.1201,9.1201,9.1201,9.1201,9.1201,9.1163,9.1047,9.1047,9.1018,9.1018,9.0864,9.0941,9.0893,9.097,9.1009,9.1009,9.097,9.0855,9.0843,9.0838,9.0943,9.098,9.083,9.0575,9.0446,9.039,9.0156,8.9922,9.0117,9.0117,8.9765,8.9492,8.9375,8.9219,8.9023,8.8945,8.1093,8.1093,8.1093,8.1093,8.1093,8.1093,8.1093,8.1093,8.1093,8.1093,8.1093,8.1093,8.1093,8.1093,8.1093,8.1093,8.1093,8.1093,8.1093,8.1093,8.1093,8.1093,8.1093,8.1093,8.1093,8.1093,8.1093,8.1131,8.1516,8.2093,8.3101,8.3862,8.4709,8.547,8.5978,8.6094,8.6094,8.6094,8.6094,8.6094,8.6094,8.6094,8.6094,8.6094,8.6094,8.6094,8.6094,8.6094,8.6094,8.6094,8.6094,8.617,8.6286,8.6363,8.6555,8.7363,8.744,8.8017,8.8671,8.8902,8.921,8.997,9.0086,9.0402,9.0941,9.1018,9.1047,9.1086,9.1201,9.1201,9.1201,9.1201,9.1201,9.1201,9.1201,9.1201,9.1201,9.1201,9.1201,9.1201,9.1201,9.1201,9.1201,9.1201,9.1201,9.1201,9.1201,9.1201,9.1201,9.1201,9.1201,9.1201,9.1201,9.1201,9.1201,9.1201,9.1201,9.118,9.1215,9.1224,9.1236,9.117,9.1029,9.1144,9.1054,9.0859,9.082,9.0976,9.0859,9.0429,9.0234,9.0195,9.0156,9.0078,8.9961,8.1093,8.1093,8.1093,8.1093,8.1093,8.1093,8.1093,8.1093,8.1093,8.1093,8.1093,8.1093,8.1093,8.1093,8.1093,8.1093,8.1093,8.1093,8.1093,8.1093,8.1093,8.1093,8.1093,8.1093,8.1093,8.1093,8.1131,8.14,8.2093,8.2978,8.367,8.4632,8.5431,8.5978,8.6017,8.6094,8.6094,8.6094,8.6094,8.6094,8.6094,8.6094,8.6094,8.6094,8.6094,8.6094,8.6094,8.6094,8.6094,8.6094,8.6094,8.6517,8.694,8.7132,8.7325,8.7671,8.8171,8.8825,8.9556,8.9739,9.0163,9.0748,9.0902,9.0893,9.1124,9.1201,9.1201,9.1201,9.1201,9.1201,9.1201,9.1201,9.1201,9.1201,9.1201,9.1201,9.1201,9.1201,9.1201,9.1201,9.1201,9.1201,9.1201,9.1201,9.1201,9.1201,9.1201,9.1201,9.1201,9.1201,9.1201,9.1201,9.1201,9.1201,9.1201,9.1201,9.1201,9.1201,9.1189,9.1189,9.127,9.139,9.1459,9.1389,9.1619,9.1758,9.1758,9.1787,9.1797,9.1562,9.1328,9.1054,9.1015,9.0898,9.0469,8.1093,8.1093,8.1093,8.1093,8.1093,8.1093,8.1093,8.1093,8.1093,8.1093,8.1093,8.1093,8.1093,8.1093,8.1093,8.1093,8.1093,8.1093,8.1093,8.1093,8.1093,8.1093,8.1093,8.1093,8.1093,8.1093,8.1131,8.1516,8.2324,8.3178,8.4055,8.4863,8.5709,8.6094,8.6094,8.6094,8.6094,8.6094,8.6094,8.6094,8.6094,8.6094,8.6094,8.6094,8.6094,8.6094,8.6094,8.6094,8.6094,8.6094,8.6094,8.6594,8.7248,8.7825,8.8248,8.8632,8.9094,8.9671,9.0393,9.0586,9.0787,9.1047,9.1201,9.1201,9.1201,9.1201,9.1201,9.1201,9.1201,9.1201,9.1201,9.1201,9.1201,9.1201,9.1201,9.1201,9.1201,9.1201,9.1201,9.1201,9.1201,9.1201,9.1201,9.1201,9.1201,9.1201,9.1201,9.1201,9.1201,9.1201,9.1201,9.1201,9.1201,9.1201,9.1201,9.1201,9.1201,9.1201,9.1201,9.1201,9.1215,9.133,9.1361,9.1378,9.1739,9.2058,9.2184,9.2032,9.237,9.2577,9.2187,9.1836,9.1836,9.1679,9.125,8.1093,8.1093,8.1093,8.1093,8.1093,8.1093,8.1093,8.1093,8.1093,8.1093,8.1093,8.1093,8.1093,8.1093,8.1093,8.1093,8.1093,8.1093,8.1093,8.1093,8.1093,8.1093,8.1093,8.1093,8.1093,8.1093,8.1093,8.1516,8.2324,8.3178,8.4055,8.4901,8.5701,8.6094,8.6094,8.6094,8.6094,8.6094,8.6094,8.6094,8.6094,8.6094,8.6094,8.6094,8.6094,8.6094,8.6094,8.6094,8.6094,8.6094,8.6209,8.6594,8.7555,8.8333,8.9133,8.994,9.0163,9.0586,9.0932,9.1124,9.1095,9.1201,9.1201,9.1201,9.1201,9.1201,9.1201,9.1201,9.1201,9.1201,9.1201,9.1201,9.1201,9.1201,9.1201,9.1201,9.1201,9.1201,9.1201,9.1201,9.1201,9.1201,9.1201,9.1201,9.1201,9.1201,9.1201,9.1201,9.1201,9.1201,9.1201,9.1201,9.1201,9.1201,9.1201,9.1201,9.1201,9.1201,9.1201,9.1201,9.1201,9.1224,9.1275,9.1336,9.1508,9.1825,9.2015,9.224,9.2319,9.239,9.2491,9.2461,9.2304,9.2265,9.207,8.1093,8.1093,8.1085,8.1093,8.1085,8.1077,8.1085,8.1085,8.1077,8.1093,8.1077,8.1085,8.1077,8.1085,8.1093,8.1093,8.1093,8.1093,8.1093,8.1093,8.1093,8.1093,8.1093,8.1093,8.1093,8.1093,8.1093,8.1554,8.2247,8.3093,8.4016,8.4901,8.5632,8.6094,8.6094,8.6094,8.6094,8.6094,8.6094,8.6094,8.6094,8.6094,8.6094,8.6094,8.6094,8.6094,8.6094,8.6094,8.6094,8.6094,8.6094,8.6901,8.8209,8.8603,8.9594,9.0517,9.1056,9.1095,9.1163,9.1201,9.1201,9.1201,9.1201,9.1201,9.1201,9.1201,9.1201,9.1201,9.1201,9.1201,9.1201,9.1201,9.1201,9.1201,9.1201,9.1201,9.1201,9.1201,9.1201,9.1201,9.1201,9.1201,9.1201,9.1201,9.1201,9.1201,9.1201,9.1201,9.1201,9.1201,9.1201,9.1201,9.1201,9.1201,9.1201,9.1201,9.1201,9.1201,9.1201,9.1201,9.1201,9.1201,9.1201,9.127,9.143,9.1536,9.1694,9.1888,9.2058,9.2244,9.2377,9.2488,9.2578,9.2578,9.2578,8.091,8.0957,8.0967,8.0959,8.091,8.091,8.0948,8.0948,8.0948,8.0943,8.0967,8.0965,8.0934,8.1021,8.1069,8.1093,8.1093,8.1085,8.1093,8.1085,8.1085,8.1085,8.1093,8.1093,8.1093,8.1093,8.1093,8.117,8.1939,8.2978,8.4024,8.4863,8.5632,8.6094,8.6094,8.6094,8.6094,8.6094,8.6094,8.6094,8.6094,8.6094,8.6094,8.6094,8.6094,8.6094,8.6094,8.6094,8.6094,8.6094,8.6094,8.694,8.8218,8.8795,8.944,9.0932,9.1163,9.1163,9.1201,9.1201,9.1201,9.1201,9.1201,9.1201,9.1201,9.1201,9.1201,9.1201,9.1201,9.1201,9.1201,9.1201,9.1201,9.1201,9.1201,9.1201,9.1201,9.1201,9.1201,9.1201,9.1201,9.1201,9.1201,9.1201,9.1201,9.1201,9.1201,9.1201,9.1201,9.1201,9.1201,9.1201,9.1201,9.1201,9.1201,9.1201,9.1201,9.1201,9.1201,9.1201,9.1201,9.1201,9.1201,9.1201,9.127,9.1377,9.1453,9.1624,9.1903,9.208,9.224,9.2371,9.2484,9.2578,9.2578,8.0767,8.0732,8.0805,8.0852,8.0792,8.0792,8.0801,8.0801,8.0801,8.0835,8.086,8.0826,8.0835,8.0893,8.0951,8.1013,8.0983,8.1029,8.1045,8.1053,8.1061,8.1069,8.1085,8.1093,8.1093,8.1093,8.1093,8.1131,8.1631,8.267,8.3939,8.4632,8.5593,8.6017,8.6094,8.6094,8.6094,8.6094,8.6094,8.6094,8.6094,8.6094,8.6094,8.6094,8.6094,8.6094,8.6094,8.6094,8.6094,8.6094,8.6094,8.6901,8.8372,8.8756,8.9517,9.0787,9.1201,9.1201,9.1201,9.1201,9.1201,9.1201,9.1201,9.1201,9.1201,9.1201,9.1201,9.1201,9.1201,9.1201,9.1201,9.1201,9.1201,9.1201,9.1201,9.1201,9.1201,9.1201,9.1201,9.1201,9.1201,9.1201,9.1201,9.1201,9.1201,9.1201,9.1201,9.1201,9.1201,9.1201,9.1201,9.1201,9.1201,9.1201,9.1201,9.1201,9.1201,9.1201,9.1201,9.1201,9.1201,9.1201,9.1201,9.1201,9.1201,9.1232,9.1336,9.1515,9.1724,9.1899,9.2071,9.2248,9.2401,9.2487,9.2578,8.0697,8.0505,8.0732,8.0792,8.0784,8.0831,8.0792,8.0775,8.0784,8.0784,8.0784,8.0792,8.0801,8.0809,8.0826,8.0843,8.0826,8.0818,8.0877,8.0926,8.0904,8.0991,8.1061,8.1093,8.1093,8.1093,8.1093,8.1093,8.1439,8.2593,8.3409,8.3909,8.5401,8.5901,8.6094,8.6094,8.6094,8.6094,8.6094,8.6094,8.6094,8.6094,8.6094,8.6094,8.6094,8.6094,8.6094,8.6094,8.6094,8.6094,8.6094,8.6901,8.8333,8.8641,8.9517,9.0787,9.1201,9.1201,9.1201,9.1201,9.1201,9.1201,9.1201,9.1201,9.1201,9.1201,9.1201,9.1201,9.1201,9.1201,9.1201,9.1201,9.1201,9.1201,9.1201,9.1201,9.1201,9.1201,9.1201,9.1201,9.1201,9.1201,9.1201,9.1201,9.1201,9.1201,9.1201,9.1201,9.1201,9.1201,9.1201,9.1201,9.1201,9.1201,9.1201,9.1201,9.1201,9.1201,9.1201,9.1201,9.1201,9.1201,9.1201,9.1201,9.1201,9.1201,9.118,9.1353,9.1501,9.1689,9.1871,9.2078,9.2322,9.2478,9.2536,8.058,8.0515,8.0589,8.0625,8.0625,8.0625,8.0616,8.0625,8.0625,8.0625,8.0634,8.0732,8.072,8.0693,8.0775,8.0792,8.0792,8.0801,8.0852,8.0902,8.0934,8.0975,8.1061,8.1093,8.1093,8.1093,8.1093,8.1093,8.1246,8.2362,8.3062,8.3909,8.5247,8.5863,8.6094,8.6094,8.6094,8.6094,8.6094,8.6094,8.6094,8.6094,8.6094,8.6094,8.6094,8.6094,8.6094,8.6094,8.6094,8.6094,8.6094,8.7132,8.8295,8.8564,8.9517,9.0902,9.1124,9.1201,9.1201,9.1201,9.1201,9.1201,9.1201,9.1201,9.1201,9.1201,9.1201,9.1201,9.1201,9.1201,9.1201,9.1201,9.1201,9.1201,9.1201,9.1201,9.1201,9.1201,9.1201,9.1201,9.1201,9.1201,9.1201,9.1201,9.1201,9.1201,9.1201,9.1201,9.1201,9.1201,9.1201,9.1201,9.1201,9.1201,9.1201,9.1201,9.1201,9.1201,9.1201,9.1201,9.1201,9.1201,9.1201,9.1201,9.1201,9.1201,9.121,9.1198,9.1319,9.1475,9.1712,9.1965,9.2213,9.2416,9.2486,8.044,8.0258,8.0248,8.0364,8.0497,8.0506,8.0506,8.0506,8.0515,8.0506,8.0515,8.0652,8.0679,8.0605,8.067,8.0705,8.0697,8.0705,8.0784,8.0843,8.0885,8.0959,8.1053,8.1093,8.1093,8.1093,8.1093,8.1093,8.1131,8.19,8.2747,8.3793,8.4939,8.5632,8.6094,8.6094,8.6094,8.6094,8.6094,8.6094,8.6094,8.6094,8.6094,8.6094,8.6094,8.6094,8.6094,8.6094,8.6094,8.6094,8.6247,8.6901,8.7825,8.8718,8.9487,9.0364,9.1047,9.1163,9.1201,9.1201,9.1201,9.1201,9.1201,9.1201,9.1201,9.1201,9.1201,9.1201,9.1201,9.1201,9.1201,9.1201,9.1201,9.1201,9.1201,9.1201,9.1201,9.1201,9.1201,9.1201,9.1201,9.1201,9.1201,9.1201,9.1201,9.1201,9.1201,9.1201,9.1201,9.1201,9.1201,9.1201,9.1201,9.1201,9.1201,9.1201,9.1201,9.1201,9.1201,9.1201,9.1201,9.1201,9.1201,9.1201,9.1201,9.1201,9.121,9.1189,9.1232,9.1278,9.1584,9.1908,9.2047,9.2256,9.2418,8.0169,7.973,7.9719,7.9999,8.0373,8.0497,8.0497,8.0506,8.0506,8.0506,8.0506,8.0543,8.0543,8.0534,8.0562,8.0562,8.0571,8.0562,8.0652,8.0784,8.0843,8.0918,8.1037,8.1093,8.1093,8.1093,8.1093,8.1093,8.1093,8.1708,8.2593,8.3516,8.4516,8.544,8.6017,8.6094,8.6094,8.6094,8.6094,8.6094,8.6094,8.6094,8.6094,8.6094,8.6094,8.6094,8.6094,8.6094,8.6094,8.6094,8.6094,8.6671,8.7478,8.8372,8.9133,8.9932,9.0825,9.1171,9.1201,9.1201,9.1201,9.1201,9.1201,9.1201,9.1201,9.1201,9.1201,9.1201,9.1201,9.1201,9.1201,9.1201,9.1201,9.1201,9.1201,9.1201,9.1201,9.1201,9.1201,9.1201,9.1201,9.1201,9.1201,9.1201,9.1201,9.1201,9.1201,9.1201,9.1201,9.1201,9.1201,9.1201,9.1201,9.1201,9.1201,9.1201,9.1201,9.1201,9.1201,9.1201,9.1201,9.1201,9.1201,9.1201,9.1201,9.1201,9.1201,9.121,9.1224,9.1278,9.1533,9.1789,9.1942,9.209,9.2256,7.9346,7.9194,7.9157,7.925,7.9483,7.9815,8.0159,8.0478,8.0506,8.0506,8.0506,8.0506,8.0506,8.0506,8.0506,8.0515,8.0515,8.056,8.065,8.0784,8.0835,8.0951,8.1061,8.1085,8.1085,8.1093,8.1093,8.1093,8.1093,8.1516,8.1977,8.2824,8.4209,8.5286,8.5901,8.6094,8.6094,8.6094,8.6094,8.6094,8.6094,8.6094,8.6094,8.6094,8.6094,8.6094,8.6094,8.6094,8.6094,8.6094,8.6094,8.6517,8.7286,8.8132,8.9017,8.9825,9.071,9.1163,9.1201,9.1201,9.1201,9.1201,9.1201,9.1201,9.1201,9.1201,9.1201,9.1201,9.1201,9.1201,9.1201,9.1201,9.1201,9.1201,9.1201,9.1201,9.1201,9.1201,9.1201,9.1201,9.1201,9.1201,9.1201,9.1201,9.1201,9.1201,9.1201,9.1201,9.1201,9.1201,9.1201,9.1201,9.1201,9.1201,9.1201,9.1201,9.1201,9.1201,9.1201,9.1201,9.1201,9.1201,9.1201,9.1201,9.1201,9.1201,9.1201,9.121,9.1224,9.1336,9.1489,9.1683,9.1866,9.2009,9.2125,7.8791,7.8627,7.8614,7.8728,7.8928,7.9288,7.9654,7.9899,7.9968,8.003,8.0189,8.0209,8.0344,8.043,8.0506,8.0506,8.0515,8.0532,8.0614,8.0702,8.0763,8.0893,8.0967,8.1053,8.1061,8.1077,8.1093,8.1093,8.1093,8.1093,8.1593,8.2631,8.4008,8.497,8.5593,8.5824,8.6094,8.6094,8.6094,8.6094,8.6094,8.6094,8.6094,8.6094,8.6094,8.6094,8.6094,8.6094,8.6094,8.6094,8.6209,8.6363,8.7055,8.7786,8.8632,8.9479,9.0556,9.1047,9.1201,9.1201,9.1201,9.1201,9.1201,9.1201,9.1201,9.1201,9.1201,9.1201,9.1201,9.1201,9.1201,9.1201,9.1201,9.1201,9.1201,9.1201,9.1201,9.1201,9.1201,9.1201,9.1201,9.1201,9.1201,9.1201,9.1201,9.1201,9.1201,9.1201,9.1201,9.1201,9.1201,9.1201,9.1201,9.1201,9.1201,9.1201,9.1201,9.1201,9.1201,9.1201,9.1201,9.1201,9.1201,9.1201,9.1201,9.1201,9.1201,9.118,9.1206,9.1249,9.1327,9.1533,9.173,9.1938,9.209,7.8523,7.8128,7.8063,7.8376,7.8766,7.8779,7.8854,7.8928,7.894,7.9253,7.9638,7.9686,7.9847,8.0287,8.0402,8.0402,8.044,8.0458,8.056,8.0614,8.0685,8.078,8.0885,8.0926,8.0967,8.1053,8.1077,8.1069,8.1085,8.1093,8.1516,8.2439,8.3862,8.4662,8.517,8.5709,8.6017,8.6094,8.6094,8.6094,8.6094,8.6094,8.6094,8.6094,8.6094,8.6094,8.6094,8.6094,8.6094,8.6094,8.6132,8.6132,8.6401,8.694,8.7795,8.894,9.0441,9.097,9.1201,9.1201,9.1201,9.1201,9.1201,9.1201,9.1201,9.1201,9.1201,9.1201,9.1201,9.1201,9.1201,9.1201,9.1201,9.1201,9.1201,9.1201,9.1201,9.1201,9.1201,9.1201,9.1201,9.1201,9.1201,9.1201,9.1201,9.1201,9.1201,9.1201,9.1201,9.1201,9.1201,9.1201,9.1201,9.1201,9.1201,9.1201,9.1201,9.1201,9.1201,9.1201,9.1201,9.1201,9.1201,9.1201,9.1201,9.1201,9.1201,9.1201,9.121,9.1232,9.1295,9.1482,9.1724,9.1974,9.2175,7.7688,7.7525,7.7525,7.7607,7.7753,7.7768,7.821,7.8841,7.8891,7.9013,7.9121,7.9121,7.925,7.9392,7.9751,7.9878,8.0101,8.0335,8.0551,8.0623,8.065,8.0775,8.0818,8.0835,8.0893,8.0934,8.0975,8.0999,8.1077,8.1085,8.1477,8.2401,8.3401,8.4132,8.4901,8.5662,8.594,8.6094,8.6094,8.6094,8.6094,8.6094,8.6094,8.6094,8.6094,8.6094,8.6094,8.6094,8.6094,8.6094,8.6094,8.6094,8.617,8.6978,8.7902,8.9479,9.0547,9.1201,9.1201,9.1201,9.1201,9.1201,9.1201,9.1201,9.1201,9.1201,9.1201,9.1201,9.1201,9.1201,9.1201,9.1201,9.1201,9.1201,9.1201,9.1201,9.1201,9.1201,9.1201,9.1201,9.1201,9.1201,9.1201,9.1201,9.1201,9.1201,9.1201,9.1201,9.1201,9.1201,9.1201,9.1201,9.1201,9.1201,9.1201,9.1201,9.1201,9.1201,9.1201,9.1201,9.1201,9.1201,9.1201,9.1201,9.1201,9.1201,9.1201,9.1201,9.1201,9.1261,9.1307,9.1515,9.1692,9.1944,9.2225,7.7326,7.7326,7.7326,7.7326,7.7326,7.7326,7.771,7.8214,7.8268,7.8363,7.8562,7.8575,7.869,7.9013,7.9471,7.9741,7.9783,8.0287,8.0542,8.056,8.0623,8.0697,8.0723,8.0749,8.0754,8.0852,8.091,8.0959,8.1007,8.1123,8.1439,8.1785,8.267,8.3516,8.4324,8.5093,8.5747,8.5978,8.6094,8.6094,8.6094,8.6094,8.6094,8.6094,8.6094,8.6094,8.6094,8.6094,8.6094,8.6094,8.6094,8.6094,8.6247,8.6978,8.7863,8.9248,9.0094,9.0778,9.1047,9.1201,9.1201,9.1201,9.1201,9.1201,9.1201,9.1201,9.1201,9.1201,9.1201,9.1201,9.1201,9.1201,9.1201,9.1201,9.1201,9.1201,9.1201,9.1201,9.1201,9.1201,9.1201,9.1201,9.1201,9.1201,9.1201,9.1201,9.1201,9.1201,9.1201,9.1201,9.1201,9.1201,9.1201,9.1201,9.1201,9.1201,9.1201,9.1201,9.1201,9.1201,9.1201,9.1201,9.1201,9.1201,9.1201,9.1201,9.1201,9.1201,9.1189,9.127,9.1283,9.1414,9.1643,9.1927,9.2159,7.7326,7.7326,7.7326,7.7326,7.7326,7.7326,7.732,7.7326,7.7411,7.7599,7.7988,7.8044,7.8268,7.8575,7.9099,7.9426,7.9643,8.0061,8.0421,8.0497,8.0543,8.0589,8.0596,8.0623,8.0685,8.0792,8.0877,8.0951,8.0967,8.1053,8.1131,8.1131,8.1977,8.2824,8.3516,8.4593,8.5324,8.5709,8.5978,8.6094,8.6094,8.6094,8.6094,8.6094,8.6094,8.6094,8.6094,8.6094,8.6094,8.6094,8.6094,8.6094,8.6363,8.694,8.7833,8.8709,8.9671,9.0432,9.097,9.1201,9.1201,9.1201,9.1201,9.1201,9.1201,9.1201,9.1201,9.1201,9.1201,9.1201,9.1201,9.1201,9.1201,9.1201,9.1201,9.1201,9.1201,9.1201,9.1201,9.1201,9.1201,9.1201,9.1201,9.1201,9.1201,9.1201,9.1201,9.1201,9.1201,9.1201,9.1201,9.1201,9.1201,9.1201,9.1201,9.1201,9.1201,9.1201,9.1201,9.1201,9.1201,9.1201,9.1201,9.1201,9.1201,9.1201,9.1201,9.1201,9.1201,9.1198,9.1261,9.1307,9.1521,9.1821,9.209,7.7326,7.7326,7.7326,7.7326,7.7326,7.7326,7.7326,7.7326,7.7326,7.7381,7.748,7.751,7.7599,7.786,7.8389,7.8754,7.9157,7.9741,8.0129,8.0364,8.0487,8.0525,8.0523,8.0578,8.0623,8.0693,8.0796,8.0959,8.1007,8.1077,8.1131,8.117,8.1823,8.2401,8.2785,8.3978,8.4824,8.5324,8.5739,8.5978,8.6094,8.6094,8.6094,8.6094,8.6094,8.6094,8.6094,8.6094,8.6094,8.6094,8.6094,8.6094,8.6132,8.694,8.7786,8.8632,8.9363,9.0171,9.0816,9.1124,9.1201,9.1201,9.1201,9.1201,9.1201,9.1201,9.1201,9.1201,9.1201,9.1201,9.1201,9.1201,9.1201,9.1201,9.1201,9.1201,9.1201,9.1201,9.1201,9.1201,9.1201,9.1201,9.1201,9.1201,9.1201,9.1201,9.1201,9.1201,9.1201,9.1201,9.1201,9.1201,9.1201,9.1201,9.1201,9.1201,9.1201,9.1201,9.1201,9.1201,9.1201,9.1201,9.1201,9.1201,9.1201,9.1201,9.1201,9.1201,9.1201,9.1201,9.1206,9.1256,9.1414,9.1649,9.1926,7.7326,7.7326,7.7326,7.7326,7.7326,7.7326,7.7326,7.7326,7.7326,7.7326,7.7326,7.7326,7.7326,7.7381,7.7846,7.8187,7.8678,7.9381,7.9773,8.0119,8.0373,8.0506,8.0505,8.0523,8.0578,8.065,8.0805,8.0967,8.1069,8.1093,8.1131,8.117,8.1631,8.1977,8.2324,8.3362,8.4209,8.4893,8.5393,8.5739,8.6017,8.6094,8.6094,8.6094,8.6094,8.6094,8.6094,8.6094,8.6094,8.6094,8.6094,8.6094,8.617,8.6517,8.7209,8.8017,8.8863,8.9748,9.0441,9.0932,9.1124,9.1163,9.1201,9.1201,9.1201,9.1201,9.1201,9.1201,9.1201,9.1201,9.1201,9.1201,9.1201,9.1201,9.1201,9.1201,9.1201,9.1201,9.1201,9.1201,9.1201,9.1201,9.1201,9.1201,9.1201,9.1201,9.1201,9.1201,9.1201,9.1201,9.1201,9.1201,9.1201,9.1201,9.1201,9.1201,9.1201,9.1201,9.1201,9.1201,9.1201,9.1201,9.1201,9.1201,9.1201,9.1201,9.1201,9.1201,9.1201,9.1201,9.1198,9.1249,9.1385,9.1518,9.1722,7.7326,7.7326,7.7326,7.7326,7.7326,7.7326,7.7326,7.7326,7.7326,7.7326,7.7326,7.7326,7.7326,7.7465,7.7739,7.7946,7.8309,7.8916,7.9346,7.9719,8.0139,8.0199,8.0344,8.0458,8.056,8.0667,8.0835,8.0934,8.1015,8.1077,8.1093,8.1093,8.1246,8.1439,8.1977,8.2477,8.3093,8.4247,8.4978,8.5431,8.5778,8.6094,8.6094,8.6094,8.6094,8.6094,8.6094,8.6094,8.6094,8.6094,8.6094,8.6094,8.6094,8.6247,8.6786,8.7517,8.8141,8.9017,8.9855,9.0547,9.0893,9.1133,9.1163,9.1201,9.1201,9.1201,9.1201,9.1201,9.1201,9.1201,9.1201,9.1201,9.1201,9.1201,9.1201,9.1201,9.1201,9.1201,9.1201,9.1201,9.1201,9.1201,9.1201,9.1201,9.1201,9.1201,9.1201,9.1201,9.1201,9.1201,9.1201,9.1201,9.1201,9.1201,9.1201,9.1201,9.1201,9.1201,9.1201,9.1201,9.1201,9.1201,9.1201,9.1201,9.1201,9.1201,9.1201,9.1201,9.1201,9.1201,9.118,9.1206,9.1253,9.14,9.1532,7.7326,7.7326,7.7326,7.7326,7.7326,7.7326,7.7326,7.7326,7.7326,7.7326,7.7326,7.7326,7.7326,7.7326,7.7365,7.7614,7.803,7.8495,7.8741,7.9073,7.9621,7.9783,8.004,8.0383,8.0614,8.0749,8.0809,8.0868,8.0975,8.1061,8.1093,8.1093,8.1093,8.1208,8.1362,8.19,8.2708,8.3708,8.4593,8.5132,8.5778,8.6047,8.6094,8.6094,8.6094,8.6094,8.6094,8.6094,8.6094,8.6094,8.6094,8.6094,8.6094,8.6132,8.6555,8.7017,8.7632,8.8402,8.9286,9.0009,9.0432,9.0979,9.1047,9.1201,9.1201,9.1201,9.1201,9.1201,9.1201,9.1201,9.1201,9.1201,9.1201,9.1201,9.1201,9.1201,9.1201,9.1201,9.1201,9.1201,9.1201,9.1201,9.1201,9.1201,9.1201,9.1201,9.1201,9.1201,9.1201,9.1201,9.1201,9.1201,9.1201,9.1201,9.1201,9.1201,9.1201,9.1201,9.1201,9.1201,9.1201,9.1201,9.1201,9.1201,9.1201,9.1201,9.1201,9.1201,9.1201,9.1201,9.1201,9.1189,9.1224,9.127,9.1423]}]]